[[{"header":{"parameterUnit":"m.s-1","parameterCategory":1,"la1":31.0,"la2":29.5877,"lo1":-88.7671,"lo2":-86.6584,"dy":0.0162,"dx":0.0185,"nx":115,"ny":88,"refTime":"2023-08-09T18:00:00:Z","depth":0,"parameterNumber":2,"parameterNumberName":"U-component_of_WINDS"},"data":[0.0,0.0,0.0,0.0,0.0,0.0,0.0,0.0,0.0,0.0,0.0,0.0,0.0,0.0,0.0,0.0,0.0,0.0,0.0,0.0,0.0,0.0,0.0,0.0,0.0,0.0,0.0,0.0,0.0,0.0,0.0,0.0,0.0,0.0,0.0,0.0,0.0,0.0,0.0,0.0,0.0,0.0,0.0,0.0,0.0,0.0,0.0,0.0,0.0,0.0,0.0,0.0,0.0,0.0,0.0,0.0,0.0,0.0,0.0,0.0,0.0,0.0,0.0,0.0,0.0,0.0,0.0,0.0,0.0,0.0,0.0,0.0,0.0,0.0,0.0,0.0,0.0,0.0,0.0,0.0,0.0,0.0,0.0,0.0,0.0,0.0,0.0,0.0,0.0,0.0,0.0,0.0,0.0,0.0,0.0,0.0,0.0,0.0,0.0,0.0,0.0,0.0,0.0,0.0,0.0,0.0,0.0,0.0,0.0,0.0,0.0,0.0,0.0,0.0,0.0,0.0,0.0,0.0,0.0,0.0,0.0,0.0,0.0,0.0,0.0,0.0,0.0,0.0,0.0,0.0,0.0,0.0,0.0,0.0,0.0,0.0,0.0,0.0,0.0,0.0,0.0,0.0,0.0,0.0,0.0,0.0,0.0,0.0,0.0,0.0,0.0,0.0,0.0,0.0,0.0,0.0,0.0,0.0,0.0,0.0,0.0,0.0,0.0,0.0,0.0,0.0,0.0,0.0,0.0,0.0,0.0,0.0,0.0,0.0,0.0,0.0,0.0,0.0,0.0,0.0,0.0,0.0,0.0,0.0,0.0,0.0,0.0,0.0,0.0,0.0,0.0,0.0,0.0,0.0,0.0,0.0,0.0,0.0,0.0,0.0,0.0,0.0,0.0,0.0,0.0,0.0,0.0,0.0,0.0,0.0,0.0,0.0,0.0,0.0,0.0,0.0,0.0,0.0,0.0,0.0,0.0,0.0,0.0,0.0,0.0,0.0,0.0,0.0,0.0,0.0,0.0,0.0,0.0,0.0,0.0,0.0,0.0,0.0,0.0,0.0,0.0,0.0,0.0,0.0,0.0,0.0,0.0,0.0,0.0,0.0,0.0,0.0,0.0,0.0,0.0,0.0,0.0,0.0,0.0,0.0,0.0,0.0,0.0,0.0,0.0,0.0,0.0,0.0,0.0,0.0,0.0,0.0,0.0,0.0,0.0,0.0,0.0,0.0,0.0,0.0,0.0,0.0,0.0,0.0,0.0,0.0,0.0,0.0,0.0,0.0,0.0,0.0,0.0,0.0,0.0,0.0,0.0,0.0,0.0,0.0,0.0,0.0,0.0,0.0,0.0,0.0,0.0,0.0,0.0,0.0,0.0,0.0,0.0,0.0,0.0,0.0,0.0,0.0,0.0,0.0,0.0,0.0,0.0,0.0,0.0,0.0,0.0,0.0,0.0,0.0,0.0,0.0,0.0,0.0,0.0,0.0,0.0,0.0,0.0,0.0,0.0,0.0,0.0,0.0,0.0,0.0,0.0,0.0,0.0,0.0,0.0,0.0,0.0,0.0,0.0,0.0,0.0,0.0,0.0,0.0,0.0,0.0,0.0,0.0,0.0,0.0,0.0,0.0,0.0,0.0,0.0,0.0,0.0,0.0,0.0,0.0,0.0,0.0,0.0,0.0,0.0,0.0,0.0,0.0,0.0,0.0,0.0,0.0,0.0,0.0,0.0,0.0,0.0,0.0,0.0,0.0,0.0,0.0,0.0,0.0,0.0,0.0,0.0,0.0,0.0,0.0,0.0,0.0,0.0,0.0,0.0,0.0,0.0,0.0,0.0,0.0,0.0,0.0,0.0,0.0,0.0,0.0,0.0,0.0,0.0,0.0,0.0,0.0,0.0,0.0,0.0,0.0,0.0,0.0,0.0,0.0,0.0,0.0,0.0,0.0,0.0,0.0,0.0,0.0,0.0,0.0,0.0,0.0,0.0,0.0,0.0,0.0,0.0,0.0,0.0,0.0,0.0,0.0,0.0,0.0,0.0,0.0,0.0,0.0,0.0,0.0,0.0,0.0,0.0,0.0,0.0,0.0,0.0,0.0,0.0,0.0,0.0,0.0,0.0,0.0,0.0,0.0,0.0,0.0,0.0,0.0,0.0,0.0,0.0,0.0,0.0,0.0,0.0,0.0,0.0,0.0,0.0,0.0,0.0,0.0,0.0,0.0,0.0,0.0,0.0,0.0,0.0,0.0,0.0,0.0,0.0,0.0,0.0,0.0,0.0,0.0,0.0,0.0,0.0,0.0,0.0,0.0,0.0,0.0,0.0,0.0,0.0,0.0,0.0,0.0,0.0,0.0,0.0,0.0,0.0,0.0,0.0,0.0,0.0,0.0,0.0,0.0,0.0,0.0,0.0,0.0,0.0,0.0,0.0,0.0,0.0,0.0,0.0,0.0,0.0,0.0,0.0,0.0,0.0,0.0,0.0,0.0,0.0,0.0,0.0,0.0,0.0,0.0,0.0,0.0,0.0,0.0,0.0,0.0,0.0,0.0,0.0,0.0,0.0,0.0,0.0,0.0,0.0,0.0,0.0,0.0,0.0,0.0,0.0,0.0,0.0,0.0,0.0,0.0,0.0,0.0,0.0,0.0,0.0,0.0,0.0,0.0,0.0,0.0,0.0,0.0,0.0,0.0,0.0,0.0,0.0,0.0,0.0,0.0,0.0,0.0,0.0,0.0,0.0,0.0,0.0,0.0,0.0,0.0,0.0,0.0,0.0,0.0,0.0,0.0,0.0,0.0,0.0,0.0,0.0,0.0,0.0,0.0,0.0,0.0,0.0,0.0,0.0,0.0,0.0,0.0,0.0,0.0,0.0,0.0,0.0,0.0,0.0,0.0,0.0,0.0,0.0,0.0,0.0,0.0,0.0,0.0,0.0,0.0,0.0,0.0,0.0,0.0,0.0,0.0,0.0,0.0,0.0,0.0,0.0,0.0,0.0,0.0,0.0,0.0,0.0,0.0,0.0,0.0,0.0,0.0,0.0,0.0,0.0,0.0,0.0,0.0,0.0,0.0,0.0,0.0,0.0,0.0,0.0,0.0,0.0,0.0,0.0,0.0,0.0,0.0,0.0,0.0,0.0,0.0,0.0,0.0,0.0,0.0,0.0,0.0,0.0,0.0,0.0,0.0,0.0,0.0,0.0,0.0,0.0,0.0,0.0,0.0,0.0,0.0,0.0,0.0,0.0,0.0,0.0,0.0,0.0,0.0,0.0,0.0,0.0,0.0,0.0,0.0,0.0,0.0,0.0,0.0,0.0,0.0,0.0,0.0,0.0,0.0,0.0,0.0,0.0,0.0,0.0,0.0,0.0,0.0,0.0,0.0,0.0,0.0,0.0,0.0,0.0,0.0,0.0,0.0,0.0,0.0,0.0,0.0,0.0,0.0,0.0,0.0,0.0,0.0,0.0,0.0,0.0,0.0,0.0,0.0,0.0,0.0,0.0,0.0,0.0,0.0,0.0,0.0,0.0,0.0,0.0,0.0,0.0,0.0,0.0,0.0,0.0,0.0,0.0,0.0,0.0,0.0,0.0,0.0,0.0,0.0,0.0,0.0,0.0,0.0,0.0,0.0,0.0,0.0,0.0,0.0,0.0,0.0,0.0,0.0,0.0,0.0,0.0,0.0,0.0,0.0,0.0,0.0,0.0,0.0,0.0,0.0,0.0,0.0,0.0,0.0,0.0,0.0,0.0,0.0,0.0,0.0,0.0,0.0,0.0,0.0,0.0,0.0,0.0,0.0,0.0,0.0,0.0,0.0,0.0,0.0,0.0,0.0,0.0,0.0,0.0,0.0,0.0,0.0,0.0,0.0,0.0,0.0,0.0,0.0,0.0,0.0,0.0,0.0,0.0,0.0,0.0,0.0,0.0,0.0,0.0,0.0,0.0,0.0,0.0,0.0,0.0,0.0,0.0,0.0,0.0,0.0,0.0,0.0,0.0,0.0,0.0,0.0,0.0,0.0,0.0,0.0,0.0,0.0,0.0,0.0,0.0,0.0,0.0,0.0,0.0,0.0,0.0,0.0,0.0,0.0,0.0,0.0,0.0,0.0,0.0,0.0,0.0,0.0,0.0,0.0,0.0,0.0,0.0,0.0,0.0,0.0,0.0,0.0,0.0,0.0,0.0,0.0,0.0,0.0,0.0,0.0,0.0,0.0,0.0,0.0,0.0,0.0,0.0,0.0,0.0,0.0,0.0,0.0,0.0,0.0,0.0,0.0,-2.5005,0.0,0.0,0.0,0.0,0.0,0.0,0.0,0.0,0.0,0.0,0.0,0.0,0.0,0.0,0.0,0.0,0.0,0.0,0.0,0.0,0.0,0.0,0.0,0.0,0.0,0.0,0.0,0.0,0.0,0.0,0.0,0.0,0.0,0.0,0.0,0.0,0.0,0.0,0.0,0.0,0.0,0.0,0.0,0.0,0.0,0.0,0.0,0.0,0.0,0.0,0.0,0.0,0.0,0.0,0.0,0.0,0.0,0.0,0.0,0.0,0.0,0.0,0.0,0.0,0.0,0.0,0.0,0.0,0.0,0.0,0.0,0.0,0.0,0.0,0.0,0.0,0.0,0.0,0.0,0.0,0.0,0.0,0.0,0.0,0.0,0.0,0.0,0.0,0.0,0.0,0.0,0.0,0.0,0.0,0.0,0.0,0.0,0.0,0.0,0.0,0.0,0.0,0.0,0.0,0.0,0.0,0.0,0.0,0.0,0.0,-2.5757,-2.5508,-2.516,-2.5005,-2.5005,0.0,0.0,0.0,0.0,0.0,0.0,0.0,0.0,0.0,0.0,0.0,0.0,0.0,0.0,0.0,0.0,0.0,0.0,0.0,0.0,0.0,0.0,0.0,0.0,0.0,0.0,0.0,0.0,0.0,0.0,0.0,0.0,0.0,0.0,0.0,0.0,0.0,0.0,0.0,0.0,0.0,0.0,0.0,0.0,0.0,0.0,0.0,0.0,0.0,0.0,0.0,0.0,0.0,0.0,0.0,0.0,0.0,0.0,0.0,0.0,0.0,0.0,0.0,0.0,0.0,0.0,0.0,0.0,0.0,0.0,0.0,0.0,0.0,0.0,0.0,0.0,0.0,0.0,0.0,0.0,0.0,0.0,0.0,0.0,0.0,0.0,0.0,0.0,0.0,0.0,0.0,0.0,0.0,0.0,0.0,0.0,0.0,0.0,0.0,0.0,0.0,0.0,0.0,0.0,0.0,0.0,0.0,0.0,0.0,0.0,0.0,0.0,-2.5244,-2.5005,-2.5005,0.0,0.0,0.0,0.0,0.0,0.0,0.0,0.0,0.0,0.0,0.0,0.0,0.0,0.0,0.0,0.0,0.0,0.0,0.0,0.0,0.0,0.0,0.0,0.0,0.0,0.0,0.0,0.0,0.0,0.0,0.0,0.0,0.0,0.0,0.0,0.0,0.0,0.0,0.0,0.0,0.0,0.0,0.0,0.0,0.0,0.0,0.0,0.0,0.0,0.0,0.0,0.0,0.0,0.0,0.0,0.0,0.0,0.0,0.0,0.0,0.0,0.0,0.0,0.0,0.0,0.0,0.0,0.0,0.0,0.0,0.0,0.0,0.0,0.0,0.0,0.0,0.0,0.0,0.0,0.0,0.0,0.0,0.0,0.0,0.0,0.0,0.0,0.0,0.0,0.0,0.0,0.0,0.0,0.0,0.0,0.0,0.0,0.0,0.0,0.0,0.0,0.0,0.0,0.0,0.0,0.0,0.0,0.0,0.0,0.0,-2.509,-2.5076,-2.5033,0.0,-2.5005,0.0,0.0,0.0,0.0,0.0,0.0,0.0,0.0,0.0,0.0,0.0,0.0,0.0,0.0,0.0,0.0,0.0,0.0,0.0,0.0,0.0,0.0,0.0,0.0,0.0,0.0,0.0,0.0,0.0,0.0,0.0,0.0,0.0,0.0,0.0,0.0,0.0,0.0,0.0,0.0,0.0,0.0,0.0,0.0,0.0,0.0,0.0,0.0,0.0,0.0,0.0,0.0,0.0,0.0,0.0,0.0,0.0,0.0,0.0,0.0,0.0,0.0,0.0,0.0,0.0,0.0,0.0,0.0,0.0,0.0,0.0,0.0,0.0,0.0,0.0,0.0,0.0,0.0,0.0,0.0,0.0,0.0,0.0,0.0,0.0,0.0,0.0,0.0,0.0,0.0,0.0,0.0,0.0,0.0,0.0,0.0,0.0,0.0,0.0,0.0,0.0,0.0,0.0,0.0,0.0,0.0,0.0,0.0,0.0,0.0,-2.5005,-2.5005,-2.5005,-2.5005,0.0,0.0,0.0,0.0,0.0,0.0,0.0,0.0,0.0,0.0,0.0,0.0,0.0,0.0,0.0,0.0,0.0,0.0,0.0,0.0,0.0,0.0,0.0,0.0,0.0,0.0,0.0,0.0,0.0,0.0,0.0,0.0,0.0,0.0,0.0,0.0,0.0,0.0,0.0,0.0,0.0,0.0,0.0,0.0,0.0,0.0,0.0,0.0,0.0,0.0,0.0,0.0,0.0,0.0,0.0,0.0,0.0,0.0,0.0,0.0,0.0,0.0,0.0,0.0,0.0,0.0,0.0,0.0,0.0,0.0,0.0,0.0,0.0,0.0,0.0,0.0,0.0,0.0,0.0,0.0,0.0,0.0,0.0,0.0,0.0,0.0,0.0,0.0,0.0,0.0,0.0,0.0,0.0,0.0,0.0,0.0,0.0,0.0,0.0,0.0,0.0,0.0,0.0,0.0,0.0,0.0,0.0,0.0,0.0,0.0,-2.5005,-2.5005,-2.5005,-2.5005,-2.5005,-2.5005,0.0,0.0,0.0,0.0,0.0,0.0,0.0,0.0,0.0,0.0,0.0,0.0,0.0,0.0,0.0,0.0,0.0,0.0,0.0,0.0,0.0,0.0,0.0,0.0,0.0,0.0,0.0,0.0,0.0,0.0,0.0,0.0,0.0,0.0,0.0,0.0,0.0,0.0,0.0,0.0,0.0,0.0,0.0,0.0,0.0,0.0,0.0,0.0,0.0,0.0,0.0,0.0,0.0,0.0,0.0,0.0,0.0,0.0,0.0,0.0,0.0,0.0,0.0,0.0,0.0,0.0,0.0,0.0,0.0,0.0,0.0,0.0,0.0,0.0,0.0,0.0,0.0,0.0,0.0,0.0,0.0,0.0,0.0,0.0,0.0,0.0,0.0,0.0,0.0,0.0,0.0,0.0,0.0,0.0,0.0,0.0,0.0,0.0,0.0,0.0,0.0,0.0,0.0,0.0,0.0,0.0,0.0,0.0,-2.5005,-2.5005,-2.5005,-2.5005,-2.5005,-2.5005,0.0,0.0,0.0,0.0,0.0,0.0,0.0,0.0,0.0,0.0,0.0,0.0,0.0,0.0,0.0,0.0,0.0,0.0,0.0,0.0,0.0,0.0,0.0,0.0,0.0,0.0,0.0,0.0,0.0,0.0,0.0,0.0,0.0,0.0,0.0,0.0,0.0,0.0,0.0,0.0,0.0,0.0,0.0,0.0,0.0,0.0,0.0,0.0,0.0,0.0,0.0,0.0,0.0,0.0,0.0,0.0,0.0,0.0,0.0,0.0,0.0,0.0,0.0,0.0,0.0,0.0,0.0,0.0,0.0,0.0,0.0,0.0,0.0,0.0,0.0,0.0,0.0,0.0,0.0,0.0,0.0,0.0,0.0,0.0,0.0,0.0,0.0,0.0,0.0,0.0,0.0,0.0,0.0,0.0,0.0,0.0,0.0,0.0,0.0,0.0,0.0,0.0,0.0,0.0,0.0,0.0,0.0,0.0,0.0,-2.5005,-2.5005,-2.5005,-2.5005,-2.5005,-2.5005,0.0,0.0,0.0,0.0,0.0,0.0,0.0,0.0,0.0,0.0,0.0,0.0,0.0,0.0,0.0,0.0,0.0,0.0,0.0,0.0,0.0,0.0,0.0,0.0,0.0,0.0,0.0,0.0,0.0,0.0,0.0,0.0,0.0,0.0,0.0,0.0,0.0,0.0,0.0,0.0,0.0,0.0,0.0,0.0,0.0,0.0,0.0,0.0,0.0,0.0,0.0,0.0,0.0,0.0,0.0,0.0,0.0,0.0,0.0,0.0,0.0,0.0,0.0,0.0,0.0,0.0,0.0,0.0,0.0,0.0,0.0,0.0,0.0,0.0,0.0,0.0,0.0,0.0,0.0,0.0,0.0,0.0,0.0,0.0,0.0,0.0,0.0,0.0,0.0,0.0,0.0,0.0,0.0,0.0,0.0,0.0,0.0,0.0,0.0,0.0,0.0,0.0,0.0,0.0,0.0,0.0,0.0,0.0,0.0,-2.5005,0.0,-2.5005,-2.5005,-2.5005,-2.5005,0.0,0.0,0.0,0.0,0.0,0.0,0.0,0.0,0.0,0.0,0.0,0.0,0.0,0.0,0.0,0.0,0.0,0.0,0.0,0.0,0.0,0.0,0.0,0.0,0.0,0.0,0.0,0.0,0.0,0.0,0.0,0.0,0.0,0.0,0.0,0.0,0.0,0.0,0.0,0.0,0.0,0.0,0.0,0.0,0.0,0.0,0.0,0.0,0.0,0.0,0.0,0.0,0.0,0.0,0.0,0.0,0.0,0.0,0.0,0.0,0.0,0.0,0.0,0.0,0.0,0.0,0.0,0.0,0.0,0.0,0.0,0.0,0.0,0.0,0.0,0.0,0.0,0.0,0.0,0.0,0.0,0.0,0.0,0.0,0.0,0.0,0.0,0.0,0.0,0.0,0.0,0.0,0.0,0.0,0.0,0.0,0.0,0.0,0.0,0.0,0.0,0.0,0.0,0.0,0.0,0.0,0.0,0.0,-2.5005,-2.5005,-2.5005,-2.5005,-2.5005,-2.5005,-2.5005,0.0,0.0,0.0,0.0,0.0,0.0,0.0,0.0,0.0,0.0,0.0,0.0,0.0,0.0,0.0,0.0,0.0,0.0,0.0,0.0,0.0,0.0,0.0,0.0,0.0,0.0,0.0,0.0,0.0,0.0,0.0,0.0,0.0,0.0,0.0,0.0,0.0,0.0,0.0,0.0,0.0,0.0,0.0,0.0,0.0,0.0,0.0,0.0,0.0,0.0,0.0,0.0,0.0,0.0,0.0,0.0,0.0,0.0,0.0,0.0,0.0,0.0,0.0,0.0,0.0,0.0,0.0,0.0,0.0,0.0,0.0,0.0,0.0,0.0,0.0,0.0,0.0,0.0,0.0,0.0,0.0,0.0,0.0,0.0,0.0,0.0,0.0,0.0,0.0,0.0,0.0,0.0,0.0,0.0,0.0,0.0,0.0,0.0,0.0,0.0,0.0,0.0,0.0,0.0,0.0,0.0,0.0,0.0,0.0,-2.5005,-2.5005,-2.5005,-2.5005,-2.5005,-2.5005,0.0,0.0,0.0,0.0,0.0,0.0,0.0,0.0,0.0,0.0,0.0,0.0,0.0,0.0,0.0,0.0,0.0,0.0,0.0,0.0,0.0,0.0,0.0,0.0,0.0,0.0,0.0,0.0,0.0,0.0,0.0,0.0,0.0,0.0,0.0,0.0,0.0,0.0,0.0,0.0,0.0,0.0,0.0,0.0,0.0,0.0,0.0,0.0,0.0,0.0,0.0,0.0,0.0,0.0,0.0,0.0,0.0,0.0,0.0,0.0,0.0,0.0,0.0,0.0,0.0,0.0,0.0,0.0,0.0,0.0,0.0,0.0,0.0,0.0,0.0,0.0,0.0,0.0,0.0,0.0,0.0,0.0,0.0,0.0,0.0,0.0,0.0,0.0,0.0,0.0,0.0,0.0,0.0,0.0,0.0,0.0,0.0,0.0,0.0,0.0,0.0,0.0,0.0,0.0,0.0,0.0,0.0,0.0,0.0,-2.5005,-2.5005,-2.5005,-2.5005,-2.5005,-2.5005,-2.5005,0.0,0.0,0.0,0.0,0.0,0.0,0.0,0.0,0.0,0.0,0.0,0.0,0.0,0.0,0.0,0.0,0.0,0.0,0.0,0.0,0.0,0.0,0.0,0.0,0.0,0.0,0.0,0.0,0.0,0.0,0.0,0.0,0.0,0.0,0.0,0.0,0.0,0.0,0.0,0.0,0.0,0.0,0.0,0.0,0.0,0.0,0.0,0.0,0.0,0.0,0.0,0.0,0.0,0.0,0.0,0.0,0.0,0.0,0.0,0.0,0.0,0.0,0.0,0.0,0.0,0.0,0.0,0.0,0.0,0.0,0.0,0.0,0.0,0.0,0.0,0.0,0.0,0.0,0.0,0.0,0.0,0.0,0.0,0.0,0.0,0.0,0.0,0.0,0.0,0.0,0.0,0.0,0.0,0.0,0.0,0.0,0.0,0.0,0.0,0.0,0.0,0.0,0.0,0.0,0.0,0.0,0.0,0.0,-2.5005,-2.5005,-2.5005,-2.5005,-2.5005,-2.5005,0.0,0.0,0.0,0.0,0.0,0.0,0.0,0.0,0.0,0.0,0.0,0.0,0.0,0.0,0.0,0.0,0.0,0.0,0.0,0.0,0.0,0.0,0.0,0.0,0.0,0.0,0.0,0.0,0.0,0.0,0.0,0.0,0.0,0.0,0.0,0.0,0.0,0.0,0.0,0.0,0.0,0.0,0.0,0.0,0.0,0.0,0.0,0.0,0.0,0.0,0.0,0.0,0.0,0.0,0.0,0.0,0.0,0.0,0.0,0.0,0.0,0.0,0.0,0.0,0.0,0.0,0.0,0.0,0.0,0.0,0.0,0.0,0.0,0.0,0.0,0.0,0.0,0.0,0.0,0.0,0.0,0.0,0.0,0.0,0.0,0.0,0.0,0.0,0.0,0.0,0.0,0.0,0.0,0.0,0.0,0.0,0.0,0.0,0.0,0.0,0.0,0.0,0.0,0.0,0.0,0.0,0.0,0.0,0.0,-2.5005,-2.5005,-2.5005,-2.5005,-2.5005,-2.5005,0.0,0.0,0.0,0.0,0.0,0.0,0.0,0.0,0.0,0.0,0.0,0.0,0.0,0.0,0.0,0.0,0.0,0.0,0.0,0.0,0.0,0.0,0.0,0.0,0.0,0.0,0.0,0.0,0.0,0.0,0.0,0.0,0.0,0.0,0.0,0.0,0.0,0.0,0.0,0.0,0.0,0.0,0.0,0.0,0.0,0.0,0.0,0.0,0.0,0.0,0.0,0.0,0.0,0.0,0.0,0.0,0.0,0.0,0.0,0.0,0.0,0.0,0.0,0.0,0.0,0.0,0.0,0.0,0.0,0.0,0.0,0.0,0.0,0.0,0.0,0.0,0.0,0.0,0.0,0.0,0.0,0.0,0.0,0.0,0.0,0.0,0.0,0.0,0.0,0.0,0.0,0.0,0.0,0.0,0.0,0.0,0.0,0.0,0.0,0.0,0.0,0.0,0.0,0.0,0.0,0.0,0.0,0.0,-2.492,-2.5005,-2.5005,-2.5005,-2.5005,-2.5005,-2.5005,0.0,0.0,0.0,0.0,0.0,0.0,0.0,0.0,0.0,0.0,0.0,0.0,0.0,0.0,0.0,0.0,0.0,0.0,0.0,0.0,0.0,0.0,0.0,0.0,0.0,0.0,0.0,0.0,0.0,0.0,0.0,0.0,0.0,0.0,0.0,0.0,0.0,0.0,0.0,0.0,0.0,0.0,0.0,0.0,0.0,0.0,0.0,0.0,0.0,0.0,0.0,0.0,0.0,0.0,0.0,0.0,0.0,0.0,0.0,0.0,0.0,0.0,0.0,0.0,0.0,0.0,0.0,0.0,0.0,0.0,0.0,0.0,0.0,0.0,0.0,0.0,0.0,0.0,0.0,0.0,0.0,0.0,0.0,0.0,0.0,0.0,0.0,0.0,0.0,0.0,0.0,0.0,0.0,0.0,0.0,0.0,0.0,0.0,0.0,0.0,0.0,0.0,0.0,0.0,0.0,0.0,0.0,0.0,-2.4863,-2.4977,-2.5005,-2.5005,-2.5005,-2.5005,-2.5005,0.0,0.0,0.0,0.0,0.0,0.0,0.0,0.0,0.0,0.0,0.0,0.0,0.0,0.0,0.0,0.0,0.0,0.0,0.0,0.0,0.0,0.0,0.0,0.0,0.0,0.0,0.0,0.0,0.0,0.0,0.0,0.0,0.0,0.0,0.0,0.0,0.0,0.0,0.0,0.0,0.0,0.0,0.0,0.0,0.0,0.0,0.0,0.0,0.0,0.0,0.0,0.0,0.0,0.0,0.0,0.0,0.0,0.0,0.0,0.0,0.0,0.0,0.0,0.0,0.0,0.0,0.0,0.0,0.0,0.0,0.0,0.0,0.0,0.0,0.0,0.0,0.0,0.0,0.0,0.0,0.0,0.0,0.0,0.0,0.0,0.0,0.0,0.0,0.0,0.0,0.0,0.0,0.0,0.0,0.0,0.0,0.0,0.0,0.0,0.0,0.0,0.0,0.0,0.0,0.0,0.0,0.0,0.0,-2.482,-2.4835,-2.4948,-2.5005,-2.5005,-2.5005,-2.5005,0.0,0.0,0.0,0.0,0.0,0.0,0.0,0.0,0.0,0.0,0.0,0.0,0.0,0.0,0.0,0.0,0.0,0.0,0.0,0.0,0.0,0.0,0.0,0.0,0.0,0.0,0.0,0.0,0.0,0.0,0.0,0.0,0.0,0.0,0.0,0.0,0.0,0.0,0.0,0.0,0.0,0.0,0.0,0.0,0.0,0.0,0.0,0.0,-1.6431,0.0,0.0,0.0,0.0,0.0,0.0,0.0,0.0,0.0,0.0,0.0,0.0,0.0,0.0,0.0,0.0,0.0,0.0,0.0,0.0,0.0,0.0,0.0,0.0,0.0,0.0,0.0,0.0,0.0,0.0,0.0,0.0,0.0,0.0,0.0,0.0,0.0,0.0,0.0,0.0,0.0,0.0,0.0,0.0,0.0,0.0,0.0,0.0,0.0,0.0,0.0,0.0,0.0,0.0,0.0,0.0,0.0,0.0,0.0,-2.4721,-2.4806,-2.4907,-2.4892,-2.4679,-2.4878,-2.5005,0.0,0.0,0.0,0.0,0.0,0.0,0.0,0.0,0.0,0.0,0.0,0.0,0.0,0.0,0.0,0.0,0.0,0.0,0.0,0.0,0.0,0.0,0.0,0.0,0.0,0.0,0.0,0.0,0.0,0.0,0.0,0.0,0.0,0.0,0.0,0.0,0.0,0.0,0.0,0.0,0.0,0.0,0.0,0.0,0.0,0.0,0.0,0.0,0.0,0.0,0.0,0.0,0.0,0.0,0.0,0.0,0.0,0.0,0.0,0.0,0.0,0.0,0.0,0.0,0.0,0.0,0.0,0.0,0.0,0.0,0.0,0.0,0.0,0.0,0.0,0.0,0.0,0.0,0.0,0.0,0.0,0.0,0.0,0.0,0.0,0.0,0.0,0.0,0.0,0.0,0.0,0.0,0.0,0.0,0.0,0.0,0.0,0.0,0.0,0.0,0.0,0.0,0.0,0.0,0.0,0.0,0.0,-2.4392,-2.4607,-2.4721,-2.4892,-2.4765,-2.4379,-2.4793,-2.5005,-2.4977,0.0,0.0,0.0,0.0,0.0,0.0,0.0,0.0,0.0,0.0,0.0,0.0,0.0,0.0,0.0,0.0,0.0,0.0,0.0,0.0,0.0,0.0,0.0,0.0,0.0,0.0,0.0,0.0,0.0,0.0,0.0,0.0,0.0,0.0,0.0,0.0,0.0,0.0,-1.6599,-1.6488,0.0,0.0,0.0,0.0,0.0,0.0,0.0,0.0,-1.6402,0.0,0.0,0.0,0.0,0.0,0.0,0.0,0.0,0.0,0.0,0.0,0.0,0.0,0.0,0.0,0.0,0.0,0.0,0.0,0.0,0.0,0.0,0.0,0.0,0.0,0.0,0.0,0.0,0.0,0.0,0.0,0.0,0.0,0.0,0.0,0.0,0.0,0.0,0.0,0.0,0.0,0.0,0.0,0.0,0.0,0.0,0.0,0.0,0.0,0.0,0.0,0.0,0.0,0.0,0.0,0.0,-2.3297,-2.3989,-2.435,-2.4379,-2.4692,-2.4806,-2.4721,-2.4892,-2.4948,-2.4835,0.0,0.0,0.0,0.0,0.0,0.0,0.0,0.0,0.0,0.0,0.0,0.0,0.0,0.0,0.0,0.0,0.0,0.0,0.0,0.0,0.0,0.0,0.0,0.0,0.0,0.0,0.0,0.0,0.0,0.0,0.0,0.0,0.0,0.0,0.0,0.0,0.0,0.0,0.0,-1.6402,-1.6402,0.0,0.0,0.0,0.0,0.0,0.0,0.0,0.0,-1.6402,0.0,0.0,0.0,0.0,0.0,0.0,0.0,0.0,0.0,0.0,0.0,0.0,0.0,0.0,0.0,0.0,0.0,0.0,0.0,0.0,0.0,0.0,0.0,0.0,0.0,0.0,0.0,0.0,0.0,0.0,0.0,0.0,0.0,0.0,0.0,0.0,0.0,0.0,0.0,0.0,0.0,0.0,0.0,0.0,0.0,0.0,0.0,0.0,0.0,0.0,0.0,0.0,0.0,0.0,0.0,-2.3662,-2.416,-2.4392,-2.4321,-2.4565,-2.4607,-2.445,-2.4721,-2.4692,0.0,0.0,0.0,0.0,0.0,0.0,0.0,0.0,0.0,0.0,0.0,0.0,0.0,0.0,0.0,0.0,0.0,0.0,0.0,0.0,0.0,0.0,0.0,0.0,0.0,0.0,0.0,0.0,0.0,0.0,0.0,0.0,0.0,0.0,0.0,0.0,0.0,0.0,0.0,0.0,-1.6696,-1.6808,-1.7046,0.0,0.0,0.0,0.0,0.0,0.0,-1.7088,-1.7077,0.0,0.0,0.0,0.0,0.0,0.0,0.0,0.0,0.0,0.0,0.0,0.0,0.0,0.0,0.0,0.0,0.0,0.0,0.0,0.0,0.0,0.0,0.0,0.0,0.0,0.0,0.0,0.0,0.0,0.0,0.0,0.0,0.0,0.0,0.0,0.0,0.0,0.0,0.0,0.0,0.0,0.0,0.0,0.0,0.0,0.0,0.0,0.0,0.0,0.0,0.0,0.0,0.0,0.0,0.0,-2.4112,-2.4374,-2.4434,-2.4276,-2.445,-2.4434,-2.416,-2.4565,-2.452,0.0,0.0,0.0,0.0,0.0,0.0,0.0,0.0,0.0,0.0,0.0,0.0,0.0,0.0,0.0,0.0,0.0,0.0,0.0,0.0,0.0,0.0,0.0,0.0,0.0,0.0,0.0,0.0,0.0,0.0,0.0,0.0,0.0,0.0,0.0,0.0,0.0,0.0,0.0,0.0,0.0,-1.7296,-1.7647,-1.7709,0.0,0.0,0.0,0.0,-1.7709,-1.7709,0.0,0.0,0.0,0.0,0.0,0.0,0.0,0.0,0.0,0.0,0.0,0.0,0.0,0.0,0.0,0.0,0.0,0.0,0.0,0.0,0.0,0.0,0.0,0.0,0.0,0.0,0.0,0.0,0.0,0.0,0.0,0.0,0.0,0.0,0.0,0.0,0.0,0.0,0.0,0.0,0.0,0.0,0.0,0.0,0.0,0.0,0.0,0.0,0.0,0.0,0.0,0.0,0.0,0.0,0.0,0.0,-2.4125,-2.4141,-2.4128,-2.4141,-2.4261,-2.4321,-2.4263,-2.4622,-2.4635,0.0,0.0,0.0,0.0,0.0,0.0,0.0,0.0,0.0,0.0,0.0,0.0,0.0,0.0,0.0,0.0,0.0,0.0,0.0,0.0,0.0,0.0,0.0,0.0,0.0,0.0,0.0,0.0,0.0,0.0,0.0,0.0,0.0,0.0,0.0,0.0,0.0,0.0,0.0,0.0,0.0,-1.7637,-1.7699,-1.7709,-1.7709,0.0,0.0,-1.7709,-1.7709,-1.7709,0.0,0.0,0.0,0.0,0.0,0.0,0.0,0.0,0.0,0.0,0.0,0.0,0.0,0.0,0.0,0.0,0.0,0.0,0.0,0.0,0.0,0.0,0.0,0.0,0.0,0.0,0.0,0.0,0.0,0.0,0.0,0.0,0.0,0.0,0.0,0.0,0.0,0.0,0.0,0.0,0.0,0.0,0.0,0.0,0.0,0.0,0.0,0.0,0.0,0.0,0.0,0.0,0.0,0.0,0.0,-2.4187,-2.4125,-2.4173,-2.4173,-2.4112,-2.4157,-2.4232,-2.4279,-2.4436,-2.445,0.0,0.0,0.0,0.0,0.0,0.0,0.0,0.0,0.0,0.0,0.0,0.0,0.0,0.0,0.0,0.0,0.0,0.0,0.0,0.0,0.0,0.0,0.0,0.0,0.0,0.0,0.0,0.0,0.0,0.0,0.0,0.0,0.0,0.0,0.0,0.0,0.0,0.0,0.0,0.0,0.0,0.0,-1.8454,-1.8485,0.0,0.0,0.0,-1.8495,-1.8495,0.0,0.0,0.0,0.0,0.0,0.0,0.0,0.0,0.0,0.0,0.0,0.0,0.0,0.0,0.0,0.0,0.0,0.0,0.0,0.0,0.0,0.0,0.0,0.0,0.0,0.0,0.0,0.0,0.0,0.0,0.0,0.0,0.0,0.0,0.0,0.0,0.0,0.0,0.0,0.0,0.0,0.0,0.0,0.0,0.0,0.0,0.0,0.0,0.0,0.0,0.0,0.0,0.0,0.0,0.0,0.0,0.0,-2.4125,-2.4203,-2.4232,-2.4157,-2.4112,-2.4157,-2.4292,-2.435,0.0,0.0,0.0,0.0,0.0,0.0,0.0,0.0,0.0,0.0,0.0,0.0,0.0,0.0,0.0,0.0,0.0,0.0,0.0,0.0,0.0,0.0,0.0,0.0,0.0,0.0,0.0,-1.832,0.0,0.0,0.0,0.0,0.0,0.0,0.0,0.0,0.0,0.0,0.0,0.0,0.0,0.0,-1.8714,-1.9056,-1.9098,-1.9098,0.0,0.0,-1.9098,-1.9098,-1.9098,-1.9098,0.0,0.0,0.0,0.0,0.0,0.0,0.0,0.0,0.0,0.0,0.0,0.0,0.0,0.0,0.0,0.0,0.0,0.0,0.0,0.0,0.0,0.0,0.0,0.0,0.0,0.0,0.0,0.0,0.0,0.0,0.0,0.0,0.0,0.0,0.0,0.0,0.0,0.0,0.0,0.0,0.0,0.0,0.0,0.0,0.0,0.0,0.0,0.0,0.0,0.0,0.0,0.0,0.0,0.0,0.0,-2.4125,-2.4112,-2.4157,-2.4263,-2.4157,-2.4157,-2.4292,-2.4478,-2.4447,0.0,0.0,0.0,0.0,0.0,0.0,0.0,0.0,0.0,0.0,0.0,0.0,0.0,0.0,0.0,0.0,0.0,0.0,0.0,0.0,0.0,0.0,0.0,0.0,0.0,0.0,0.0,0.0,0.0,0.0,0.0,0.0,0.0,0.0,0.0,0.0,0.0,0.0,0.0,0.0,0.0,-1.9056,-1.9098,-1.9098,-1.9098,0.0,0.0,-1.9098,-1.9098,-1.9098,-1.9098,-1.9098,0.0,0.0,0.0,0.0,0.0,0.0,0.0,0.0,0.0,0.0,0.0,0.0,0.0,0.0,0.0,0.0,0.0,0.0,0.0,0.0,0.0,0.0,0.0,0.0,0.0,0.0,0.0,0.0,0.0,0.0,0.0,0.0,0.0,0.0,0.0,0.0,0.0,0.0,0.0,0.0,0.0,0.0,0.0,0.0,0.0,0.0,0.0,0.0,0.0,0.0,0.0,0.0,0.0,-2.4125,-2.4125,-2.4125,-2.4128,-2.4187,-2.4141,-2.4157,-2.4279,-2.4303,-2.4274,0.0,0.0,0.0,0.0,0.0,0.0,0.0,0.0,0.0,0.0,0.0,0.0,0.0,0.0,0.0,0.0,0.0,0.0,0.0,0.0,0.0,0.0,0.0,0.0,0.0,0.0,0.0,0.0,-1.9156,-1.9201,-1.8891,0.0,0.0,0.0,0.0,0.0,0.0,0.0,0.0,0.0,0.0,-1.9098,-1.9098,-1.9098,0.0,0.0,-1.9098,-1.9098,-1.9098,-1.9098,-1.9098,-1.9098,-1.9098,0.0,0.0,0.0,0.0,0.0,0.0,0.0,0.0,0.0,0.0,0.0,0.0,0.0,0.0,0.0,0.0,0.0,0.0,0.0,0.0,0.0,0.0,0.0,0.0,0.0,0.0,0.0,0.0,0.0,0.0,0.0,0.0,0.0,0.0,0.0,0.0,0.0,0.0,0.0,0.0,0.0,0.0,0.0,0.0,0.0,0.0,0.0,0.0,0.0,0.0,0.0,0.0,-2.4174,-2.436,-2.4374,-2.439,-2.4419,-2.4403,-2.4449,-2.4556,-2.4294,-2.4203,0.0,0.0,0.0,0.0,0.0,0.0,0.0,0.0,0.0,0.0,0.0,0.0,0.0,0.0,0.0,0.0,0.0,0.0,0.0,0.0,0.0,0.0,0.0,0.0,0.0,0.0,0.0,0.0,-1.9587,-1.9572,-1.9274,0.0,0.0,0.0,0.0,0.0,0.0,0.0,0.0,0.0,0.0,-1.9098,-1.9098,-1.9098,-1.9098,-1.9098,-1.9098,-1.9098,-1.9098,-1.9098,-1.9098,-1.9098,0.0,0.0,0.0,0.0,0.0,0.0,0.0,0.0,0.0,0.0,0.0,0.0,0.0,0.0,0.0,0.0,0.0,0.0,0.0,0.0,0.0,0.0,0.0,0.0,0.0,0.0,0.0,0.0,0.0,0.0,-2.5005,0.0,0.0,0.0,0.0,0.0,0.0,0.0,0.0,0.0,0.0,0.0,0.0,0.0,0.0,0.0,0.0,0.0,0.0,0.0,0.0,0.0,0.0,-2.4413,-2.4966,-2.4992,-2.5039,-2.5159,-2.5039,-2.5039,-2.5163,-2.4609,-2.4305,-2.4279,0.0,0.0,0.0,0.0,0.0,0.0,0.0,0.0,0.0,0.0,0.0,0.0,0.0,0.0,0.0,0.0,0.0,0.0,0.0,0.0,0.0,0.0,0.0,0.0,0.0,0.0,-1.9879,-1.9528,-1.9285,0.0,0.0,0.0,0.0,0.0,0.0,0.0,0.0,0.0,0.0,-1.9098,-1.9098,-1.9098,-1.9098,-1.9098,-1.9098,-1.9098,-1.9098,-1.9098,-1.9098,-1.9098,0.0,0.0,0.0,0.0,0.0,0.0,0.0,0.0,0.0,0.0,0.0,0.0,0.0,0.0,0.0,0.0,0.0,0.0,0.0,0.0,0.0,0.0,0.0,0.0,0.0,0.0,0.0,-2.5005,-2.5005,0.0,0.0,0.0,0.0,0.0,0.0,0.0,0.0,0.0,0.0,0.0,-2.4591,-2.4706,0.0,0.0,0.0,0.0,0.0,0.0,0.0,0.0,0.0,0.0,0.0,0.0,-2.5341,-2.5524,-2.5537,-2.5568,-2.5598,-2.5581,-2.5598,-2.5739,-2.5082,-2.4626,-2.4292,0.0,0.0,0.0,0.0,0.0,0.0,0.0,0.0,0.0,0.0,0.0,0.0,0.0,0.0,0.0,0.0,0.0,0.0,0.0,0.0,0.0,0.0,0.0,0.0,0.0,-1.9681,0.0,0.0,0.0,0.0,0.0,0.0,0.0,0.0,0.0,0.0,0.0,-1.9098,-1.9098,-1.9098,-1.9098,-1.9098,-1.9098,-1.9098,0.0,0.0,0.0,0.0,0.0,0.0,0.0,0.0,0.0,0.0,0.0,0.0,0.0,0.0,-1.8583,-1.8351,-1.8009,-1.7678,-1.7578,0.0,0.0,0.0,0.0,0.0,0.0,0.0,0.0,0.0,0.0,0.0,0.0,0.0,0.0,0.0,0.0,-2.5005,0.0,0.0,0.0,0.0,0.0,0.0,0.0,0.0,-2.526,-2.5324,-2.5381,-2.5468,-2.5468,0.0,-2.5608,-2.5505,0.0,0.0,0.0,0.0,0.0,0.0,0.0,0.0,-2.5897,-2.6099,-2.6125,-2.6125,-2.6125,-2.6125,-2.6143,-2.6225,-2.5656,-2.5109,-2.4577,-2.4518,-2.4308,0.0,0.0,0.0,0.0,0.0,0.0,0.0,0.0,0.0,0.0,0.0,0.0,0.0,0.0,0.0,0.0,0.0,0.0,0.0,0.0,0.0,0.0,0.0,-1.9605,0.0,0.0,0.0,0.0,0.0,0.0,0.0,0.0,0.0,-1.9098,-1.9098,-1.9098,-1.9098,-1.9098,-1.9098,-1.9098,0.0,0.0,0.0,0.0,0.0,0.0,0.0,-1.9098,-1.9098,-1.9098,-1.9098,-1.9098,-1.8975,-1.8875,-1.8808,0.0,0.0,-1.8438,-1.8236,-1.8076,-1.8008,-1.7793,-1.7598,-1.7598,-1.6992,-1.6307,0.0,0.0,0.0,0.0,0.0,0.0,0.0,0.0,-2.5331,-2.51,0.0,-2.5113,0.0,0.0,0.0,0.0,0.0,-2.5855,0.0,0.0,-2.5855,-2.624,-2.6752,-2.6766,-2.6779,-2.6793,-2.6474,-2.6426,-2.6593,-2.6453,0.0,0.0,0.0,0.0,0.0,0.0,-2.6151,-2.6706,-2.6732,-2.6732,-2.6732,-2.6732,-2.6719,-2.668,-2.6251,-2.5686,-2.5088,-2.5112,-2.485,-2.4178,-2.4138,0.0,0.0,0.0,0.0,0.0,0.0,0.0,0.0,0.0,0.0,0.0,0.0,0.0,0.0,0.0,0.0,0.0,0.0,0.0,0.0,-1.9868,0.0,0.0,0.0,0.0,0.0,0.0,0.0,0.0,0.0,0.0,-1.9098,-1.9098,-1.9098,-1.9098,0.0,0.0,0.0,0.0,-1.9098,-1.9098,-1.9098,-1.9098,-1.9098,-1.9098,-1.9098,-1.9098,0.0,0.0,-1.9098,-1.8774,-1.8583,-1.8751,-1.8381,-1.8076,-1.8245,-1.8303,-1.8212,-1.8042,-1.7988,-1.7998,-1.7998,-1.7838,-1.759,-2.7583,0.0,0.0,0.0,0.0,-2.6603,-2.6552,-2.6552,-2.6389,-2.6278,-2.6307,-2.6307,0.0,0.0,0.0,0.0,0.0,0.0,-2.6522,-2.6492,-2.6522,-2.6616,-2.6793,-2.6793,-2.6793,-2.6806,-2.712,-2.7323,-2.7426,-2.7787,-2.7493,-2.6694,0.0,0.0,0.0,0.0,-2.7184,-2.7446,-2.7341,-2.7255,-2.7275,-2.7275,-2.7079,-2.6719,-2.6581,-2.6259,-2.5726,-2.5275,-2.5017,-2.4863,-2.438,0.0,0.0,0.0,0.0,0.0,0.0,0.0,0.0,0.0,0.0,0.0,0.0,0.0,0.0,0.0,0.0,0.0,0.0,0.0,-1.9341,-1.9407,-1.9374,0.0,0.0,0.0,0.0,0.0,0.0,0.0,0.0,0.0,-1.9098,-1.9098,-1.9098,0.0,0.0,-1.9098,-1.9098,-1.9098,-1.9098,-1.9098,0.0,0.0,0.0,-1.9098,-1.9098,-1.9098,-1.9098,-1.9098,-1.9098,-1.9008,-1.8841,-1.8607,-1.8482,-1.8313,-1.811,-1.8076,-1.8042,-1.8008,-1.8008,-1.8008,-1.7974,-1.7613,-1.7182,-2.8166,-2.7528,-2.7515,-2.7528,-2.7501,-2.724,-2.7131,-2.7149,-2.6888,-2.6793,-2.6793,-2.6793,-2.6915,-2.7189,-2.7389,0.0,0.0,0.0,-2.7145,-2.7145,-2.7176,-2.7267,-2.7528,-2.7515,-2.7528,-2.7542,-2.7805,-2.7981,-2.8071,-2.8282,-2.8088,-2.7501,0.0,0.0,-2.7822,-2.7689,-2.7656,-2.7689,-2.7556,-2.7503,-2.7503,-2.7503,-2.7333,-2.704,-2.7013,-2.6771,-2.6291,-2.59,-2.5494,-2.5139,-2.4708,-2.4347,0.0,0.0,0.0,0.0,0.0,0.0,0.0,0.0,0.0,0.0,0.0,-2.0388,0.0,0.0,0.0,0.0,-1.9681,-1.9341,-1.9175,-1.9252,0.0,0.0,0.0,0.0,0.0,0.0,0.0,-1.9098,-1.9098,-1.9098,-1.9098,-1.9098,-1.9098,-1.9098,-1.9098,-1.9098,-1.9098,0.0,-1.9098,-1.9098,-1.9098,-1.9098,-1.9098,-1.9098,-1.9098,-1.9098,-1.9098,-1.9098,-1.9098,-1.8975,-1.8774,-1.8549,-1.8381,-1.8245,-1.8052,-1.8008,-1.8008,-1.8008,-1.8008,-1.8008,-1.8008,-1.7647,-1.7329,-2.8768,-2.8736,-2.8682,-2.8627,-2.8532,-2.8017,-2.7773,-2.7732,-2.7159,-2.6928,-2.6928,-2.6959,-2.724,-2.78,-2.8356,0.0,-2.7773,-2.7773,-2.7786,-2.7786,-2.7786,-2.8058,-2.8573,-2.8587,-2.8587,-2.8587,-2.8398,-2.843,-2.8554,-2.8276,-2.8183,-2.832,-2.832,-2.8124,-2.7855,-2.7822,-2.7689,-2.7536,-2.7523,-2.7503,-2.7503,-2.7503,-2.7503,-2.749,-2.7503,-2.7242,-2.6798,-2.6719,-2.6222,-2.5201,-2.5044,-2.4726,-2.4129,0.0,0.0,0.0,0.0,0.0,0.0,0.0,0.0,0.0,0.0,0.0,0.0,0.0,0.0,0.0,-1.9704,0.0,-1.9308,-1.9274,0.0,0.0,0.0,-1.9098,-1.9098,-1.9098,-1.9098,-1.9098,0.0,0.0,-1.9098,0.0,-1.9098,-1.9098,-1.9098,-1.9098,-1.9098,-1.9098,-1.9098,-1.9098,-1.9098,-1.9098,-1.9098,-1.9098,-1.9098,-1.9098,-1.9098,-1.9098,-1.9065,-1.8808,-1.8539,-1.8482,-1.8245,-1.8008,-1.8008,-1.8008,-1.8008,-1.8008,-1.8008,-1.8008,-1.8008,-1.7974,-1.794,-2.9971,-2.993,-2.9469,-2.904,-2.8587,-2.8451,-2.837,-2.837,-2.8248,-2.8166,-2.8166,-2.8166,-2.8248,-2.8397,-2.8532,-2.8519,-2.8383,-2.8383,-2.837,-2.8383,-2.8383,-2.8465,-2.8587,-2.8587,-2.8587,-2.8587,-2.8554,-2.8554,-2.8587,-2.8522,-2.849,-2.8509,-2.8365,-2.8203,-2.8046,-2.7736,-2.7623,-2.7723,-2.759,-2.7503,-2.7503,-2.7503,-2.7503,-2.7503,-2.7503,-2.7438,-2.7327,-2.6909,-2.6575,-2.6287,-2.5463,-2.4715,-2.4042,-2.3417,0.0,0.0,0.0,0.0,0.0,0.0,0.0,0.0,0.0,-2.0129,-1.9966,0.0,-1.9583,0.0,-1.9572,-1.9308,-1.9175,-1.9142,0.0,0.0,-1.9098,-1.9098,-1.9098,-1.9098,-1.9098,-1.9098,-1.9098,-1.9098,-1.9098,-1.9098,-1.9098,-1.9098,-1.9098,-1.9098,-1.9098,-1.9098,-1.9098,-1.9098,-1.9098,-1.9098,-1.9098,-1.9098,-1.9098,-1.9098,-1.9098,-1.9065,-1.8898,-1.8808,-1.865,-1.8414,-1.8269,-1.8168,-1.8008,-1.8008,-1.8008,-1.8008,-1.8008,-1.8008,-1.8008,-1.8008,-1.8008,-3.0405,-3.0378,-3.0025,-2.9699,-2.9347,-2.8817,-2.8587,-2.8587,-2.8587,-2.8587,-2.8587,-2.8587,-2.8587,-2.8587,-2.8587,-2.8587,-2.8587,-2.8587,-2.8587,-2.86,-2.8872,-2.898,-2.9027,-2.9279,-2.9401,-2.9401,-2.9401,-2.9414,-2.9401,-2.9401,-2.9401,-2.9401,-2.8918,-2.8684,-2.8552,-2.7967,-2.7656,-2.7656,-2.7556,-2.7503,-2.7503,-2.7503,-2.7503,-2.7503,-2.7503,-2.7503,-2.7503,-2.721,-2.6935,-2.6719,-2.6091,-2.5361,-2.4474,-2.3548,-2.2615,0.0,0.0,0.0,0.0,0.0,0.0,0.0,0.0,0.0,0.0,0.0,-1.9473,0.0,-1.9407,-1.9241,-1.9098,-1.9098,-1.9098,-1.9098,-1.9098,-1.9098,-1.9098,-1.9098,-1.9098,-1.9098,-1.9098,-1.9098,-1.9098,-1.9098,-1.9098,-1.9098,-1.9098,-1.9098,-1.9098,-1.9098,-1.9098,-1.9098,-1.9098,-1.9098,-1.9098,-1.9098,-1.9098,-1.9098,-1.9098,-1.9075,-1.8931,-1.8774,-1.8617,-1.8405,-1.8269,-1.8144,-1.8052,-1.8008,-1.8008,-1.8008,-1.8008,-1.8008,-1.8008,-1.8008,-1.8008,-3.0717,-3.0635,-3.0554,-3.0527,-3.0432,-2.9306,-2.8817,-2.8831,-2.8817,-2.8831,-2.8817,-2.8831,-2.8831,-2.8831,-2.8817,-2.8831,-2.8817,-2.8817,-2.8817,-2.8858,-2.936,-2.9638,-2.9618,-3.0161,-3.0405,-3.0405,-3.0405,-3.0405,-3.0405,-3.0405,-3.0405,-3.0378,-2.9659,-2.9322,-2.9262,-2.8499,-2.7901,-2.7536,-2.7523,-2.7536,-2.7503,-2.7503,-2.7503,-2.7503,-2.7503,-2.7503,-2.7503,-2.7503,-2.7301,-2.6817,-2.6713,-2.6216,-2.5144,-2.3935,-2.2904,0.0,-2.1537,0.0,0.0,0.0,0.0,0.0,0.0,0.0,0.0,-1.9671,-1.944,-1.9142,-1.9208,-1.9241,-1.9098,-1.9098,-1.9098,-1.9098,-1.9098,-1.9098,-1.9098,-1.9098,-1.9098,-1.9098,-1.9098,-1.9098,-1.9098,-1.9098,-1.9098,-1.9098,-1.9098,-1.9098,-1.9098,-1.9098,-1.9098,-1.9098,-1.9098,-1.9098,-1.9098,-1.9098,-1.9098,-1.9098,-1.9098,-1.9098,-1.9008,-1.8741,-1.8482,-1.8414,-1.8178,-1.8008,-1.8008,-1.8008,-1.8008,-1.8008,-1.8008,-1.8008,-1.8008,-1.8008,-1.8008,-3.2314,-3.1802,-3.1327,-3.1124,-3.107,-3.0364,-3.0066,-3.0066,-3.0079,-3.0066,-3.0066,-3.0066,-3.0079,-3.0066,-3.0066,-3.0066,-3.0066,-3.0066,-3.0066,-3.0066,-3.0188,-3.0228,-3.0242,-3.0364,-3.0405,-3.0405,-3.0405,-3.0405,-3.0405,-3.0405,-3.0405,-3.0405,-3.0098,-2.9927,-2.9914,0.0,0.0,0.0,-2.7756,-2.7656,-2.749,-2.7503,-2.7503,-2.7503,-2.7503,0.0,-2.7503,-2.7503,-2.7451,-2.732,-2.6922,0.0,0.0,0.0,0.0,0.0,0.0,0.0,0.0,0.0,0.0,0.0,-1.9976,-1.9835,-1.9681,-1.9473,-1.9274,-1.9142,-1.9098,-1.9108,-1.9098,-1.9098,-1.9098,-1.9098,-1.9098,-1.9098,-1.9098,-1.9098,-1.9098,-1.9098,-1.9098,-1.9098,-1.9098,-1.9098,-1.9098,-1.9098,-1.9098,-1.9098,-1.9098,-1.9098,-1.9098,-1.9098,-1.9098,-1.9098,-1.9098,-1.9098,-1.9098,-1.9098,-1.9098,-1.8998,-1.8717,-1.8573,-1.8371,-1.8178,-1.8052,-1.8008,-1.8008,-1.8008,-1.8008,-1.8008,-1.8008,-1.8008,-1.8008,-1.8008,-1.8008,-3.3308,0.0,-3.2725,-3.2566,0.0,-3.2254,-3.2119,-3.2037,-3.0872,-3.0405,-3.0405,-3.0405,-3.0405,-3.0405,-3.0405,-3.0405,-3.0405,-3.0405,-3.0405,-3.0418,-3.0703,-3.0839,-3.0853,-3.1137,-3.1287,-3.1287,-3.1287,-3.1287,-3.1287,-3.1287,-3.1273,-3.1287,-3.0905,-3.0686,-3.0672,-3.0215,-2.9419,-2.8237,-2.8224,-2.7992,-2.7516,-2.7503,-2.7503,-2.7503,0.0,0.0,0.0,0.0,0.0,0.0,0.0,0.0,0.0,0.0,0.0,-2.3103,-2.273,-2.2119,-2.1158,-2.072,-2.0539,-2.0571,-2.0053,-1.9714,-1.9605,-1.9341,-1.9185,-1.9098,-1.9098,-1.9098,-1.9098,-1.9098,-1.9098,-1.9098,-1.9098,-1.9098,-1.9098,-1.9098,-1.9098,-1.9098,-1.9098,-1.9098,-1.9098,-1.9098,-1.9098,-1.9098,-1.9098,-1.9098,-1.9098,-1.9098,-1.9098,-1.9098,-1.9098,-1.9098,-1.9098,-1.9098,-1.9098,-1.9098,-1.9098,-1.9008,-1.8841,-1.8607,-1.8448,-1.8279,-1.811,-1.8008,-1.8008,-1.8008,-1.8008,-1.8008,-1.8008,-1.8008,-1.8008,-1.8008,-1.8008,-3.4016,-3.3908,-3.3908,-3.3908,-3.3908,-3.3908,-3.3908,-3.3772,0.0,0.0,0.0,-3.088,-3.0825,-3.073,-3.073,-3.073,-3.073,-3.0717,-3.073,-3.0744,-3.1232,-3.145,-3.1477,-3.1974,-3.2205,-3.2205,-3.2205,-3.2205,-3.2205,-3.2205,-3.2205,-3.2178,-3.1694,-3.145,-3.1422,-3.0794,-3.0025,-2.9154,-2.8918,-2.8439,-2.7673,-2.7646,-2.7594,-2.7503,-2.7503,-2.7503,-2.7503,-2.7503,-2.7503,-2.7503,-2.7503,-2.7314,-2.6857,-2.6224,-2.5413,-2.435,-2.3582,-2.2865,-2.2126,-2.1569,-2.1282,-2.127,-2.0366,-1.9769,-1.9605,-1.9308,-1.9098,-1.9098,-1.9098,-1.9098,-1.9098,-1.9098,-1.9098,-1.9098,-1.9098,-1.9098,-1.9098,-1.9098,-1.9098,-1.9098,-1.9098,-1.9098,-1.9098,-1.9098,-1.9098,-1.9098,-1.9098,-1.9098,-1.9098,-1.9098,-1.9098,-1.9098,-1.9098,-1.9098,-1.9098,-1.9098,-1.9098,-1.9098,-1.9098,-1.9065,-1.9008,-1.8774,-1.8539,-1.8438,-1.8212,-1.8076,-1.8008,-1.8008,-1.8008,-1.8008,-1.8008,-1.8008,-1.8008,-1.8008,-1.8008,-3.4382,-3.3908,-3.3908,-3.3908,-3.3908,-3.3908,-3.3908,-3.388,-3.3542,-3.3173,-3.2735,-3.2721,-3.2449,-3.196,-3.1938,-3.1924,-3.1938,-3.1974,-3.1974,0.0,-3.2042,-3.2083,-3.2096,-3.2178,-3.2205,-3.2205,-3.2218,-3.2205,-3.2205,-3.2218,-3.2205,-3.2205,-3.2137,-3.2083,-3.2083,-3.1965,-3.1505,-3.0685,-2.9817,-2.9044,-2.8315,-2.8255,-2.802,-2.7529,-2.7503,-2.7503,-2.7503,-2.7503,-2.7503,-2.7503,-2.7503,-2.7451,-2.7372,-2.6837,-2.6226,-2.5499,-2.4469,-2.3327,-2.2145,-2.1946,-2.1947,-2.1916,-2.1198,-2.0421,-1.9681,-1.9308,-1.9098,-1.9098,-1.9098,-1.9098,-1.9098,-1.9098,-1.9098,-1.9098,-1.9098,-1.9098,-1.9098,-1.9098,-1.9098,-1.9098,-1.9098,-1.9098,-1.9098,-1.9098,-1.9098,-1.9098,-1.9098,-1.9098,-1.9098,-1.9098,-1.9098,-1.9098,-1.9098,-1.9098,-1.9098,-1.9098,-1.9098,-1.9098,-1.9098,-1.9042,-1.8908,-1.8808,-1.865,-1.8405,-1.8279,-1.8212,-1.8042,-1.8008,-1.8008,-1.8008,-1.8008,-1.8008,-1.8008,-1.8008,-1.8008,-3.5114,-3.487,-3.487,-3.4856,-3.487,-3.487,-3.487,-3.487,-3.487,-3.4394,-3.358,-3.3552,-3.3352,-3.3145,-3.3132,-3.3132,-3.3132,-3.3132,-3.3094,-3.3145,-3.3145,-3.3132,-3.3145,-3.3132,-3.3094,-3.3145,-3.3132,-3.3132,-3.3118,-3.2857,-3.2694,-3.2667,-3.2381,-3.2205,-3.2169,-3.2073,-3.1852,-3.146,-3.0597,-2.9799,-2.9078,-2.8625,-2.8255,-2.7994,-2.7659,-2.7503,-2.7503,-2.7503,-2.7503,-2.7503,-2.7503,-2.7503,-2.749,-2.7275,-2.6856,-2.6284,-2.5762,-2.4919,-2.3704,-2.2682,-2.1928,-2.1585,-2.104,-2.0571,-2.0194,-1.9561,-1.9175,-1.9098,-1.9098,-1.9098,-1.9098,-1.9098,-1.9098,-1.9098,-1.9098,-1.9098,-1.9098,-1.9098,-1.9098,-1.9098,-1.9098,-1.9098,-1.9098,-1.9098,-1.9098,-1.9098,-1.9098,-1.9098,-1.9098,-1.9098,-1.9098,-1.9098,-1.9098,-1.9098,-1.9098,-1.9098,-1.9098,-1.9098,-1.9098,-1.9075,-1.8965,-1.8908,-1.8707,-1.8472,-1.8371,-1.8202,-1.8042,-1.8008,-1.8008,-1.8008,-1.8008,-1.8008,-1.8008,-1.8008,-1.8008,-3.5913,-3.5913,-3.5764,-3.571,-3.571,-3.571,-3.571,-3.571,-3.5696,-3.5154,-3.4368,-3.4179,-3.4043,-3.3908,-3.3908,-3.3908,-3.3908,-3.3908,-3.3908,-3.3908,-3.3908,-3.3908,-3.3908,-3.3908,-3.3908,-3.3908,-3.3908,-3.3908,-3.3853,-3.3471,-3.3224,-3.3074,-3.2653,-3.2341,-3.2218,-3.2036,-3.1963,-3.1936,-3.1311,-3.0574,-2.979,-2.9118,-2.876,-2.859,-2.802,-2.7686,-2.7719,-2.7555,-2.7503,-2.7503,-2.7503,-2.7503,-2.7503,-2.7503,-2.7294,-2.6922,-2.6771,-2.6209,-2.5049,-2.3466,-2.2234,-2.1596,-2.1282,-2.0976,-2.0592,-2.0118,-1.9627,-1.9353,-1.9208,-1.9098,-1.9098,-1.9098,-1.9098,-1.9098,-1.9098,-1.9098,-1.9098,-1.9098,-1.9098,-1.9098,-1.9098,-1.9098,-1.9098,-1.9098,-1.9098,-1.9098,-1.9098,-1.9098,-1.9098,-1.9098,-1.9098,-1.9098,-1.9098,-1.9098,-1.9098,-1.9098,-1.9098,-1.9098,-1.9098,-1.9098,-1.9065,-1.8975,-1.8808,-1.8607,-1.8438,-1.8303,-1.81,-1.8008,-1.8008,-1.8008,-1.8008,-1.8008,-1.8008,-1.8008,-1.8008,-3.6524,-3.6429,-3.5981,-3.571,-3.5737,-3.5737,-3.5737,-3.571,-3.571,-3.5669,-3.5412,-3.4951,-3.4423,-3.3948,-3.3948,-3.3975,-3.3962,-3.3921,-3.3948,-3.3962,-3.3908,-3.3908,-3.3975,-3.3948,-3.3908,-3.3948,-3.3975,-3.4016,-3.4016,-3.388,-3.3607,-3.3169,-3.3033,-3.2735,-3.23,-3.2182,-3.2182,-3.2182,-3.1909,-3.1332,-3.0362,-3.0066,-2.9732,-2.9196,-2.8643,-2.8307,-2.8255,-2.7764,-2.7503,-2.7503,-2.7503,-2.7503,-2.7503,-2.7503,-2.7477,-2.7398,-2.6948,-2.6209,-2.5088,-2.4287,-2.356,-2.2969,-2.2757,-2.2099,-2.088,-2.1019,-2.0848,-2.0139,-1.9462,-1.9231,-1.9098,-1.9142,-1.9142,-1.9098,-1.9098,-1.9098,-1.9098,-1.9098,-1.9098,-1.9098,-1.9098,-1.9098,-1.9098,-1.9098,-1.9098,-1.9098,-1.9098,-1.9098,-1.9098,-1.9098,-1.9098,-1.9098,-1.9098,-1.9098,-1.9098,-1.9098,-1.9098,-1.9098,-1.9098,-1.9098,-1.9098,-1.9065,-1.9008,-1.8741,-1.8573,-1.8414,-1.8279,-1.8144,-1.8008,-1.8008,-1.8008,-1.8008,-1.8008,-1.8008,-1.8008,-3.7106,-3.7092,-3.6848,-3.6578,-3.6266,-3.6239,-3.6035,-3.5723,-3.571,-3.571,-3.5683,-3.5452,-3.5181,-3.4951,-3.4965,-3.4951,-3.4951,-3.4965,-3.4951,-3.4991,-3.4951,-3.4991,-3.4951,-3.4951,-3.4951,-3.4951,-3.4965,-3.4965,-3.4897,-3.4612,-3.4124,-3.3593,-3.3292,-3.2979,-3.2707,-3.2395,-3.2205,-3.2205,-3.2,-3.1696,-3.1259,-3.0636,-3.0151,-2.9902,-2.928,-2.8773,-2.8399,-2.815,-2.7876,-2.7529,-2.7503,-2.7503,-2.7503,-2.7503,-2.7503,-2.7464,-2.6987,-2.651,-2.6039,-2.5052,-2.4368,-2.4117,-2.3998,-2.3294,-2.1926,-2.2202,-2.1989,-2.0882,-2.0452,-2.0128,-1.9791,-1.9671,-1.9551,-1.9198,-1.9098,-1.9108,-1.9098,-1.9108,-1.9098,-1.9098,-1.9098,-1.9108,-1.9098,-1.9098,-1.9098,-1.9098,-1.9108,-1.915,-1.9119,-1.9098,-1.9098,-1.9098,-1.9098,-1.9098,-1.9098,-1.9098,-1.9098,-1.9098,-1.9098,-1.9098,-1.9098,-1.9098,-1.9042,-1.8852,-1.865,-1.8482,-1.8313,-1.8144,-1.8008,-1.8008,-1.8008,-1.8008,-1.8008,-1.8008,-1.8008,-3.7729,-3.7702,-3.7567,-3.7228,-3.6863,-3.6849,-3.6605,-3.6239,-3.6171,-3.6212,-3.6157,-3.6035,-3.5954,-3.594,-3.5791,-3.571,-3.571,-3.571,-3.571,-3.571,-3.571,-3.571,-3.571,-3.571,-3.571,-3.571,-3.5683,-3.5696,-3.5669,-3.5263,-3.4734,-3.4165,-3.3756,-3.3414,-3.3088,-3.2653,-3.2381,-3.2196,-3.2073,-3.2,-3.1859,-3.1183,-3.0689,-3.0599,-2.9918,-2.9301,-2.8882,-2.8556,-2.819,-2.7751,-2.7581,-2.7503,-2.7503,-2.7503,-2.7503,-2.7464,-2.7144,-2.6863,-2.6732,-2.5826,-2.5185,-2.4854,-2.4834,-2.4241,-2.3187,-2.3349,-2.3127,-2.2092,-2.1987,-2.1795,-2.075,-2.0576,-2.0424,-2.0124,-1.9967,-1.9809,-1.983,-1.964,-1.9502,-1.9448,-1.953,-1.9471,-1.9448,-1.9513,-1.9544,-1.9533,-1.9513,-1.9437,-1.9437,-1.9502,-1.9502,-1.9437,-1.9399,-1.9243,-1.9139,-1.9098,-1.9098,-1.9098,-1.9098,-1.9098,-1.9098,-1.9098,-1.9098,-1.8942,-1.8717,-1.8549,-1.8414,-1.8245,-1.8042,-1.8008,-1.8008,-1.8008,-1.8008,-1.8008,-1.8008,-3.8369,-3.8301,-3.7729,-3.7512,-3.7458,-3.7445,-3.7418,-3.7296,-3.735,-3.7377,-3.7255,-3.6809,-3.6564,-3.6483,-3.5995,-3.5723,-3.571,-3.571,-3.571,-3.571,-3.571,-3.571,-3.571,-3.571,-3.571,-3.571,-3.571,-3.571,-3.571,-3.5629,-3.5344,-3.4775,-3.4653,-3.4149,-3.3332,-3.3088,-3.2775,-3.2341,-3.2196,-3.2182,-3.2109,-3.1753,-3.1405,-3.1177,-3.0459,-3.0022,-2.9852,-2.8974,-2.8407,-2.8368,-2.7837,-2.7516,-2.7503,-2.7503,-2.7503,-2.749,-2.7464,-2.7236,-2.6837,-2.6628,-2.6123,-2.5198,-2.5403,-2.4956,-2.3643,-2.4332,-2.4457,-2.367,-2.3977,-2.3644,-2.2267,-2.1901,-2.1984,-2.2285,-2.182,-2.1465,-2.1417,-2.074,-2.0373,-2.0332,-2.028,-2.0203,-2.025,-2.0369,-2.0265,-2.022,-2.0307,-2.0276,-2.0213,-2.023,-2.022,-2.0182,-1.9944,-1.9616,-1.9233,-1.9098,-1.9098,-1.9098,-1.9098,-1.9098,-1.9098,-1.9098,-1.9065,-1.9042,-1.8875,-1.8674,-1.8549,-1.8371,-1.8168,-1.8066,-1.8008,-1.8008,-1.8008,-1.8008,-1.8008,-3.8979,-3.8966,-3.8749,-3.8464,-3.8055,-3.8055,-3.7894,-3.7512,-3.7499,-3.7499,-3.7458,-3.7255,-3.6971,-3.6592,-3.6375,-3.6076,-3.5737,-3.571,-3.571,-3.571,-3.571,-3.571,-3.571,-3.571,-3.571,-3.571,-3.571,-3.571,-3.571,-3.571,-3.5574,-3.5331,-3.4965,-3.4545,-3.4136,-3.343,-3.2979,-3.2762,-3.2436,-3.2146,-3.2,-3.1743,-3.1508,-3.1296,-3.0902,-3.0503,-3.0113,-2.9683,-2.9157,-2.8459,-2.8177,-2.7902,-2.7542,-2.7503,-2.7503,-2.7503,-2.7503,-2.7432,-2.7262,-2.7223,-2.7032,-2.6627,-2.6713,-2.6133,-2.5029,-2.5264,-2.525,-2.4263,-2.4418,-2.4459,-2.4287,-2.3583,-2.3022,-2.2807,-2.2559,-2.2389,-2.2218,-2.1666,-2.1153,-2.1083,-2.074,-2.0374,-2.0472,-2.0385,-2.0374,-2.0374,-2.0385,-2.0416,-2.0395,-2.0385,-2.0436,-2.0374,-2.0296,-2.0131,-2.0006,-1.9385,-1.9108,-1.9098,-1.9098,-1.9098,-1.9098,-1.9098,-1.9098,-1.9075,-1.8942,-1.8741,-1.8573,-1.8279,-1.8144,-1.8076,-1.8008,-1.8008,-1.8008,-1.8008,-1.8008,-3.9305,-3.9305,-3.9305,-3.9061,-3.8722,-3.8708,-3.8477,-3.8111,-3.8055,-3.8068,-3.807,-3.7865,-3.7473,-3.6931,-3.67,-3.628,-3.575,-3.571,-3.571,-3.571,-3.571,-3.571,-3.571,-3.571,-3.571,-3.571,-3.571,-3.571,-3.571,-3.571,-3.571,-3.5669,-3.5249,-3.5004,-3.4653,-3.3851,-3.3319,-3.3047,-3.2517,-3.2109,-3.189,-3.1706,-3.1522,-3.131,-3.1099,-3.0817,-3.0424,-3.0192,-2.9761,-2.9039,-2.8595,-2.8124,-2.7568,-2.7503,-2.7503,-2.7503,-2.7503,-2.7503,-2.7503,-2.7503,-2.749,-2.749,-2.749,-2.6961,-2.5933,-2.6189,-2.5786,-2.5078,-2.5037,-2.5536,-2.5645,-2.5135,-2.4499,-2.4048,-2.3776,-2.3593,-2.357,-2.2924,-2.2384,-2.2062,-2.1653,-2.1224,-2.0912,-2.0886,-2.0897,-2.0876,-2.0866,-2.0839,-2.0829,-2.0876,-2.0876,-2.0855,-2.0762,-2.0669,-2.0514,-2.0058,-1.9564,-1.9482,-1.9181,-1.9139,-1.9098,-1.9098,-1.9098,-1.9065,-1.8975,-1.8774,-1.8506,-1.8212,-1.8076,-1.8008,-1.8008,-1.8008,-1.8008,-1.8008,-1.8008,-3.9305,-3.9305,-3.9305,-3.9292,-3.9224,-3.9224,-3.9264,-3.9183,-3.9197,-3.9115,-3.9007,-3.864,-3.8055,-3.7458,-3.6958,-3.6334,-3.5873,-3.575,-3.571,-3.571,-3.571,-3.571,-3.571,-3.571,-3.571,-3.571,-3.571,-3.571,-3.571,-3.571,-3.571,-3.571,-3.5669,-3.5344,-3.4829,-3.4192,-3.3582,-3.3118,-3.2535,-3.2086,-3.189,-3.1669,-3.1485,-3.1272,-3.1099,-3.0998,-3.0934,-3.0427,-3.0113,-2.9905,-2.9052,-2.8164,-2.7706,-2.7529,-2.7503,-2.7503,-2.7503,-2.7503,-2.7503,-2.7503,-2.7503,-2.7503,-2.7503,-2.731,-2.6875,-2.6854,-2.6705,-2.6323,-2.6255,-2.6424,-2.6399,-2.628,-2.6186,-2.6346,-2.555,-2.5154,-2.5062,-2.4541,-2.3806,-2.3139,-2.28,-2.2585,-2.2031,-2.1652,-2.16,-2.1611,-2.1631,-2.1621,-2.1542,-2.158,-2.1725,-2.1652,-2.1373,-2.1135,-2.0959,-2.0731,-2.0276,-1.9896,-1.9471,-1.9222,-1.9129,-1.9098,-1.9098,-1.9098,-1.9008,-1.8808,-1.8539,-1.8279,-1.811,-1.8042,-1.8008,-1.8008,-1.8008,-1.8008,-1.8008,-3.9305,-3.9305,-3.9305,-3.9305,-3.9305,-3.9305,-3.9305,-3.9305,-3.9305,-3.9305,-3.9278,-3.9102,-3.8708,-3.8055,-3.7501,-3.6904,-3.632,-3.5927,-3.571,-3.5723,-3.5723,-3.5723,-3.5723,-3.5723,-3.571,-3.571,-3.571,-3.571,-3.571,-3.571,-3.571,-3.571,-3.571,-3.5588,-3.5371,-3.4436,-3.3786,-3.3555,-3.2536,-3.189,-3.1669,-3.1508,-3.131,-3.1099,-3.1024,-3.1024,-3.1011,-3.0817,-3.0529,-3.0127,-2.9748,-2.9144,-2.8268,-2.7712,-2.7516,-2.7503,-2.7503,-2.7503,-2.7503,-2.7503,-2.7503,-2.7503,-2.7503,-2.7335,-2.7045,-2.7024,-2.6854,-2.6568,-2.6487,-2.6487,-2.6487,-2.6487,-2.6487,-2.6487,-2.628,-2.6094,-2.5978,-2.5406,-2.4647,-2.3866,-2.3302,-2.2927,-2.259,-2.2252,-2.1807,-2.1807,-2.1807,-2.1807,-2.1807,-2.1807,-2.1807,-2.1776,-2.1611,-2.1528,-2.1362,-2.1135,-2.0752,-2.028,-1.9803,-1.9305,-1.917,-1.9098,-1.9098,-1.9065,-1.8975,-1.8808,-1.8549,-1.8347,-1.8168,-1.8042,-1.8008,-1.8008,-1.8008,-1.8008,-1.8008,-3.9305,-3.9305,-3.9305,-3.9305,-3.9305,-3.9305,-3.9305,-3.9305,-3.9305,-3.9305,-3.9305,-3.9305,-3.8966,-3.8383,-3.7756,-3.7189,-3.6564,-3.5981,-3.5832,-3.5967,-3.5778,-3.5818,-3.6008,-3.6049,-3.59,-3.5737,-3.571,-3.571,-3.571,-3.571,-3.571,-3.571,-3.571,-3.571,-3.5561,-3.4531,-3.3908,-3.3707,-3.2695,-3.189,-3.1633,-3.1485,-3.1286,-3.1061,-3.1024,-3.1024,-3.1024,-3.1024,-3.0817,-3.0477,-3.0231,-2.9575,-2.8503,-2.8046,-2.7725,-2.7529,-2.7503,-2.7503,-2.7503,-2.7503,-2.7503,-2.7503,-2.7503,-2.7403,-2.718,-2.7092,-2.6875,-2.6624,-2.6533,-2.6487,-2.6487,-2.6487,-2.6487,-2.6487,-2.6487,-2.6487,-2.643,-2.606,-2.5406,-2.4636,-2.3913,-2.3386,-2.2916,-2.2327,-2.1845,-2.1807,-2.1807,-2.1807,-2.1807,-2.1807,-2.1807,-2.1807,-2.1756,-2.1725,-2.1745,-2.1507,-2.116,-2.0669,-2.0155,-1.9596,-1.9222,-1.9129,-1.9098,-1.9031,-1.8975,-1.8774,-1.8549,-1.8371,-1.8202,-1.8134,-1.8042,-1.8008,-1.8008,-1.8008,-1.8008,-3.9349,-3.9349,-3.9305,-3.9305,-3.9305,-3.9305,-3.9305,-3.9305,-3.9305,-3.9305,-3.9305,-3.9305,-3.902,-3.8437,-3.7811,-3.7228,-3.67,-3.6117,-3.6157,-3.6402,-3.6239,-3.6185,-3.6469,-3.6483,-3.6212,-3.5778,-3.571,-3.571,-3.571,-3.571,-3.571,-3.571,-3.571,-3.571,-3.5493,-3.4504,-3.3908,-3.3745,-3.2742,-3.1977,-3.1633,-3.1609,-3.1461,-3.1099,-3.1061,-3.1061,-3.1061,-3.1024,-3.1024,-3.0908,-3.0388,-2.9631,-2.8739,-2.8438,-2.8098,-2.7633,-2.7542,-2.7503,-2.7503,-2.7503,-2.7503,-2.7503,-2.7503,-2.7423,-2.7315,-2.7113,-2.6909,-2.6692,-2.6602,-2.6487,-2.6487,-2.6487,-2.6487,-2.6487,-2.6487,-2.6487,-2.6487,-2.6452,-2.6025,-2.5406,-2.4636,-2.3866,-2.3176,-2.2402,-2.1883,-2.1807,-2.1807,-2.1807,-2.1807,-2.1807,-2.1807,-2.1807,-2.1807,-2.1807,-2.1787,-2.1745,-2.1377,-2.0928,-2.0389,-1.9886,-1.9347,-1.9212,-1.9098,-1.9031,-1.8975,-1.8774,-1.8617,-1.8472,-1.8337,-1.8202,-1.8144,-1.8042,-1.8042,-1.8076,-1.8042,-3.9821,-3.9791,-3.9424,-3.9305,-3.9305,-3.9305,-3.9305,-3.9305,-3.9305,-3.9305,-3.9305,-3.9305,-3.921,-3.8952,-3.796,-3.7621,-3.7582,-3.6822,-3.67,-3.7202,-3.7106,-3.6822,-3.6659,-3.6592,-3.6307,-3.5805,-3.5737,-3.571,-3.571,-3.571,-3.571,-3.571,-3.571,-3.571,-3.5533,-3.449,-3.3948,-3.372,-3.2631,-3.1963,-3.1817,-3.1683,-3.1572,-3.1447,-3.1286,-3.1198,-3.1198,-3.1061,-3.1024,-3.0947,-3.0451,-2.9996,-2.9575,-2.8882,-2.836,-2.8111,-2.7725,-2.7503,-2.7503,-2.7503,-2.7503,-2.7503,-2.7503,-2.7436,-2.7315,-2.7113,-2.6909,-2.6726,-2.6589,-2.6487,-2.6487,-2.6487,-2.6487,-2.6487,-2.6487,-2.6487,-2.6487,-2.6487,-2.6383,-2.6094,-2.4921,-2.4131,-2.3585,-2.2681,-2.1845,-2.1807,-2.1807,-2.1807,-2.1807,-2.1807,-2.1807,-2.1807,-2.1807,-2.1807,-2.1807,-2.1807,-2.1552,-2.1087,-2.0627,-2.0141,-1.9668,-1.9316,-1.9191,-1.9065,-1.9065,-1.8908,-1.8808,-1.8707,-1.8506,-1.8303,-1.8313,-1.8279,-1.8245,-1.8245,-1.8134,-4.0009,-3.9952,-3.9513,-3.9305,-3.9305,-3.9305,-3.9305,-3.9305,-3.9305,-3.9305,-3.9305,-3.9305,-3.9305,-3.921,-3.8342,-3.8041,-3.8204,-3.7433,-3.7351,-3.7838,-3.8152,-3.7799,-3.7216,-3.6985,-3.6673,-3.6103,-3.5818,-3.5723,-3.571,-3.571,-3.571,-3.571,-3.571,-3.571,-3.5642,-3.4531,-3.3908,-3.3691,-3.2695,-3.2013,-3.189,-3.178,-3.1683,-3.1609,-3.1397,-3.1272,-3.1161,-3.1061,-3.1024,-3.0921,-3.066,-3.0348,-3.0074,-2.9523,-2.8895,-2.8499,-2.8059,-2.7764,-2.7542,-2.7503,-2.7503,-2.7503,-2.7503,-2.7456,-2.7369,-2.7214,-2.7045,-2.6841,-2.6692,-2.6555,-2.6487,-2.6487,-2.6487,-2.6487,-2.6487,-2.6487,-2.6487,-2.6487,-2.6487,-2.6129,-2.5182,-2.412,-2.4084,-2.2708,-2.2025,-2.1807,-2.1807,-2.1807,-2.1807,-2.1807,-2.1807,-2.1807,-2.1807,-2.1807,-2.1807,-2.1807,-2.1683,-2.1248,-2.0721,-2.0265,-1.972,-1.9305,-1.9212,-1.9098,-1.9098,-1.9065,-1.8942,-1.8808,-1.864,-1.8506,-1.8516,-1.8482,-1.8414,-1.8371,-1.8269,-4.0039,-3.9966,-3.9482,-3.9305,-3.9305,-3.9305,-3.9305,-3.9305,-3.9305,-3.9349,-3.9394,-3.9336,-3.9349,-3.9309,-3.8657,-3.845,-3.8491,-3.7878,-3.8014,-3.8477,-3.8844,-3.8654,-3.7824,-3.7445,-3.708,-3.651,-3.5981,-3.5764,-3.571,-3.571,-3.571,-3.571,-3.571,-3.571,-3.5493,-3.4517,-3.3962,-3.3704,-3.2779,-3.2136,-3.2,-3.1927,-3.1853,-3.1633,-3.1397,-3.1198,-3.1061,-3.1024,-3.1024,-3.1024,-3.1024,-3.0712,-3.0244,-3.0153,-2.9631,-2.8804,-2.8477,-2.8098,-2.7686,-2.7594,-2.7503,-2.7503,-2.7503,-2.7503,-2.7469,-2.7335,-2.718,-2.699,-2.6807,-2.6624,-2.6521,-2.6487,-2.6487,-2.6487,-2.6487,-2.6487,-2.6487,-2.6487,-2.6452,-2.6314,-2.4992,-2.4253,-2.361,-2.282,-2.1807,-2.1807,-2.1807,-2.1807,-2.1807,-2.1807,-2.1807,-2.1807,-2.1807,-2.1807,-2.1807,-2.1807,-2.1631,-2.1352,-2.0772,-2.0213,-1.9523,-1.916,-1.9139,-1.9098,-1.9098,-1.9031,-1.8931,-1.8808,-1.8741,-1.8707,-1.8751,-1.865,-1.8539,-1.8506,-1.8438,-4.0343,-3.9952,-3.9469,-3.9305,-3.9305,-3.9305,-3.9305,-3.9305,-3.9305,-3.9526,-3.9689,-3.9469,-3.9526,-3.9793,-3.8937,-3.8667,-3.8966,-3.8532,-3.8559,-3.9074,-3.9197,-3.921,-3.8654,-3.7946,-3.7202,-3.6619,-3.6008,-3.5737,-3.571,-3.571,-3.571,-3.571,-3.571,-3.571,-3.5547,-3.4545,-3.3908,-3.3704,-3.2779,-3.2209,-3.2146,-3.2109,-3.2036,-3.183,-3.1495,-3.1198,-3.1061,-3.1024,-3.1024,-3.1024,-3.1011,-3.0895,-3.0712,-3.0385,-2.997,-2.9575,-2.8817,-2.8381,-2.8137,-2.7785,-2.7503,-2.7503,-2.7503,-2.7503,-2.7503,-2.7369,-2.7214,-2.7011,-2.6807,-2.6658,-2.6521,-2.6487,-2.6487,-2.6487,-2.6487,-2.6487,-2.6487,-2.6487,-2.628,-2.5581,-2.4743,-2.3902,-2.3338,-2.2494,-2.1883,-2.1807,-2.1807,-2.1807,-2.1807,-2.1807,-2.1807,-2.1807,-2.1807,-2.1807,-2.1807,-2.1735,-2.1497,-2.1238,-2.0684,-2.0131,-1.944,-1.9098,-1.9098,-1.9098,-1.9098,-1.9031,-1.8965,-1.8998,-1.8931,-1.8942,-1.8918,-1.8808,-1.8707,-1.8674,-1.8539,-4.0213,-3.9966,-3.9469,-3.9305,-3.9349,-3.9513,-3.9469,-3.938,-3.9557,-3.9777,-3.9865,-3.9526,-3.9557,-3.9938,-3.9213,-3.9034,-3.9183,-3.9007,-3.8979,-3.9251,-3.9292,-3.9142,-3.8749,-3.8014,-3.7282,-3.6862,-3.6117,-3.5764,-3.571,-3.571,-3.571,-3.571,-3.571,-3.571,-3.5547,-3.4504,-3.3962,-3.3677,-3.2793,-3.2205,-3.2205,-3.2218,-3.2109,-3.189,-3.1582,-3.136,-3.1161,-3.1024,-3.1024,-3.1024,-3.1024,-3.1024,-3.096,-3.0699,-3.0438,-2.997,-2.9353,-2.8682,-2.836,-2.7889,-2.7503,-2.7503,-2.7503,-2.7503,-2.7503,-2.7436,-2.7281,-2.7058,-2.6875,-2.6773,-2.6521,-2.6487,-2.6487,-2.6487,-2.6487,-2.6487,-2.6487,-2.6487,-2.6198,-2.5406,-2.46,-2.3841,-2.3091,-2.2252,-2.1921,-2.1807,-2.1807,-2.1807,-2.1807,-2.1807,-2.1807,-2.1807,-2.1807,-2.1807,-2.1807,-2.1652,-2.1342,-2.101,-2.0529,-1.9955,-1.9326,-1.916,-1.9098,-1.9098,-1.9098,-1.9098,-1.9065,-1.9098,-1.9098,-1.9075,-1.9008,-1.8975,-1.8841,-1.8674,-1.8506,-4.0039,-3.9952,-3.9557,-3.9424,-3.9571,-3.9908,-3.9908,-3.9645,-3.9908,-4.014,-3.9996,-3.9601,-3.9703,-3.9807,-3.9499,-3.9292,-3.9305,-3.9292,-3.9278,-3.9292,-3.9305,-3.8993,-3.8464,-3.7851,-3.7363,-3.7241,-3.6211,-3.575,-3.571,-3.571,-3.571,-3.571,-3.571,-3.5615,-3.533,-3.4517,-3.3813,-3.3555,-3.2711,-3.2205,-3.2205,-3.2169,-3.2073,-3.1817,-3.1633,-3.1397,-3.1211,-3.1061,-3.1024,-3.1024,-3.1024,-3.1024,-3.1024,-3.096,-3.0803,-3.0231,-2.9732,-2.9183,-2.8669,-2.8072,-2.768,-2.7542,-2.7503,-2.7503,-2.7503,-2.7469,-2.7335,-2.7146,-2.6943,-2.6807,-2.6521,-2.6487,-2.6487,-2.6487,-2.6487,-2.6487,-2.6452,-2.6418,-2.5851,-2.5158,-2.4456,-2.3768,-2.2942,-2.2111,-2.1921,-2.1807,-2.1807,-2.1807,-2.1807,-2.1807,-2.1807,-2.1807,-2.1807,-2.1807,-2.1807,-2.1745,-2.1414,-2.0845,-2.0374,-1.9882,-1.9326,-1.917,-1.9098,-1.9098,-1.9098,-1.9098,-1.9098,-1.9098,-1.9098,-1.9098,-1.9065,-1.9031,-1.8875,-1.8674,-1.8539,-4.0343,-4.0009,-3.9908,-4.0083,-4.043,-4.0573,-4.053,-4.0487,-4.0487,-4.0573,-4.0473,-4.0083,-3.9878,-3.9865,-3.9526,-3.9305,-3.9305,-3.9305,-3.9305,-3.9292,-3.9237,-3.8898,-3.8301,-3.7662,-3.7187,-3.6687,-3.6035,-3.5723,-3.571,-3.571,-3.571,-3.571,-3.571,-3.5533,-3.4938,-3.4246,-3.3664,-3.3295,-3.2599,-3.2232,-3.2205,-3.2146,-3.2036,-3.1706,-3.1522,-3.1286,-3.1136,-3.1024,-3.1024,-3.1024,-3.1024,-3.1024,-3.1024,-3.1024,-3.0908,-3.0699,-3.0215,-2.9614,-2.9065,-2.8564,-2.802,-2.7646,-2.7503,-2.7503,-2.7503,-2.7503,-2.7403,-2.7201,-2.693,-2.6692,-2.6521,-2.6487,-2.6487,-2.6487,-2.6487,-2.6487,-2.6383,-2.6025,-2.5453,-2.4755,-2.424,-2.3621,-2.2681,-2.2035,-2.1883,-2.1807,-2.1807,-2.1807,-2.1807,-2.1807,-2.1807,-2.1807,-2.1807,-2.1807,-2.1807,-2.1745,-2.1507,-2.0767,-2.0281,-1.9944,-1.9492,-1.9212,-1.9098,-1.9098,-1.9098,-1.9098,-1.9098,-1.9098,-1.9098,-1.9098,-1.9098,-1.9075,-1.8908,-1.8741,-1.864,-4.0559,-4.0343,-4.0343,-4.0487,-4.0688,-4.0958,-4.0915,-4.0702,-4.0702,-4.0702,-4.0487,-3.9996,-3.9777,-3.9821,-3.9513,-3.9305,-3.9305,-3.9305,-3.9305,-3.9278,-3.8979,-3.8518,-3.7948,-3.7351,-3.6741,-3.6225,-3.5845,-3.571,-3.571,-3.571,-3.571,-3.571,-3.571,-3.5425,-3.4802,-3.4219,-3.3647,-3.3088,-3.2531,-3.2205,-3.2182,-3.2123,-3.1927,-3.1743,-3.1471,-3.1235,-3.1161,-3.1024,-3.1024,-3.1024,-3.1024,-3.1024,-3.1024,-3.1024,-3.1024,-3.0882,-3.0464,-2.9889,-2.9314,-2.8747,-2.8124,-2.7594,-2.7503,-2.7503,-2.7503,-2.7469,-2.7403,-2.7167,-2.6897,-2.6658,-2.6499,-2.6487,-2.6487,-2.6487,-2.6487,-2.6487,-2.6418,-2.6107,-2.5441,-2.4636,-2.3961,-2.3228,-2.2241,-2.1845,-2.1807,-2.1807,-2.1807,-2.1807,-2.1807,-2.1807,-2.1807,-2.1807,-2.1807,-2.1807,-2.1738,-2.1683,-2.1435,-2.0726,-2.0245,-1.9862,-1.9533,-1.9191,-1.9098,-1.9098,-1.9098,-1.9098,-1.9098,-1.9098,-1.9098,-1.9098,-1.9098,-1.9065,-1.8975,-1.8841,-1.8707,-4.083,-4.083,-4.083,-4.093,-4.1057,-4.1354,-4.1368,-4.1001,-4.0915,-4.0801,-4.0573,-3.9922,-3.9645,-3.9703,-3.9526,-3.9305,-3.9305,-3.9305,-3.9237,-3.8993,-3.8667,-3.8055,-3.7338,-3.6849,-3.6347,-3.59,-3.575,-3.571,-3.571,-3.571,-3.571,-3.5655,-3.5642,-3.5209,-3.4572,-3.3921,-3.3471,-3.2952,-3.2504,-3.2232,-3.2146,-3.205,-3.1927,-3.1853,-3.1545,-3.1347,-3.1272,-3.1099,-3.1024,-3.1024,-3.1024,-3.1024,-3.1024,-3.1024,-3.1024,-3.0908,-3.0505,-2.9993,-2.934,-2.8922,-2.8347,-2.7594,-2.7516,-2.7503,-2.7503,-2.7469,-2.7403,-2.7113,-2.6964,-2.6748,-2.6602,-2.6533,-2.6521,-2.6487,-2.6487,-2.6487,-2.6418,-2.6164,-2.5734,-2.4874,-2.39,-2.3276,-2.2756,-2.2569,-2.2708,-2.2338,-2.2338,-2.1959,-2.1959,-2.1807,-2.1807,-2.1807,-2.1807,-2.1807,-2.1707,-2.1563,-2.1228,-2.0627,-2.0182,-1.981,-1.9471,-1.9119,-1.9098,-1.9098,-1.9098,-1.9098,-1.9098,-1.9098,-1.9098,-1.9098,-1.9098,-1.9065,-1.8998,-1.8908,-1.8741,-4.1311,-4.1311,-4.1311,-4.1536,-4.187,-4.1968,-4.1953,-4.1829,-4.1452,-4.1086,-4.0659,-4.014,-3.9645,-3.9482,-3.9349,-3.9305,-3.9305,-3.921,-3.8993,-3.864,-3.8328,-3.7691,-3.6877,-3.6673,-3.6225,-3.5778,-3.571,-3.571,-3.571,-3.571,-3.571,-3.5655,-3.5181,-3.4626,-3.4138,-3.3593,-3.2898,-3.2422,-3.2259,-3.2205,-3.2182,-3.2146,-3.2036,-3.189,-3.1669,-3.1485,-3.131,-3.1136,-3.1024,-3.1024,-3.1024,-3.1024,-3.1024,-3.1024,-3.1024,-3.0973,-3.0817,-3.0411,-2.9483,-2.9131,-2.8582,-2.7751,-2.7503,-2.7503,-2.7503,-2.749,-2.7423,-2.7315,-2.7201,-2.7032,-2.6726,-2.6658,-2.6624,-2.6521,-2.6487,-2.6487,-2.6452,-2.628,-2.5851,-2.5581,-2.4719,-2.4348,-2.3938,-2.3793,-2.3647,-2.3202,-2.2777,-2.2365,-2.2025,-2.1883,-2.1807,-2.1807,-2.1807,-2.1807,-2.1694,-2.1549,-2.1093,-2.0503,-2.011,-1.9782,-1.9409,-1.9098,-1.9098,-1.9098,-1.9098,-1.9098,-1.9098,-1.9098,-1.9098,-1.9098,-1.9098,-1.9098,-1.9098,-1.8965,-1.8831,-4.1787,-4.1787,-4.1801,-4.1926,-4.2092,-4.2092,-4.2092,-4.1953,-4.1311,-4.0873,-4.0573,-3.9922,-3.9469,-3.9349,-3.9305,-3.9305,-3.9237,-3.8979,-3.8695,-3.8193,-3.7745,-3.7134,-3.6646,-3.6266,-3.5886,-3.5818,-3.571,-3.571,-3.571,-3.571,-3.571,-3.5628,-3.5073,-3.4531,-3.3894,-3.3349,-3.2803,-3.2395,-3.2205,-3.2205,-3.2169,-3.2109,-3.2,-3.189,-3.172,-3.1559,-3.1447,-3.1286,-3.1161,-3.1161,-3.1099,-3.1024,-3.1024,-3.1024,-3.1024,-3.1024,-3.0986,-3.0424,-2.9483,-2.9314,-2.8621,-2.7855,-2.7503,-2.7503,-2.7503,-2.749,-2.7423,-2.7302,-2.7302,-2.7134,-2.6829,-2.6726,-2.6624,-2.6568,-2.6487,-2.6487,-2.6452,-2.628,-2.606,-2.5838,-2.5616,-2.5252,-2.485,-2.4373,-2.395,-2.335,-2.2927,-2.259,-2.2176,-2.1845,-2.1807,-2.1807,-2.1807,-2.1807,-2.1652,-2.1487,-2.101,-2.0472,-2.0052,-1.9689,-1.9316,-1.9098,-1.9098,-1.9098,-1.9098,-1.9098,-1.9098,-1.9098,-1.9098,-1.9098,-1.9098,-1.9098,-1.9098,-1.9098,-1.8965,-4.2092,-4.2092,-4.2092,-4.2092,-4.2092,-4.2092,-4.2009,-4.1829,-4.1227,-4.083,-4.053,-4.0009,-3.9703,-3.9615,-3.9543,-3.9431,-3.9196,-3.8657,-3.822,-3.7718,-3.7134,-3.6605,-3.6266,-3.59,-3.575,-3.571,-3.571,-3.571,-3.571,-3.571,-3.571,-3.5669,-3.4896,-3.4368,-3.3853,-3.32,-3.2572,-3.2273,-3.2205,-3.2205,-3.2169,-3.2073,-3.2,-3.1927,-3.178,-3.1669,-3.1572,-3.1397,-3.131,-3.1161,-3.1099,-3.1024,-3.1024,-3.1024,-3.1024,-3.1024,-3.1024,-3.0501,-2.9702,-2.9183,-2.8621,-2.7934,-2.7503,-2.7503,-2.7503,-2.7503,-2.7469,-2.7369,-2.7369,-2.7167,-2.6897,-2.6794,-2.6692,-2.6589,-2.6487,-2.6487,-2.6487,-2.6349,-2.6314,-2.6198,-2.6047,-2.6025,-2.5511,-2.4898,-2.424,-2.3534,-2.3102,-2.2729,-2.2289,-2.1845,-2.1807,-2.1807,-2.1787,-2.1714,-2.1455,-2.1217,-2.0793,-2.0379,-1.9958,-1.9596,-1.9233,-1.9098,-1.9098,-1.9098,-1.9098,-1.9098,-1.9098,-1.9098,-1.9098,-1.9098,-1.9098,-1.9098,-1.9098,-1.9098,-1.9098,-4.2092,-4.2092,-4.2092,-4.2092,-4.2092,-4.2092,-4.1885,-4.1522,-4.1354,-4.1043,-4.0645,-4.0616,-4.0487,-4.0416,-3.9929,-3.952,-3.9095,-3.861,-3.7801,-3.708,-3.6578,-3.6266,-3.5981,-3.5791,-3.571,-3.571,-3.571,-3.571,-3.5683,-3.5588,-3.5655,-3.5574,-3.4651,-3.4177,-3.362,-3.2888,-3.2436,-3.2205,-3.2205,-3.2205,-3.2205,-3.2169,-3.2132,-3.2109,-3.1963,-3.178,-3.1609,-3.1434,-3.1272,-3.1099,-3.1024,-3.1024,-3.1024,-3.1024,-3.1024,-3.1024,-3.0869,-3.0344,-2.9611,-2.9196,-2.8647,-2.7907,-2.7503,-2.7503,-2.7503,-2.7503,-2.7503,-2.7469,-2.7436,-2.7302,-2.7113,-2.6943,-2.6829,-2.6624,-2.6555,-2.6533,-2.6521,-2.6487,-2.6452,-2.6487,-2.6418,-2.628,-2.6141,-2.5476,-2.4396,-2.3607,-2.3016,-2.2644,-2.2214,-2.1807,-2.1807,-2.1797,-2.1756,-2.158,-2.1197,-2.0824,-2.0389,-2.0027,-1.9658,-1.9399,-1.915,-1.9098,-1.9098,-1.9098,-1.9098,-1.9098,-1.9098,-1.9098,-1.9098,-1.9098,-1.9098,-1.9098,-1.9098,-1.9098,-1.9098,-4.2092,-4.2051,-4.1801,-4.1829,-4.2092,-4.2092,-4.1843,-4.1396,-4.1086,-4.0688,-4.03,-4.0573,-4.0702,-4.0475,-3.9783,-3.9347,-3.8902,-3.7753,-3.7081,-3.6619,-3.6252,-3.594,-3.5723,-3.571,-3.571,-3.571,-3.571,-3.571,-3.5696,-3.5385,-3.5168,-3.4896,-3.4285,-3.381,-3.324,-3.2671,-3.2327,-3.2205,-3.2205,-3.2205,-3.2205,-3.2205,-3.2205,-3.2169,-3.2169,-3.2,-3.1793,-3.1596,-3.1397,-3.1198,-3.1061,-3.1024,-3.1024,-3.1024,-3.1024,-3.0921,-3.0725,-3.0098,-2.9519,-2.9231,-2.8739,-2.7816,-2.7503,-2.7503,-2.7503,-2.7503,-2.7503,-2.7503,-2.7503,-2.7369,-2.7248,-2.7167,-2.7066,-2.6748,-2.6589,-2.6568,-2.6533,-2.6487,-2.6487,-2.6487,-2.6487,-2.6418,-2.628,-2.6107,-2.4874,-2.3717,-2.3117,-2.2569,-2.2203,-2.1852,-2.1869,-2.1652,-2.158,-2.1342,-2.0959,-2.0483,-1.9986,-1.9699,-1.9378,-1.9243,-1.9098,-1.9098,-1.9098,-1.9098,-1.9098,-1.9098,-1.9098,-1.9098,-1.9098,-1.9098,-1.9098,-1.9098,-1.9098,-1.9098,-1.9098,-4.187,-4.1829,-4.1396,-4.1438,-4.1843,-4.1745,-4.141,-4.1015,-4.0773,-4.0645,-4.0416,-4.0718,-4.0732,-4.0379,-3.9536,-3.874,-3.8227,-3.7303,-3.6646,-3.6239,-3.594,-3.5737,-3.571,-3.571,-3.571,-3.571,-3.571,-3.571,-3.5683,-3.5087,-3.4761,-3.4423,-3.3987,-3.3457,-3.3091,-3.2544,-3.2218,-3.2205,-3.2205,-3.2205,-3.2205,-3.2205,-3.2205,-3.2205,-3.2169,-3.2073,-3.189,-3.1743,-3.1545,-3.136,-3.1161,-3.1099,-3.1024,-3.1024,-3.1024,-3.079,-3.0438,-2.9876,-2.9441,-2.8817,-2.8425,-2.762,-2.7503,-2.7503,-2.7503,-2.7503,-2.7503,-2.7503,-2.7503,-2.7469,-2.7335,-2.7268,-2.71,-2.6782,-2.6692,-2.6624,-2.6521,-2.6487,-2.6487,-2.6487,-2.6452,-2.6383,-2.5804,-2.5629,-2.5229,-2.4215,-2.3768,-2.3191,-2.258,-2.2237,-2.2012,-2.1705,-2.1331,-2.1041,-2.07,-2.0269,-1.9824,-1.9502,-1.9243,-1.9191,-1.9098,-1.9098,-1.9098,-1.9098,-1.9098,-1.9098,-1.9098,-1.9098,-1.9098,-1.9098,-1.9098,-1.9098,-1.9098,-1.9098,-1.9098,-4.1339,-4.1354,-4.0859,-4.0887,-4.1197,-4.0915,-4.0516,-4.0243,-4.0489,-4.0788,-4.0986,-4.1001,-4.0713,-4.0187,-3.9087,-3.8282,-3.7565,-3.6893,-3.6293,-3.5886,-3.5791,-3.5723,-3.571,-3.571,-3.571,-3.571,-3.5696,-3.5696,-3.5615,-3.4924,-3.445,-3.3932,-3.3403,-3.3074,-3.302,-3.2504,-3.2232,-3.2205,-3.2205,-3.2205,-3.2205,-3.2205,-3.2205,-3.2205,-3.2205,-3.2109,-3.1853,-3.1817,-3.1596,-3.1272,-3.1235,-3.1136,-3.1024,-3.1024,-3.0998,-3.0843,-3.0346,-2.9797,-2.9271,-2.8203,-2.7686,-2.7542,-2.7503,-2.7503,-2.7503,-2.7503,-2.7503,-2.7503,-2.7503,-2.7423,-2.7369,-2.7302,-2.7053,-2.6897,-2.6794,-2.6692,-2.6589,-2.6487,-2.6487,-2.6487,-2.6418,-2.6245,-2.5476,-2.5004,-2.5111,-2.4743,-2.442,-2.3804,-2.3005,-2.2307,-2.1881,-2.1491,-2.1031,-2.0617,-2.0311,-2.0,-1.9627,-1.9305,-1.9139,-1.9108,-1.9098,-1.9098,-1.9098,-1.9098,-1.9098,-1.9098,-1.9098,-1.9098,-1.9098,-1.9098,-1.9098,-1.9098,-1.9098,-1.9098,-1.9098,-3.9755,-3.97,-3.9243,-3.9145,-3.9397,-4.0322,-4.043,-4.0043,-4.0067,-4.0154,-4.025,-4.0122,-3.9796,-3.9191,-3.8416,-3.759,-3.7193,-3.6293,-3.5751,-3.575,-3.571,-3.571,-3.571,-3.571,-3.571,-3.571,-3.5696,-3.5385,-3.5086,-3.4504,-3.3908,-3.3363,-3.2861,-3.2558,-3.2477,-3.2273,-3.2218,-3.2205,-3.2205,-3.2205,-3.2205,-3.2205,-3.2205,-3.2205,-3.2205,-3.2073,-3.178,-3.178,-3.1596,-3.1272,-3.1198,-3.1123,-3.1061,-3.1024,-3.0841,-3.0451,-2.9839,-2.9104,-2.8412,-2.7633,-2.7542,-2.7503,-2.7503,-2.7503,-2.7503,-2.7503,-2.7503,-2.7503,-2.7503,-2.7456,-2.7436,-2.7436,-2.7268,-2.7011,-2.6875,-2.6726,-2.6624,-2.6521,-2.6487,-2.6487,-2.6452,-2.6418,-2.5943,-2.5581,-2.5546,-2.498,-2.453,-2.3809,-2.3025,-2.202,-2.1376,-2.1058,-2.0659,-2.0249,-1.9865,-1.9637,-1.9471,-1.9233,-1.9119,-1.9108,-1.9098,-1.9098,-1.9098,-1.9098,-1.9098,-1.9098,-1.9098,-1.9098,-1.9098,-1.9098,-1.9098,-1.9098,-1.9098,-1.9098,-1.9098,-3.8641,-3.86,-3.8159,-3.795,-3.8129,-3.9128,-3.946,-3.9334,-3.9355,-3.9423,-3.9393,-3.913,-3.8712,-3.8165,-3.7478,-3.6822,-3.6686,-3.6102,-3.5723,-3.571,-3.571,-3.571,-3.571,-3.571,-3.571,-3.5683,-3.5465,-3.5167,-3.4802,-3.3989,-3.3349,-3.2806,-3.2436,-3.2314,-3.2246,-3.2232,-3.2205,-3.2205,-3.2205,-3.2205,-3.2205,-3.2205,-3.2205,-3.2205,-3.2169,-3.2073,-3.189,-3.1743,-3.1669,-3.1397,-3.1286,-3.1248,-3.1211,-3.1057,-3.0797,-3.0223,-2.9362,-2.8556,-2.7837,-2.7555,-2.7503,-2.7503,-2.7503,-2.7503,-2.7503,-2.7503,-2.7503,-2.7503,-2.7503,-2.7503,-2.7503,-2.7503,-2.7369,-2.7146,-2.7045,-2.6897,-2.6726,-2.6658,-2.6589,-2.6555,-2.6487,-2.6487,-2.6487,-2.6418,-2.6233,-2.5426,-2.4625,-2.3804,-2.301,-2.2099,-2.1047,-2.0591,-2.0321,-1.9927,-1.9596,-1.9357,-1.9212,-1.9119,-1.9098,-1.9098,-1.9098,-1.9098,-1.9098,-1.9098,-1.9098,-1.9098,-1.9098,-1.9098,-1.9098,-1.9098,-1.9098,-1.9098,-1.9098,-1.9098,-1.9098,-3.8117,-3.8062,-3.7642,-3.7419,-3.7446,-3.7573,-3.7782,-3.8145,-3.8559,-3.875,-3.8708,-3.8104,-3.7637,-3.7204,-3.6613,-3.6221,-3.5939,-3.575,-3.5723,-3.571,-3.571,-3.571,-3.571,-3.571,-3.571,-3.5533,-3.529,-3.514,-3.4694,-3.3756,-3.2901,-3.2453,-3.2341,-3.2232,-3.2205,-3.2205,-3.2205,-3.2205,-3.2205,-3.2205,-3.2205,-3.2205,-3.2205,-3.2205,-3.2169,-3.2146,-3.2073,-3.205,-3.1963,-3.1853,-3.178,-3.172,-3.1596,-3.1371,-3.0926,-3.0181,-2.9,-2.815,-2.7633,-2.7516,-2.7503,-2.7503,-2.7503,-2.7503,-2.7503,-2.7503,-2.7503,-2.7503,-2.7503,-2.7503,-2.7503,-2.7469,-2.7436,-2.7335,-2.7281,-2.7146,-2.6943,-2.6841,-2.6726,-2.6658,-2.6555,-2.6521,-2.6487,-2.6487,-2.6317,-2.5497,-2.4529,-2.3526,-2.2778,-2.2267,-2.1239,-2.0114,-1.9855,-1.9596,-1.9336,-1.9181,-1.9139,-1.9098,-1.9098,-1.9098,-1.9098,-1.9098,-1.9098,-1.9098,-1.9098,-1.9098,-1.9098,-1.9098,-1.9098,-1.9098,-1.9098,-1.9098,-1.9098,-1.9098,-1.9098,-3.6429,-3.6389,-3.6266,-3.6198,-3.6293,-3.6592,-3.7249,-3.809,-3.7909,-3.7742,-3.7686,-3.7103,-3.6655,-3.6156,-3.5966,-3.5804,-3.575,-3.571,-3.571,-3.571,-3.571,-3.571,-3.571,-3.571,-3.571,-3.5655,-3.5479,-3.5126,-3.4638,-3.3634,-3.3088,-3.2884,-3.2381,-3.2246,-3.2205,-3.2205,-3.2205,-3.2205,-3.2205,-3.2205,-3.2205,-3.2205,-3.2205,-3.2205,-3.2205,-3.2146,-3.2073,-3.205,-3.1927,-3.178,-3.1706,-3.1646,-3.1609,-3.1096,-3.0489,-2.9254,-2.8318,-2.7633,-2.7529,-2.7503,-2.7503,-2.7503,-2.7503,-2.7503,-2.7503,-2.7503,-2.7503,-2.7503,-2.7503,-2.7503,-2.7503,-2.7469,-2.7436,-2.7403,-2.7335,-2.7248,-2.7079,-2.6977,-2.6863,-2.6658,-2.6555,-2.6521,-2.6487,-2.6373,-2.6099,-2.5335,-2.4436,-2.3384,-2.2503,-2.1978,-2.1161,-2.0012,-1.9544,-1.9336,-1.9253,-1.9119,-1.9108,-1.9098,-1.9098,-1.9098,-1.9098,-1.9098,-1.9098,-1.9098,-1.9098,-1.9098,-1.9098,-1.9098,-1.9098,-1.9098,-1.9098,-1.9098,-1.9098,-1.9098,-1.9098,-3.571,-3.571,-3.571,-3.571,-3.575,-3.6018,-3.6591,-3.7099,-3.7001,-3.693,-3.6874,-3.6383,-3.5965,-3.5777,-3.5723,-3.571,-3.571,-3.571,-3.571,-3.571,-3.571,-3.571,-3.571,-3.571,-3.571,-3.5669,-3.5452,-3.5046,-3.457,-3.3702,-3.3033,-3.2653,-3.2314,-3.2259,-3.2205,-3.2205,-3.2205,-3.2205,-3.2205,-3.2205,-3.2205,-3.2205,-3.2205,-3.2205,-3.2205,-3.2109,-3.2036,-3.2,-3.1927,-3.1853,-3.1853,-3.1853,-3.1606,-3.098,-2.9896,-2.8771,-2.7996,-2.7607,-2.7503,-2.7503,-2.7503,-2.7503,-2.7503,-2.7503,-2.7503,-2.7503,-2.7503,-2.7503,-2.7503,-2.7503,-2.7503,-2.7503,-2.7436,-2.7403,-2.7369,-2.7335,-2.7214,-2.7079,-2.6875,-2.6658,-2.6555,-2.6521,-2.6424,-2.6285,-2.5958,-2.528,-2.442,-2.3346,-2.2393,-2.1599,-2.0714,-1.9596,-1.9328,-1.9139,-1.9164,-1.9231,-1.9198,-1.9164,-1.9098,-1.9098,-1.9098,-1.9098,-1.9098,-1.9098,-1.9098,-1.9098,-1.9098,-1.9098,-1.9098,-1.9098,-1.9098,-1.9098,-1.9098,-1.9098,-1.9098,-3.571,-3.571,-3.571,-3.571,-3.571,-3.5764,-3.575,-3.5764,-3.6207,-3.6365,-3.6259,-3.5898,-3.571,-3.571,-3.571,-3.571,-3.571,-3.571,-3.571,-3.571,-3.571,-3.571,-3.571,-3.571,-3.571,-3.552,-3.5168,-3.4829,-3.4423,-3.3675,-3.2857,-3.2286,-3.2218,-3.2205,-3.2205,-3.2205,-3.2205,-3.2205,-3.2205,-3.2205,-3.2205,-3.2205,-3.2205,-3.2205,-3.2205,-3.2169,-3.2169,-3.2169,-3.2205,-3.2182,-3.2182,-3.2132,-3.1415,-3.0605,-2.9401,-2.8591,-2.7839,-2.7581,-2.7503,-2.7503,-2.7503,-2.7503,-2.7503,-2.7503,-2.7503,-2.7503,-2.7503,-2.7503,-2.7503,-2.7503,-2.7503,-2.7503,-2.7469,-2.7469,-2.7436,-2.7436,-2.7369,-2.7214,-2.7045,-2.6778,-2.643,-2.6384,-2.619,-2.6013,-2.5232,-2.4888,-2.4267,-2.318,-2.2312,-2.1416,-2.0754,-1.9755,-1.9724,-1.9748,-1.9616,-1.9649,-1.9363,-1.9264,-1.9198,-1.9098,-1.9098,-1.9098,-1.9098,-1.9098,-1.9098,-1.9098,-1.9098,-1.9098,-1.9098,-1.9098,-1.9098,-1.9098,-1.9098,-1.9098,-1.9098,-3.571,-3.571,-3.571,-3.571,-3.571,-3.571,-3.571,-3.571,-3.5804,-3.5884,-3.5844,-3.575,-3.571,-3.571,-3.571,-3.571,-3.571,-3.571,-3.571,-3.571,-3.571,-3.571,-3.5683,-3.5642,-3.5669,-3.552,-3.5114,-3.4504,-3.4016,-3.343,-3.3033,-3.2789,-3.249,-3.2205,-3.2205,-3.2205,-3.2205,-3.2205,-3.2205,-3.2205,-3.2205,-3.2205,-3.2205,-3.2205,-3.2205,-3.2205,-3.2205,-3.2205,-3.2205,-3.2218,-3.2218,-3.1707,-3.0818,-2.9812,-2.8952,-2.8239,-2.7741,-2.7562,-2.7503,-2.7503,-2.7503,-2.7503,-2.7503,-2.7503,-2.7503,-2.7503,-2.7503,-2.7503,-2.7503,-2.7503,-2.7503,-2.7503,-2.7503,-2.7503,-2.7503,-2.7503,-2.7503,-2.7335,-2.718,-2.6793,-2.6408,-2.6155,-2.5962,-2.5372,-2.4566,-2.4005,-2.3559,-2.2807,-2.2111,-2.1385,-2.1516,-2.083,-2.069,-2.0645,-2.0387,-2.0009,-1.9715,-1.9495,-1.9363,-1.9264,-1.9131,-1.9098,-1.9098,-1.9098,-1.9098,-1.9098,-1.9098,-1.9098,-1.9098,-1.9098,-1.9098,-1.9098,-1.9098,-1.9098,-1.9098,-3.571,-3.571,-3.571,-3.571,-3.571,-3.571,-3.571,-3.571,-3.571,-3.571,-3.571,-3.571,-3.571,-3.571,-3.571,-3.571,-3.571,-3.571,-3.571,-3.571,-3.5669,-3.571,-3.5655,-3.5385,-3.5303,-3.5167,-3.4639,-3.4084,-3.3566,-3.3295,-3.302,-3.2735,-3.2327,-3.2205,-3.2205,-3.2205,-3.2205,-3.2205,-3.2205,-3.2205,-3.2205,-3.2205,-3.2205,-3.2205,-3.2205,-3.2205,-3.2205,-3.2205,-3.2205,-3.2046,-3.1924,-3.1213,-3.036,-2.9495,-2.8685,-2.8047,-2.7603,-2.7503,-2.7503,-2.7503,-2.7503,-2.7503,-2.7503,-2.7503,-2.7503,-2.7503,-2.7503,-2.7503,-2.7503,-2.7503,-2.7503,-2.7503,-2.7503,-2.7503,-2.7503,-2.7469,-2.7436,-2.7335,-2.6974,-2.646,-2.6136,-2.5892,-2.5572,-2.4975,-2.428,-2.4003,-2.3403,-2.307,-2.225,-2.1721,-2.1784,-2.1753,-2.1565,-2.1219,-2.0837,-2.042,-2.0031,-1.9813,-1.9649,-1.933,-1.9164,-1.9131,-1.9098,-1.9098,-1.9098,-1.9098,-1.9098,-1.9098,-1.9098,-1.9098,-1.9098,-1.9098,-1.9098,-1.9098,-1.9098,-3.571,-3.571,-3.571,-3.571,-3.571,-3.571,-3.571,-3.571,-3.571,-3.571,-3.5683,-3.5615,-3.5588,-3.571,-3.571,-3.571,-3.571,-3.571,-3.571,-3.5547,-3.5533,-3.5316,-3.5059,-3.491,-3.4706,-3.4421,-3.4014,-3.3485,-3.2979,-3.2843,-3.264,-3.2286,-3.2205,-3.2205,-3.2205,-3.2205,-3.2205,-3.2205,-3.2205,-3.2205,-3.2205,-3.2205,-3.2205,-3.2205,-3.2205,-3.2205,-3.2205,-3.2205,-3.2205,-3.1884,-3.1558,-3.0856,-3.0083,-2.9301,-2.8552,-2.7914,-2.7676,-2.759,-2.7556,-2.7536,-2.7503,-2.7503,-2.7503,-2.7503,-2.7503,-2.7503,-2.7503,-2.7503,-2.7503,-2.7503,-2.7503,-2.7503,-2.7503,-2.7503,-2.7469,-2.7443,-2.739,-2.7258,-2.6769,-2.6218,-2.5884,-2.564,-2.5129,-2.45,-2.4109,-2.3865,-2.3615,-2.3308,-2.2975,-2.2628,-2.2506,-2.2384,-2.2187,-2.1784,-2.1471,-2.0869,-2.0452,-2.0409,-2.0247,-1.9649,-1.9208,-1.9198,-1.9164,-1.9098,-1.9098,-1.9164,-1.9131,-1.9098,-1.9098,-1.9131,-1.9098,-1.9098,-1.9098,-1.9098,-1.9098,-3.571,-3.571,-3.571,-3.5696,-3.5683,-3.5683,-3.571,-3.571,-3.5669,-3.571,-3.552,-3.5221,-3.5221,-3.5696,-3.571,-3.5628,-3.5425,-3.5506,-3.5249,-3.5019,-3.4978,-3.4666,-3.4395,-3.4246,-3.3851,-3.3539,-3.3268,-3.2952,-3.2626,-3.2477,-3.2354,-3.2218,-3.2205,-3.2205,-3.2205,-3.2205,-3.2205,-3.2205,-3.2205,-3.2205,-3.2205,-3.2205,-3.2205,-3.2205,-3.2205,-3.2205,-3.2205,-3.2205,-3.2205,-3.187,-3.1219,-3.0593,-2.9895,-2.9114,-2.8385,-2.8,-2.7743,-2.7689,-2.7623,-2.7536,-2.7503,-2.7503,-2.7503,-2.7503,-2.7503,-2.7503,-2.7503,-2.7503,-2.7503,-2.7503,-2.7503,-2.7503,-2.7503,-2.7503,-2.7503,-2.7438,-2.7378,-2.7065,-2.6655,-2.6064,-2.556,-2.5226,-2.4803,-2.4226,-2.375,-2.3558,-2.3455,-2.3198,-2.3198,-2.3155,-2.3138,-2.2914,-2.2689,-2.2854,-2.2689,-2.1502,-2.0996,-2.1017,-2.0826,-2.0258,-1.9715,-1.933,-1.9264,-1.9518,-1.9363,-1.9297,-1.9231,-1.933,-1.9131,-1.9164,-1.9131,-1.9098,-1.9098,-1.9098,-1.9098]},{"header":{"parameterUnit":"m.s-1","parameterCategory":1,"la1":31.0,"la2":29.5877,"lo1":-88.7671,"lo2":-86.6584,"dy":0.0162,"dx":0.0185,"nx":115,"ny":88,"refTime":"2023-08-09T18:00:00:Z","depth":0,"parameterNumber":3,"parameterNumberName":"V-component_of_WINDS"},"data":[0.0,0.0,0.0,0.0,0.0,0.0,0.0,0.0,0.0,0.0,0.0,0.0,0.0,0.0,0.0,0.0,0.0,0.0,0.0,0.0,0.0,0.0,0.0,0.0,0.0,0.0,0.0,0.0,0.0,0.0,0.0,0.0,0.0,0.0,0.0,0.0,0.0,0.0,0.0,0.0,0.0,0.0,0.0,0.0,0.0,0.0,0.0,0.0,0.0,0.0,0.0,0.0,0.0,0.0,0.0,0.0,0.0,0.0,0.0,0.0,0.0,0.0,0.0,0.0,0.0,0.0,0.0,0.0,0.0,0.0,0.0,0.0,0.0,0.0,0.0,0.0,0.0,0.0,0.0,0.0,0.0,0.0,0.0,0.0,0.0,0.0,0.0,0.0,0.0,0.0,0.0,0.0,0.0,0.0,0.0,0.0,0.0,0.0,0.0,0.0,0.0,0.0,0.0,0.0,0.0,0.0,0.0,0.0,0.0,0.0,0.0,0.0,0.0,0.0,0.0,0.0,0.0,0.0,0.0,0.0,0.0,0.0,0.0,0.0,0.0,0.0,0.0,0.0,0.0,0.0,0.0,0.0,0.0,0.0,0.0,0.0,0.0,0.0,0.0,0.0,0.0,0.0,0.0,0.0,0.0,0.0,0.0,0.0,0.0,0.0,0.0,0.0,0.0,0.0,0.0,0.0,0.0,0.0,0.0,0.0,0.0,0.0,0.0,0.0,0.0,0.0,0.0,0.0,0.0,0.0,0.0,0.0,0.0,0.0,0.0,0.0,0.0,0.0,0.0,0.0,0.0,0.0,0.0,0.0,0.0,0.0,0.0,0.0,0.0,0.0,0.0,0.0,0.0,0.0,0.0,0.0,0.0,0.0,0.0,0.0,0.0,0.0,0.0,0.0,0.0,0.0,0.0,0.0,0.0,0.0,0.0,0.0,0.0,0.0,0.0,0.0,0.0,0.0,0.0,0.0,0.0,0.0,0.0,0.0,0.0,0.0,0.0,0.0,0.0,0.0,0.0,0.0,0.0,0.0,0.0,0.0,0.0,0.0,0.0,0.0,0.0,0.0,0.0,0.0,0.0,0.0,0.0,0.0,0.0,0.0,0.0,0.0,0.0,0.0,0.0,0.0,0.0,0.0,0.0,0.0,0.0,0.0,0.0,0.0,0.0,0.0,0.0,0.0,0.0,0.0,0.0,0.0,0.0,0.0,0.0,0.0,0.0,0.0,0.0,0.0,0.0,0.0,0.0,0.0,0.0,0.0,0.0,0.0,0.0,0.0,0.0,0.0,0.0,0.0,0.0,0.0,0.0,0.0,0.0,0.0,0.0,0.0,0.0,0.0,0.0,0.0,0.0,0.0,0.0,0.0,0.0,0.0,0.0,0.0,0.0,0.0,0.0,0.0,0.0,0.0,0.0,0.0,0.0,0.0,0.0,0.0,0.0,0.0,0.0,0.0,0.0,0.0,0.0,0.0,0.0,0.0,0.0,0.0,0.0,0.0,0.0,0.0,0.0,0.0,0.0,0.0,0.0,0.0,0.0,0.0,0.0,0.0,0.0,0.0,0.0,0.0,0.0,0.0,0.0,0.0,0.0,0.0,0.0,0.0,0.0,0.0,0.0,0.0,0.0,0.0,0.0,0.0,0.0,0.0,0.0,0.0,0.0,0.0,0.0,0.0,0.0,0.0,0.0,0.0,0.0,0.0,0.0,0.0,0.0,0.0,0.0,0.0,0.0,0.0,0.0,0.0,0.0,0.0,0.0,0.0,0.0,0.0,0.0,0.0,0.0,0.0,0.0,0.0,0.0,0.0,0.0,0.0,0.0,0.0,0.0,0.0,0.0,0.0,0.0,0.0,0.0,0.0,0.0,0.0,0.0,0.0,0.0,0.0,0.0,0.0,0.0,0.0,0.0,0.0,0.0,0.0,0.0,0.0,0.0,0.0,0.0,0.0,0.0,0.0,0.0,0.0,0.0,0.0,0.0,0.0,0.0,0.0,0.0,0.0,0.0,0.0,0.0,0.0,0.0,0.0,0.0,0.0,0.0,0.0,0.0,0.0,0.0,0.0,0.0,0.0,0.0,0.0,0.0,0.0,0.0,0.0,0.0,0.0,0.0,0.0,0.0,0.0,0.0,0.0,0.0,0.0,0.0,0.0,0.0,0.0,0.0,0.0,0.0,0.0,0.0,0.0,0.0,0.0,0.0,0.0,0.0,0.0,0.0,0.0,0.0,0.0,0.0,0.0,0.0,0.0,0.0,0.0,0.0,0.0,0.0,0.0,0.0,0.0,0.0,0.0,0.0,0.0,0.0,0.0,0.0,0.0,0.0,0.0,0.0,0.0,0.0,0.0,0.0,0.0,0.0,0.0,0.0,0.0,0.0,0.0,0.0,0.0,0.0,0.0,0.0,0.0,0.0,0.0,0.0,0.0,0.0,0.0,0.0,0.0,0.0,0.0,0.0,0.0,0.0,0.0,0.0,0.0,0.0,0.0,0.0,0.0,0.0,0.0,0.0,0.0,0.0,0.0,0.0,0.0,0.0,0.0,0.0,0.0,0.0,0.0,0.0,0.0,0.0,0.0,0.0,0.0,0.0,0.0,0.0,0.0,0.0,0.0,0.0,0.0,0.0,0.0,0.0,0.0,0.0,0.0,0.0,0.0,0.0,0.0,0.0,0.0,0.0,0.0,0.0,0.0,0.0,0.0,0.0,0.0,0.0,0.0,0.0,0.0,0.0,0.0,0.0,0.0,0.0,0.0,0.0,0.0,0.0,0.0,0.0,0.0,0.0,0.0,0.0,0.0,0.0,0.0,0.0,0.0,0.0,0.0,0.0,0.0,0.0,0.0,0.0,0.0,0.0,0.0,0.0,0.0,0.0,0.0,0.0,0.0,0.0,0.0,0.0,0.0,0.0,0.0,0.0,0.0,0.0,0.0,0.0,0.0,0.0,0.0,0.0,0.0,0.0,0.0,0.0,0.0,0.0,0.0,0.0,0.0,0.0,0.0,0.0,0.0,0.0,0.0,0.0,0.0,0.0,0.0,0.0,0.0,0.0,0.0,0.0,0.0,0.0,0.0,0.0,0.0,0.0,0.0,0.0,0.0,0.0,0.0,0.0,0.0,0.0,0.0,0.0,0.0,0.0,0.0,0.0,0.0,0.0,0.0,0.0,0.0,0.0,0.0,0.0,0.0,0.0,0.0,0.0,0.0,0.0,0.0,0.0,0.0,0.0,0.0,0.0,0.0,0.0,0.0,0.0,0.0,0.0,0.0,0.0,0.0,0.0,0.0,0.0,0.0,0.0,0.0,0.0,0.0,0.0,0.0,0.0,0.0,0.0,0.0,0.0,0.0,0.0,0.0,0.0,0.0,0.0,0.0,0.0,0.0,0.0,0.0,0.0,0.0,0.0,0.0,0.0,0.0,0.0,0.0,0.0,0.0,0.0,0.0,0.0,0.0,0.0,0.0,0.0,0.0,0.0,0.0,0.0,0.0,0.0,0.0,0.0,0.0,0.0,0.0,0.0,0.0,0.0,0.0,0.0,0.0,0.0,0.0,0.0,0.0,0.0,0.0,0.0,0.0,0.0,0.0,0.0,0.0,0.0,0.0,0.0,0.0,0.0,0.0,0.0,0.0,0.0,0.0,0.0,0.0,0.0,0.0,0.0,0.0,0.0,0.0,0.0,0.0,0.0,0.0,0.0,0.0,0.0,0.0,0.0,0.0,0.0,0.0,0.0,0.0,0.0,0.0,0.0,0.0,0.0,0.0,0.0,0.0,0.0,0.0,0.0,0.0,0.0,0.0,0.0,0.0,0.0,0.0,0.0,0.0,0.0,0.0,0.0,0.0,0.0,0.0,0.0,0.0,0.0,0.0,0.0,0.0,0.0,0.0,0.0,0.0,0.0,0.0,0.0,0.0,0.0,0.0,0.0,0.0,0.0,0.0,0.0,0.0,0.0,0.0,0.0,0.0,0.0,0.0,0.0,0.0,0.0,0.0,0.0,0.0,0.0,0.0,0.0,0.0,0.0,0.0,0.0,0.0,0.0,0.0,0.0,0.0,0.0,0.0,0.0,0.0,0.0,0.0,0.0,0.0,0.0,0.0,0.0,0.0,0.0,0.0,0.0,0.0,0.0,0.0,0.0,0.0,0.0,0.0,0.0,0.0,0.0,0.0,0.0,0.0,0.0,0.0,0.0,0.0,0.0,0.0,0.0,0.0,0.0,0.0,0.0,0.0,0.0,0.0,0.0,0.0,0.0,0.0,0.0,0.0,-2.5893,0.0,0.0,0.0,0.0,0.0,0.0,0.0,0.0,0.0,0.0,0.0,0.0,0.0,0.0,0.0,0.0,0.0,0.0,0.0,0.0,0.0,0.0,0.0,0.0,0.0,0.0,0.0,0.0,0.0,0.0,0.0,0.0,0.0,0.0,0.0,0.0,0.0,0.0,0.0,0.0,0.0,0.0,0.0,0.0,0.0,0.0,0.0,0.0,0.0,0.0,0.0,0.0,0.0,0.0,0.0,0.0,0.0,0.0,0.0,0.0,0.0,0.0,0.0,0.0,0.0,0.0,0.0,0.0,0.0,0.0,0.0,0.0,0.0,0.0,0.0,0.0,0.0,0.0,0.0,0.0,0.0,0.0,0.0,0.0,0.0,0.0,0.0,0.0,0.0,0.0,0.0,0.0,0.0,0.0,0.0,0.0,0.0,0.0,0.0,0.0,0.0,0.0,0.0,0.0,0.0,0.0,0.0,0.0,0.0,0.0,-2.5146,-2.5397,-2.5715,-2.5893,-2.5893,0.0,0.0,0.0,0.0,0.0,0.0,0.0,0.0,0.0,0.0,0.0,0.0,0.0,0.0,0.0,0.0,0.0,0.0,0.0,0.0,0.0,0.0,0.0,0.0,0.0,0.0,0.0,0.0,0.0,0.0,0.0,0.0,0.0,0.0,0.0,0.0,0.0,0.0,0.0,0.0,0.0,0.0,0.0,0.0,0.0,0.0,0.0,0.0,0.0,0.0,0.0,0.0,0.0,0.0,0.0,0.0,0.0,0.0,0.0,0.0,0.0,0.0,0.0,0.0,0.0,0.0,0.0,0.0,0.0,0.0,0.0,0.0,0.0,0.0,0.0,0.0,0.0,0.0,0.0,0.0,0.0,0.0,0.0,0.0,0.0,0.0,0.0,0.0,0.0,0.0,0.0,0.0,0.0,0.0,0.0,0.0,0.0,0.0,0.0,0.0,0.0,0.0,0.0,0.0,0.0,0.0,0.0,0.0,0.0,0.0,0.0,0.0,-2.5633,-2.5893,-2.5893,0.0,0.0,0.0,0.0,0.0,0.0,0.0,0.0,0.0,0.0,0.0,0.0,0.0,0.0,0.0,0.0,0.0,0.0,0.0,0.0,0.0,0.0,0.0,0.0,0.0,0.0,0.0,0.0,0.0,0.0,0.0,0.0,0.0,0.0,0.0,0.0,0.0,0.0,0.0,0.0,0.0,0.0,0.0,0.0,0.0,0.0,0.0,0.0,0.0,0.0,0.0,0.0,0.0,0.0,0.0,0.0,0.0,0.0,0.0,0.0,0.0,0.0,0.0,0.0,0.0,0.0,0.0,0.0,0.0,0.0,0.0,0.0,0.0,0.0,0.0,0.0,0.0,0.0,0.0,0.0,0.0,0.0,0.0,0.0,0.0,0.0,0.0,0.0,0.0,0.0,0.0,0.0,0.0,0.0,0.0,0.0,0.0,0.0,0.0,0.0,0.0,0.0,0.0,0.0,0.0,0.0,0.0,0.0,0.0,0.0,-2.5811,-2.5797,-2.5866,0.0,-2.5893,0.0,0.0,0.0,0.0,0.0,0.0,0.0,0.0,0.0,0.0,0.0,0.0,0.0,0.0,0.0,0.0,0.0,0.0,0.0,0.0,0.0,0.0,0.0,0.0,0.0,0.0,0.0,0.0,0.0,0.0,0.0,0.0,0.0,0.0,0.0,0.0,0.0,0.0,0.0,0.0,0.0,0.0,0.0,0.0,0.0,0.0,0.0,0.0,0.0,0.0,0.0,0.0,0.0,0.0,0.0,0.0,0.0,0.0,0.0,0.0,0.0,0.0,0.0,0.0,0.0,0.0,0.0,0.0,0.0,0.0,0.0,0.0,0.0,0.0,0.0,0.0,0.0,0.0,0.0,0.0,0.0,0.0,0.0,0.0,0.0,0.0,0.0,0.0,0.0,0.0,0.0,0.0,0.0,0.0,0.0,0.0,0.0,0.0,0.0,0.0,0.0,0.0,0.0,0.0,0.0,0.0,0.0,0.0,0.0,0.0,-2.5893,-2.5893,-2.5893,-2.5893,0.0,0.0,0.0,0.0,0.0,0.0,0.0,0.0,0.0,0.0,0.0,0.0,0.0,0.0,0.0,0.0,0.0,0.0,0.0,0.0,0.0,0.0,0.0,0.0,0.0,0.0,0.0,0.0,0.0,0.0,0.0,0.0,0.0,0.0,0.0,0.0,0.0,0.0,0.0,0.0,0.0,0.0,0.0,0.0,0.0,0.0,0.0,0.0,0.0,0.0,0.0,0.0,0.0,0.0,0.0,0.0,0.0,0.0,0.0,0.0,0.0,0.0,0.0,0.0,0.0,0.0,0.0,0.0,0.0,0.0,0.0,0.0,0.0,0.0,0.0,0.0,0.0,0.0,0.0,0.0,0.0,0.0,0.0,0.0,0.0,0.0,0.0,0.0,0.0,0.0,0.0,0.0,0.0,0.0,0.0,0.0,0.0,0.0,0.0,0.0,0.0,0.0,0.0,0.0,0.0,0.0,0.0,0.0,0.0,0.0,-2.5893,-2.5893,-2.5893,-2.5893,-2.5893,-2.5893,0.0,0.0,0.0,0.0,0.0,0.0,0.0,0.0,0.0,0.0,0.0,0.0,0.0,0.0,0.0,0.0,0.0,0.0,0.0,0.0,0.0,0.0,0.0,0.0,0.0,0.0,0.0,0.0,0.0,0.0,0.0,0.0,0.0,0.0,0.0,0.0,0.0,0.0,0.0,0.0,0.0,0.0,0.0,0.0,0.0,0.0,0.0,0.0,0.0,0.0,0.0,0.0,0.0,0.0,0.0,0.0,0.0,0.0,0.0,0.0,0.0,0.0,0.0,0.0,0.0,0.0,0.0,0.0,0.0,0.0,0.0,0.0,0.0,0.0,0.0,0.0,0.0,0.0,0.0,0.0,0.0,0.0,0.0,0.0,0.0,0.0,0.0,0.0,0.0,0.0,0.0,0.0,0.0,0.0,0.0,0.0,0.0,0.0,0.0,0.0,0.0,0.0,0.0,0.0,0.0,0.0,0.0,0.0,-2.5893,-2.5893,-2.5893,-2.5893,-2.5893,-2.5893,0.0,0.0,0.0,0.0,0.0,0.0,0.0,0.0,0.0,0.0,0.0,0.0,0.0,0.0,0.0,0.0,0.0,0.0,0.0,0.0,0.0,0.0,0.0,0.0,0.0,0.0,0.0,0.0,0.0,0.0,0.0,0.0,0.0,0.0,0.0,0.0,0.0,0.0,0.0,0.0,0.0,0.0,0.0,0.0,0.0,0.0,0.0,0.0,0.0,0.0,0.0,0.0,0.0,0.0,0.0,0.0,0.0,0.0,0.0,0.0,0.0,0.0,0.0,0.0,0.0,0.0,0.0,0.0,0.0,0.0,0.0,0.0,0.0,0.0,0.0,0.0,0.0,0.0,0.0,0.0,0.0,0.0,0.0,0.0,0.0,0.0,0.0,0.0,0.0,0.0,0.0,0.0,0.0,0.0,0.0,0.0,0.0,0.0,0.0,0.0,0.0,0.0,0.0,0.0,0.0,0.0,0.0,0.0,0.0,-2.5893,-2.5893,-2.5893,-2.5893,-2.5893,-2.5893,0.0,0.0,0.0,0.0,0.0,0.0,0.0,0.0,0.0,0.0,0.0,0.0,0.0,0.0,0.0,0.0,0.0,0.0,0.0,0.0,0.0,0.0,0.0,0.0,0.0,0.0,0.0,0.0,0.0,0.0,0.0,0.0,0.0,0.0,0.0,0.0,0.0,0.0,0.0,0.0,0.0,0.0,0.0,0.0,0.0,0.0,0.0,0.0,0.0,0.0,0.0,0.0,0.0,0.0,0.0,0.0,0.0,0.0,0.0,0.0,0.0,0.0,0.0,0.0,0.0,0.0,0.0,0.0,0.0,0.0,0.0,0.0,0.0,0.0,0.0,0.0,0.0,0.0,0.0,0.0,0.0,0.0,0.0,0.0,0.0,0.0,0.0,0.0,0.0,0.0,0.0,0.0,0.0,0.0,0.0,0.0,0.0,0.0,0.0,0.0,0.0,0.0,0.0,0.0,0.0,0.0,0.0,0.0,0.0,-2.5893,0.0,-2.5893,-2.5893,-2.5893,-2.5893,0.0,0.0,0.0,0.0,0.0,0.0,0.0,0.0,0.0,0.0,0.0,0.0,0.0,0.0,0.0,0.0,0.0,0.0,0.0,0.0,0.0,0.0,0.0,0.0,0.0,0.0,0.0,0.0,0.0,0.0,0.0,0.0,0.0,0.0,0.0,0.0,0.0,0.0,0.0,0.0,0.0,0.0,0.0,0.0,0.0,0.0,0.0,0.0,0.0,0.0,0.0,0.0,0.0,0.0,0.0,0.0,0.0,0.0,0.0,0.0,0.0,0.0,0.0,0.0,0.0,0.0,0.0,0.0,0.0,0.0,0.0,0.0,0.0,0.0,0.0,0.0,0.0,0.0,0.0,0.0,0.0,0.0,0.0,0.0,0.0,0.0,0.0,0.0,0.0,0.0,0.0,0.0,0.0,0.0,0.0,0.0,0.0,0.0,0.0,0.0,0.0,0.0,0.0,0.0,0.0,0.0,0.0,0.0,-2.5893,-2.5893,-2.5893,-2.5893,-2.5893,-2.5893,-2.5893,0.0,0.0,0.0,0.0,0.0,0.0,0.0,0.0,0.0,0.0,0.0,0.0,0.0,0.0,0.0,0.0,0.0,0.0,0.0,0.0,0.0,0.0,0.0,0.0,0.0,0.0,0.0,0.0,0.0,0.0,0.0,0.0,0.0,0.0,0.0,0.0,0.0,0.0,0.0,0.0,0.0,0.0,0.0,0.0,0.0,0.0,0.0,0.0,0.0,0.0,0.0,0.0,0.0,0.0,0.0,0.0,0.0,0.0,0.0,0.0,0.0,0.0,0.0,0.0,0.0,0.0,0.0,0.0,0.0,0.0,0.0,0.0,0.0,0.0,0.0,0.0,0.0,0.0,0.0,0.0,0.0,0.0,0.0,0.0,0.0,0.0,0.0,0.0,0.0,0.0,0.0,0.0,0.0,0.0,0.0,0.0,0.0,0.0,0.0,0.0,0.0,0.0,0.0,0.0,0.0,0.0,0.0,0.0,0.0,-2.5893,-2.5893,-2.5893,-2.5893,-2.5893,-2.5893,0.0,0.0,0.0,0.0,0.0,0.0,0.0,0.0,0.0,0.0,0.0,0.0,0.0,0.0,0.0,0.0,0.0,0.0,0.0,0.0,0.0,0.0,0.0,0.0,0.0,0.0,0.0,0.0,0.0,0.0,0.0,0.0,0.0,0.0,0.0,0.0,0.0,0.0,0.0,0.0,0.0,0.0,0.0,0.0,0.0,0.0,0.0,0.0,0.0,0.0,0.0,0.0,0.0,0.0,0.0,0.0,0.0,0.0,0.0,0.0,0.0,0.0,0.0,0.0,0.0,0.0,0.0,0.0,0.0,0.0,0.0,0.0,0.0,0.0,0.0,0.0,0.0,0.0,0.0,0.0,0.0,0.0,0.0,0.0,0.0,0.0,0.0,0.0,0.0,0.0,0.0,0.0,0.0,0.0,0.0,0.0,0.0,0.0,0.0,0.0,0.0,0.0,0.0,0.0,0.0,0.0,0.0,0.0,0.0,-2.5893,-2.5893,-2.5893,-2.5893,-2.5893,-2.5893,-2.5893,0.0,0.0,0.0,0.0,0.0,0.0,0.0,0.0,0.0,0.0,0.0,0.0,0.0,0.0,0.0,0.0,0.0,0.0,0.0,0.0,0.0,0.0,0.0,0.0,0.0,0.0,0.0,0.0,0.0,0.0,0.0,0.0,0.0,0.0,0.0,0.0,0.0,0.0,0.0,0.0,0.0,0.0,0.0,0.0,0.0,0.0,0.0,0.0,0.0,0.0,0.0,0.0,0.0,0.0,0.0,0.0,0.0,0.0,0.0,0.0,0.0,0.0,0.0,0.0,0.0,0.0,0.0,0.0,0.0,0.0,0.0,0.0,0.0,0.0,0.0,0.0,0.0,0.0,0.0,0.0,0.0,0.0,0.0,0.0,0.0,0.0,0.0,0.0,0.0,0.0,0.0,0.0,0.0,0.0,0.0,0.0,0.0,0.0,0.0,0.0,0.0,0.0,0.0,0.0,0.0,0.0,0.0,0.0,-2.5893,-2.5893,-2.5893,-2.5893,-2.5893,-2.5893,0.0,0.0,0.0,0.0,0.0,0.0,0.0,0.0,0.0,0.0,0.0,0.0,0.0,0.0,0.0,0.0,0.0,0.0,0.0,0.0,0.0,0.0,0.0,0.0,0.0,0.0,0.0,0.0,0.0,0.0,0.0,0.0,0.0,0.0,0.0,0.0,0.0,0.0,0.0,0.0,0.0,0.0,0.0,0.0,0.0,0.0,0.0,0.0,0.0,0.0,0.0,0.0,0.0,0.0,0.0,0.0,0.0,0.0,0.0,0.0,0.0,0.0,0.0,0.0,0.0,0.0,0.0,0.0,0.0,0.0,0.0,0.0,0.0,0.0,0.0,0.0,0.0,0.0,0.0,0.0,0.0,0.0,0.0,0.0,0.0,0.0,0.0,0.0,0.0,0.0,0.0,0.0,0.0,0.0,0.0,0.0,0.0,0.0,0.0,0.0,0.0,0.0,0.0,0.0,0.0,0.0,0.0,0.0,0.0,-2.5893,-2.5893,-2.5893,-2.5893,-2.5893,-2.5893,0.0,0.0,0.0,0.0,0.0,0.0,0.0,0.0,0.0,0.0,0.0,0.0,0.0,0.0,0.0,0.0,0.0,0.0,0.0,0.0,0.0,0.0,0.0,0.0,0.0,0.0,0.0,0.0,0.0,0.0,0.0,0.0,0.0,0.0,0.0,0.0,0.0,0.0,0.0,0.0,0.0,0.0,0.0,0.0,0.0,0.0,0.0,0.0,0.0,0.0,0.0,0.0,0.0,0.0,0.0,0.0,0.0,0.0,0.0,0.0,0.0,0.0,0.0,0.0,0.0,0.0,0.0,0.0,0.0,0.0,0.0,0.0,0.0,0.0,0.0,0.0,0.0,0.0,0.0,0.0,0.0,0.0,0.0,0.0,0.0,0.0,0.0,0.0,0.0,0.0,0.0,0.0,0.0,0.0,0.0,0.0,0.0,0.0,0.0,0.0,0.0,0.0,0.0,0.0,0.0,0.0,0.0,0.0,-2.5975,-2.5893,-2.5893,-2.5893,-2.5893,-2.5893,-2.5893,0.0,0.0,0.0,0.0,0.0,0.0,0.0,0.0,0.0,0.0,0.0,0.0,0.0,0.0,0.0,0.0,0.0,0.0,0.0,0.0,0.0,0.0,0.0,0.0,0.0,0.0,0.0,0.0,0.0,0.0,0.0,0.0,0.0,0.0,0.0,0.0,0.0,0.0,0.0,0.0,0.0,0.0,0.0,0.0,0.0,0.0,0.0,0.0,0.0,0.0,0.0,0.0,0.0,0.0,0.0,0.0,0.0,0.0,0.0,0.0,0.0,0.0,0.0,0.0,0.0,0.0,0.0,0.0,0.0,0.0,0.0,0.0,0.0,0.0,0.0,0.0,0.0,0.0,0.0,0.0,0.0,0.0,0.0,0.0,0.0,0.0,0.0,0.0,0.0,0.0,0.0,0.0,0.0,0.0,0.0,0.0,0.0,0.0,0.0,0.0,0.0,0.0,0.0,0.0,0.0,0.0,0.0,0.0,-2.6029,-2.5921,-2.5893,-2.5893,-2.5893,-2.5893,-2.5893,0.0,0.0,0.0,0.0,0.0,0.0,0.0,0.0,0.0,0.0,0.0,0.0,0.0,0.0,0.0,0.0,0.0,0.0,0.0,0.0,0.0,0.0,0.0,0.0,0.0,0.0,0.0,0.0,0.0,0.0,0.0,0.0,0.0,0.0,0.0,0.0,0.0,0.0,0.0,0.0,0.0,0.0,0.0,0.0,0.0,0.0,0.0,0.0,0.0,0.0,0.0,0.0,0.0,0.0,0.0,0.0,0.0,0.0,0.0,0.0,0.0,0.0,0.0,0.0,0.0,0.0,0.0,0.0,0.0,0.0,0.0,0.0,0.0,0.0,0.0,0.0,0.0,0.0,0.0,0.0,0.0,0.0,0.0,0.0,0.0,0.0,0.0,0.0,0.0,0.0,0.0,0.0,0.0,0.0,0.0,0.0,0.0,0.0,0.0,0.0,0.0,0.0,0.0,0.0,0.0,0.0,0.0,0.0,-2.6098,-2.6056,-2.5948,-2.5893,-2.5893,-2.5893,-2.5893,0.0,0.0,0.0,0.0,0.0,0.0,0.0,0.0,0.0,0.0,0.0,0.0,0.0,0.0,0.0,0.0,0.0,0.0,0.0,0.0,0.0,0.0,0.0,0.0,0.0,0.0,0.0,0.0,0.0,0.0,0.0,0.0,0.0,0.0,0.0,0.0,0.0,0.0,0.0,0.0,0.0,0.0,0.0,0.0,0.0,0.0,0.0,0.0,-2.6168,0.0,0.0,0.0,0.0,0.0,0.0,0.0,0.0,0.0,0.0,0.0,0.0,0.0,0.0,0.0,0.0,0.0,0.0,0.0,0.0,0.0,0.0,0.0,0.0,0.0,0.0,0.0,0.0,0.0,0.0,0.0,0.0,0.0,0.0,0.0,0.0,0.0,0.0,0.0,0.0,0.0,0.0,0.0,0.0,0.0,0.0,0.0,0.0,0.0,0.0,0.0,0.0,0.0,0.0,0.0,0.0,0.0,0.0,0.0,-2.6165,-2.6084,-2.5961,-2.6002,-2.6177,-2.5988,-2.5893,0.0,0.0,0.0,0.0,0.0,0.0,0.0,0.0,0.0,0.0,0.0,0.0,0.0,0.0,0.0,0.0,0.0,0.0,0.0,0.0,0.0,0.0,0.0,0.0,0.0,0.0,0.0,0.0,0.0,0.0,0.0,0.0,0.0,0.0,0.0,0.0,0.0,0.0,0.0,0.0,0.0,0.0,0.0,0.0,0.0,0.0,0.0,0.0,0.0,0.0,0.0,0.0,0.0,0.0,0.0,0.0,0.0,0.0,0.0,0.0,0.0,0.0,0.0,0.0,0.0,0.0,0.0,0.0,0.0,0.0,0.0,0.0,0.0,0.0,0.0,0.0,0.0,0.0,0.0,0.0,0.0,0.0,0.0,0.0,0.0,0.0,0.0,0.0,0.0,0.0,0.0,0.0,0.0,0.0,0.0,0.0,0.0,0.0,0.0,0.0,0.0,0.0,0.0,0.0,0.0,0.0,0.0,-2.6445,-2.6272,-2.6165,-2.6002,-2.6096,-2.6431,-2.6069,-2.5893,-2.5921,0.0,0.0,0.0,0.0,0.0,0.0,0.0,0.0,0.0,0.0,0.0,0.0,0.0,0.0,0.0,0.0,0.0,0.0,0.0,0.0,0.0,0.0,0.0,0.0,0.0,0.0,0.0,0.0,0.0,0.0,0.0,0.0,0.0,0.0,0.0,0.0,0.0,0.0,-2.5992,-2.6132,0.0,0.0,0.0,0.0,0.0,0.0,0.0,0.0,-2.6185,0.0,0.0,0.0,0.0,0.0,0.0,0.0,0.0,0.0,0.0,0.0,0.0,0.0,0.0,0.0,0.0,0.0,0.0,0.0,0.0,0.0,0.0,0.0,0.0,0.0,0.0,0.0,0.0,0.0,0.0,0.0,0.0,0.0,0.0,0.0,0.0,0.0,0.0,0.0,0.0,0.0,0.0,0.0,0.0,0.0,0.0,0.0,0.0,0.0,0.0,0.0,0.0,0.0,0.0,0.0,0.0,-2.7338,-2.6759,-2.6457,-2.6431,-2.6192,-2.6084,-2.6165,-2.6002,-2.5948,-2.6056,0.0,0.0,0.0,0.0,0.0,0.0,0.0,0.0,0.0,0.0,0.0,0.0,0.0,0.0,0.0,0.0,0.0,0.0,0.0,0.0,0.0,0.0,0.0,0.0,0.0,0.0,0.0,0.0,0.0,0.0,0.0,0.0,0.0,0.0,0.0,0.0,0.0,0.0,0.0,-2.6185,-2.6185,0.0,0.0,0.0,0.0,0.0,0.0,0.0,0.0,-2.6185,0.0,0.0,0.0,0.0,0.0,0.0,0.0,0.0,0.0,0.0,0.0,0.0,0.0,0.0,0.0,0.0,0.0,0.0,0.0,0.0,0.0,0.0,0.0,0.0,0.0,0.0,0.0,0.0,0.0,0.0,0.0,0.0,0.0,0.0,0.0,0.0,0.0,0.0,0.0,0.0,0.0,0.0,0.0,0.0,0.0,0.0,0.0,0.0,0.0,0.0,0.0,0.0,0.0,0.0,0.0,-2.71,-2.6657,-2.6445,-2.6484,-2.6285,-2.6272,-2.6392,-2.6165,-2.6192,0.0,0.0,0.0,0.0,0.0,0.0,0.0,0.0,0.0,0.0,0.0,0.0,0.0,0.0,0.0,0.0,0.0,0.0,0.0,0.0,0.0,0.0,0.0,0.0,0.0,0.0,0.0,0.0,0.0,0.0,0.0,0.0,0.0,0.0,0.0,0.0,0.0,0.0,0.0,0.0,-2.6785,-2.6899,-2.728,0.0,0.0,0.0,0.0,0.0,0.0,-2.7346,-2.733,0.0,0.0,0.0,0.0,0.0,0.0,0.0,0.0,0.0,0.0,0.0,0.0,0.0,0.0,0.0,0.0,0.0,0.0,0.0,0.0,0.0,0.0,0.0,0.0,0.0,0.0,0.0,0.0,0.0,0.0,0.0,0.0,0.0,0.0,0.0,0.0,0.0,0.0,0.0,0.0,0.0,0.0,0.0,0.0,0.0,0.0,0.0,0.0,0.0,0.0,0.0,0.0,0.0,0.0,0.0,-2.6779,-2.6541,-2.6433,-2.6551,-2.6392,-2.6433,-2.6657,-2.6285,-2.6353,0.0,0.0,0.0,0.0,0.0,0.0,0.0,0.0,0.0,0.0,0.0,0.0,0.0,0.0,0.0,0.0,0.0,0.0,0.0,0.0,0.0,0.0,0.0,0.0,0.0,0.0,0.0,0.0,0.0,0.0,0.0,0.0,0.0,0.0,0.0,0.0,0.0,0.0,0.0,0.0,0.0,-2.7746,-2.831,-2.8409,0.0,0.0,0.0,0.0,-2.8409,-2.8409,0.0,0.0,0.0,0.0,0.0,0.0,0.0,0.0,0.0,0.0,0.0,0.0,0.0,0.0,0.0,0.0,0.0,0.0,0.0,0.0,0.0,0.0,0.0,0.0,0.0,0.0,0.0,0.0,0.0,0.0,0.0,0.0,0.0,0.0,0.0,0.0,0.0,0.0,0.0,0.0,0.0,0.0,0.0,0.0,0.0,0.0,0.0,0.0,0.0,0.0,0.0,0.0,0.0,0.0,0.0,0.0,-2.6794,-2.6753,-2.6738,-2.6753,-2.6592,-2.6484,-2.6537,-2.6231,-2.6245,0.0,0.0,0.0,0.0,0.0,0.0,0.0,0.0,0.0,0.0,0.0,0.0,0.0,0.0,0.0,0.0,0.0,0.0,0.0,0.0,0.0,0.0,0.0,0.0,0.0,0.0,0.0,0.0,0.0,0.0,0.0,0.0,0.0,0.0,0.0,0.0,0.0,0.0,0.0,0.0,0.0,-2.8293,-2.8392,-2.8409,-2.8409,0.0,0.0,-2.8409,-2.8409,-2.8409,0.0,0.0,0.0,0.0,0.0,0.0,0.0,0.0,0.0,0.0,0.0,0.0,0.0,0.0,0.0,0.0,0.0,0.0,0.0,0.0,0.0,0.0,0.0,0.0,0.0,0.0,0.0,0.0,0.0,0.0,0.0,0.0,0.0,0.0,0.0,0.0,0.0,0.0,0.0,0.0,0.0,0.0,0.0,0.0,0.0,0.0,0.0,0.0,0.0,0.0,0.0,0.0,0.0,0.0,0.0,-2.6686,-2.6794,-2.6671,-2.6671,-2.6779,-2.6712,-2.6618,-2.6496,-2.6377,-2.6392,0.0,0.0,0.0,0.0,0.0,0.0,0.0,0.0,0.0,0.0,0.0,0.0,0.0,0.0,0.0,0.0,0.0,0.0,0.0,0.0,0.0,0.0,0.0,0.0,0.0,0.0,0.0,0.0,0.0,0.0,0.0,0.0,0.0,0.0,0.0,0.0,0.0,0.0,0.0,0.0,0.0,0.0,-2.9533,-2.9582,0.0,0.0,0.0,-2.9599,-2.9599,0.0,0.0,0.0,0.0,0.0,0.0,0.0,0.0,0.0,0.0,0.0,0.0,0.0,0.0,0.0,0.0,0.0,0.0,0.0,0.0,0.0,0.0,0.0,0.0,0.0,0.0,0.0,0.0,0.0,0.0,0.0,0.0,0.0,0.0,0.0,0.0,0.0,0.0,0.0,0.0,0.0,0.0,0.0,0.0,0.0,0.0,0.0,0.0,0.0,0.0,0.0,0.0,0.0,0.0,0.0,0.0,0.0,-2.6794,-2.6645,-2.6618,-2.6712,-2.6779,-2.6712,-2.651,-2.6457,0.0,0.0,0.0,0.0,0.0,0.0,0.0,0.0,0.0,0.0,0.0,0.0,0.0,0.0,0.0,0.0,0.0,0.0,0.0,0.0,0.0,0.0,0.0,0.0,0.0,0.0,0.0,-2.6844,0.0,0.0,0.0,0.0,0.0,0.0,0.0,0.0,0.0,0.0,0.0,0.0,0.0,0.0,-2.9877,-3.0423,-3.0489,-3.0489,0.0,0.0,-3.0489,-3.0489,-3.0489,-3.0489,0.0,0.0,0.0,0.0,0.0,0.0,0.0,0.0,0.0,0.0,0.0,0.0,0.0,0.0,0.0,0.0,0.0,0.0,0.0,0.0,0.0,0.0,0.0,0.0,0.0,0.0,0.0,0.0,0.0,0.0,0.0,0.0,0.0,0.0,0.0,0.0,0.0,0.0,0.0,0.0,0.0,0.0,0.0,0.0,0.0,0.0,0.0,0.0,0.0,0.0,0.0,0.0,0.0,0.0,0.0,-2.6794,-2.6779,-2.6712,-2.6537,-2.6712,-2.6712,-2.651,-2.6365,-2.6447,0.0,0.0,0.0,0.0,0.0,0.0,0.0,0.0,0.0,0.0,0.0,0.0,0.0,0.0,0.0,0.0,0.0,0.0,0.0,0.0,0.0,0.0,0.0,0.0,0.0,0.0,0.0,0.0,0.0,0.0,0.0,0.0,0.0,0.0,0.0,0.0,0.0,0.0,0.0,0.0,0.0,-3.0423,-3.0489,-3.0489,-3.0489,0.0,0.0,-3.0489,-3.0489,-3.0489,-3.0489,-3.0489,0.0,0.0,0.0,0.0,0.0,0.0,0.0,0.0,0.0,0.0,0.0,0.0,0.0,0.0,0.0,0.0,0.0,0.0,0.0,0.0,0.0,0.0,0.0,0.0,0.0,0.0,0.0,0.0,0.0,0.0,0.0,0.0,0.0,0.0,0.0,0.0,0.0,0.0,0.0,0.0,0.0,0.0,0.0,0.0,0.0,0.0,0.0,0.0,0.0,0.0,0.0,0.0,0.0,-2.6794,-2.6794,-2.6794,-2.6738,-2.6686,-2.6753,-2.6712,-2.6496,-2.658,-2.6606,0.0,0.0,0.0,0.0,0.0,0.0,0.0,0.0,0.0,0.0,0.0,0.0,0.0,0.0,0.0,0.0,0.0,0.0,0.0,0.0,0.0,0.0,0.0,0.0,0.0,0.0,0.0,0.0,-2.8942,-2.9286,-2.951,0.0,0.0,0.0,0.0,0.0,0.0,0.0,0.0,0.0,0.0,-3.0489,-3.0489,-3.0489,0.0,0.0,-3.0489,-3.0489,-3.0489,-3.0489,-3.0489,-3.0489,-3.0489,0.0,0.0,0.0,0.0,0.0,0.0,0.0,0.0,0.0,0.0,0.0,0.0,0.0,0.0,0.0,0.0,0.0,0.0,0.0,0.0,0.0,0.0,0.0,0.0,0.0,0.0,0.0,0.0,0.0,0.0,0.0,0.0,0.0,0.0,0.0,0.0,0.0,0.0,0.0,0.0,0.0,0.0,0.0,0.0,0.0,0.0,0.0,0.0,0.0,0.0,0.0,0.0,-2.6907,-2.7055,-2.707,-2.7028,-2.7002,-2.7043,-2.6975,-2.6798,-2.6746,-2.6645,0.0,0.0,0.0,0.0,0.0,0.0,0.0,0.0,0.0,0.0,0.0,0.0,0.0,0.0,0.0,0.0,0.0,0.0,0.0,0.0,0.0,0.0,0.0,0.0,0.0,0.0,0.0,0.0,-2.9804,-3.021,-3.0401,0.0,0.0,0.0,0.0,0.0,0.0,0.0,0.0,0.0,0.0,-3.0489,-3.0489,-3.0489,-3.0489,-3.0489,-3.0489,-3.0489,-3.0489,-3.0489,-3.0489,-3.0489,0.0,0.0,0.0,0.0,0.0,0.0,0.0,0.0,0.0,0.0,0.0,0.0,0.0,0.0,0.0,0.0,0.0,0.0,0.0,0.0,0.0,0.0,0.0,0.0,0.0,0.0,0.0,0.0,0.0,0.0,-2.5893,0.0,0.0,0.0,0.0,0.0,0.0,0.0,0.0,0.0,0.0,0.0,0.0,0.0,0.0,0.0,0.0,0.0,0.0,0.0,0.0,0.0,0.0,-2.7113,-2.7666,-2.7695,-2.7626,-2.7517,-2.7626,-2.7626,-2.7461,-2.6856,-2.6525,-2.6496,0.0,0.0,0.0,0.0,0.0,0.0,0.0,0.0,0.0,0.0,0.0,0.0,0.0,0.0,0.0,0.0,0.0,0.0,0.0,0.0,0.0,0.0,0.0,0.0,0.0,0.0,-2.9962,-3.0215,-3.0417,0.0,0.0,0.0,0.0,0.0,0.0,0.0,0.0,0.0,0.0,-3.0489,-3.0489,-3.0489,-3.0489,-3.0489,-3.0489,-3.0489,-3.0489,-3.0489,-3.0489,-3.0489,0.0,0.0,0.0,0.0,0.0,0.0,0.0,0.0,0.0,0.0,0.0,0.0,0.0,0.0,0.0,0.0,0.0,0.0,0.0,0.0,0.0,0.0,0.0,0.0,0.0,0.0,0.0,-2.5893,-2.5893,0.0,0.0,0.0,0.0,0.0,0.0,0.0,0.0,0.0,0.0,0.0,-2.6313,-2.6206,0.0,0.0,0.0,0.0,0.0,0.0,0.0,0.0,0.0,0.0,0.0,0.0,-2.8144,-2.8347,-2.8361,-2.8333,-2.8306,-2.8348,-2.8306,-2.8151,-2.7614,-2.7052,-2.651,0.0,0.0,0.0,0.0,0.0,0.0,0.0,0.0,0.0,0.0,0.0,0.0,0.0,0.0,0.0,0.0,0.0,0.0,0.0,0.0,0.0,0.0,0.0,0.0,0.0,-3.0162,0.0,0.0,0.0,0.0,0.0,0.0,0.0,0.0,0.0,0.0,0.0,-3.0489,-3.0489,-3.0489,-3.0489,-3.0489,-3.0489,-3.0489,0.0,0.0,0.0,0.0,0.0,0.0,0.0,0.0,0.0,0.0,0.0,0.0,0.0,0.0,-3.0325,-3.0466,-3.0421,-3.0388,-3.0446,0.0,0.0,0.0,0.0,0.0,0.0,0.0,0.0,0.0,0.0,0.0,0.0,0.0,0.0,0.0,0.0,-2.5893,0.0,0.0,0.0,0.0,0.0,0.0,0.0,0.0,-2.6272,-2.6454,-2.6804,-2.6721,-2.6721,0.0,-2.7341,-2.7411,0.0,0.0,0.0,0.0,0.0,0.0,0.0,0.0,-2.8825,-2.8985,-2.9015,-2.9015,-2.9015,-2.9015,-2.8971,-2.8871,-2.8307,-2.7642,-2.6938,-2.6992,-2.6997,0.0,0.0,0.0,0.0,0.0,0.0,0.0,0.0,0.0,0.0,0.0,0.0,0.0,0.0,0.0,0.0,0.0,0.0,0.0,0.0,0.0,0.0,0.0,-3.0189,0.0,0.0,0.0,0.0,0.0,0.0,0.0,0.0,0.0,-3.0489,-3.0489,-3.0489,-3.0489,-3.0489,-3.0489,-3.0489,0.0,0.0,0.0,0.0,0.0,0.0,0.0,-3.0489,-3.0489,-3.0489,-3.0489,-3.0489,-3.0589,-3.0651,-3.0692,0.0,0.0,-3.0915,-3.1035,-3.1151,-3.119,-3.0818,-3.048,-3.048,-3.0263,-3.0349,0.0,0.0,0.0,0.0,0.0,0.0,0.0,0.0,-2.6231,-2.5992,0.0,-2.6006,0.0,0.0,0.0,0.0,0.0,-2.6891,0.0,0.0,-2.6891,-2.7172,-2.7763,-2.7777,-2.7791,-2.7805,-2.8082,-2.8154,-2.8023,-2.8182,0.0,0.0,0.0,0.0,0.0,0.0,-2.9044,-2.9595,-2.9624,-2.9624,-2.9624,-2.9624,-2.961,-2.9566,-2.89,-2.8279,-2.7741,-2.7586,-2.7297,-2.6852,-2.6808,0.0,0.0,0.0,0.0,0.0,0.0,0.0,0.0,0.0,0.0,0.0,0.0,0.0,0.0,0.0,0.0,0.0,0.0,0.0,0.0,-3.0017,0.0,0.0,0.0,0.0,0.0,0.0,0.0,0.0,0.0,0.0,-3.0489,-3.0489,-3.0489,-3.0489,0.0,0.0,0.0,0.0,-3.0489,-3.0489,-3.0489,-3.0489,-3.0489,-3.0489,-3.0489,-3.0489,0.0,0.0,-3.0489,-3.0712,-3.0851,-3.0749,-3.0972,-3.1151,-3.1052,-3.0995,-3.1072,-3.1171,-3.1157,-3.1173,-3.1173,-3.1131,-3.1249,-2.8563,0.0,0.0,0.0,0.0,-2.7608,-2.7495,-2.7495,-2.7326,-2.7271,-2.7242,-2.7242,0.0,0.0,0.0,0.0,0.0,0.0,-2.7524,-2.7553,-2.7524,-2.7622,-2.7805,-2.7805,-2.7805,-2.7819,-2.833,-2.8542,-2.8524,-2.8963,-2.9162,-2.9131,0.0,0.0,0.0,0.0,-3.0058,-3.0084,-3.0232,-3.0336,-3.0292,-3.0292,-3.0074,-2.961,-2.9392,-2.8972,-2.8322,-2.7887,-2.7541,-2.7312,-2.6958,0.0,0.0,0.0,0.0,0.0,0.0,0.0,0.0,0.0,0.0,0.0,0.0,0.0,0.0,0.0,0.0,0.0,0.0,0.0,-3.0359,-3.0316,-3.0338,0.0,0.0,0.0,0.0,0.0,0.0,0.0,0.0,0.0,-3.0489,-3.0489,-3.0489,0.0,0.0,-3.0489,-3.0489,-3.0489,-3.0489,-3.0489,0.0,0.0,0.0,-3.0489,-3.0489,-3.0489,-3.0489,-3.0489,-3.0489,-3.0568,-3.0671,-3.0814,-3.0912,-3.1012,-3.1131,-3.1151,-3.1171,-3.119,-3.119,-3.119,-3.121,-3.137,-3.1564,-2.9167,-2.8507,-2.8493,-2.8507,-2.8478,-2.8269,-2.8157,-2.8113,-2.7904,-2.7805,-2.7805,-2.7805,-2.7932,-2.8155,-2.8424,0.0,0.0,0.0,-2.8171,-2.8171,-2.8141,-2.8298,-2.8507,-2.8493,-2.8507,-2.8521,-2.8919,-2.9102,-2.9069,-2.9543,-2.9728,-2.9555,0.0,0.0,-3.0296,-3.0417,-3.0447,-3.0417,-3.0538,-3.0612,-3.0612,-3.0612,-3.0423,-3.0031,-3.0001,-2.9668,-2.8944,-2.8639,-2.819,-2.7615,-2.7321,-2.7041,0.0,0.0,0.0,0.0,0.0,0.0,0.0,0.0,0.0,0.0,0.0,-2.9665,0.0,0.0,0.0,0.0,-3.0162,-3.0359,-3.0464,-3.0438,0.0,0.0,0.0,0.0,0.0,0.0,0.0,-3.0489,-3.0489,-3.0489,-3.0489,-3.0489,-3.0489,-3.0489,-3.0489,-3.0489,-3.0489,0.0,-3.0489,-3.0489,-3.0489,-3.0489,-3.0489,-3.0489,-3.0489,-3.0489,-3.0489,-3.0489,-3.0489,-3.0589,-3.0712,-3.0871,-3.0972,-3.1052,-3.1188,-3.119,-3.119,-3.119,-3.119,-3.119,-3.119,-3.1351,-3.1506,-2.9726,-2.9757,-2.9701,-2.9645,-2.9546,-2.9012,-2.8759,-2.8717,-2.8185,-2.7946,-2.7946,-2.7917,-2.8269,-2.8788,-2.9364,0.0,-2.8759,-2.8759,-2.8774,-2.8774,-2.8774,-2.9055,-2.9588,-2.9602,-2.9602,-2.9602,-2.973,-2.9699,-2.9634,-2.9927,-2.996,-2.9777,-2.9777,-2.9962,-3.0266,-3.0296,-3.0417,-3.0582,-3.0568,-3.0612,-3.0612,-3.0612,-3.0612,-3.0598,-3.0612,-3.0322,-2.9697,-2.961,-2.9058,-2.7927,-2.7753,-2.7461,-2.6974,0.0,0.0,0.0,0.0,0.0,0.0,0.0,0.0,0.0,0.0,0.0,0.0,0.0,0.0,0.0,-3.0124,0.0,-3.038,-3.0401,0.0,0.0,0.0,-3.0489,-3.0489,-3.0489,-3.0489,-3.0489,0.0,0.0,-3.0489,0.0,-3.0489,-3.0489,-3.0489,-3.0489,-3.0489,-3.0489,-3.0489,-3.0489,-3.0489,-3.0489,-3.0489,-3.0489,-3.0489,-3.0489,-3.0489,-3.0489,-3.051,-3.0692,-3.0855,-3.0912,-3.1052,-3.119,-3.119,-3.119,-3.119,-3.119,-3.119,-3.119,-3.119,-3.121,-3.123,-3.1036,-3.0993,-3.0516,-3.0006,-2.9602,-2.9462,-2.9378,-2.9378,-2.9251,-2.9167,-2.9167,-2.9167,-2.9251,-2.9406,-2.9546,-2.9532,-2.9392,-2.9392,-2.9378,-2.9392,-2.9392,-2.9476,-2.9602,-2.9602,-2.9602,-2.9602,-2.9634,-2.9634,-2.9602,-2.9665,-2.9696,-2.9651,-2.9761,-2.9915,-3.0142,-3.0401,-3.0477,-3.0387,-3.0507,-3.0612,-3.0612,-3.0612,-3.0612,-3.0612,-3.0612,-3.0539,-3.035,-2.9885,-2.945,-2.9131,-2.8217,-2.7813,-2.8088,-2.7722,0.0,0.0,0.0,0.0,0.0,0.0,0.0,0.0,0.0,-2.9842,-2.9951,0.0,-3.0227,0.0,-3.021,-3.038,-3.0464,-3.0485,0.0,0.0,-3.0489,-3.0489,-3.0489,-3.0489,-3.0489,-3.0489,-3.0489,-3.0489,-3.0489,-3.0489,-3.0489,-3.0489,-3.0489,-3.0489,-3.0489,-3.0489,-3.0489,-3.0489,-3.0489,-3.0489,-3.0489,-3.0489,-3.0489,-3.0489,-3.0489,-3.051,-3.0613,-3.0692,-3.081,-3.0952,-3.1015,-3.1075,-3.119,-3.119,-3.119,-3.119,-3.119,-3.119,-3.119,-3.119,-3.119,-3.1485,-3.1457,-3.1092,-3.0755,-3.0389,-2.9841,-2.9602,-2.9602,-2.9602,-2.9602,-2.9602,-2.9602,-2.9602,-2.9602,-2.9602,-2.9602,-2.9602,-2.9602,-2.9602,-2.9617,-2.9897,-3.001,-2.9992,-3.0319,-3.0445,-3.0445,-3.0445,-3.0459,-3.0445,-3.0445,-3.0445,-3.0445,-3.034,-3.0293,-3.0418,-3.0454,-3.0447,-3.0447,-3.0538,-3.0612,-3.0612,-3.0612,-3.0612,-3.0612,-3.0612,-3.0612,-3.0612,-3.0219,-2.9914,-2.961,-2.8913,-2.8414,-2.8154,-2.825,-2.8431,0.0,0.0,0.0,0.0,0.0,0.0,0.0,0.0,0.0,0.0,0.0,-3.0274,0.0,-3.0316,-3.0422,-3.0489,-3.0489,-3.0489,-3.0489,-3.0489,-3.0489,-3.0489,-3.0489,-3.0489,-3.0489,-3.0489,-3.0489,-3.0489,-3.0489,-3.0489,-3.0489,-3.0489,-3.0489,-3.0489,-3.0489,-3.0489,-3.0489,-3.0489,-3.0489,-3.0489,-3.0489,-3.0489,-3.0489,-3.0489,-3.0526,-3.0593,-3.0712,-3.0831,-3.0935,-3.1015,-3.1112,-3.1188,-3.119,-3.119,-3.119,-3.119,-3.119,-3.119,-3.119,-3.119,-3.1808,-3.1724,-3.164,-3.1612,-3.1513,-3.0347,-2.9841,-2.9855,-2.9841,-2.9855,-2.9841,-2.9855,-2.9855,-2.9855,-2.9841,-2.9855,-2.9841,-2.9841,-2.9841,-2.9883,-3.0403,-3.0624,-3.067,-3.1232,-3.1485,-3.1485,-3.1485,-3.1485,-3.1485,-3.1485,-3.1485,-3.1457,-3.1118,-3.0899,-3.0903,-3.0628,-3.0515,-3.0582,-3.0568,-3.0582,-3.0612,-3.0612,-3.0612,-3.0612,-3.0612,-3.0612,-3.0612,-3.0612,-3.0321,-2.9784,-2.9668,-2.9116,-2.811,-2.8715,-2.8924,0.0,-2.8842,0.0,0.0,0.0,0.0,0.0,0.0,0.0,0.0,-3.0146,-3.0295,-3.0485,-3.0443,-3.0422,-3.0489,-3.0489,-3.0489,-3.0489,-3.0489,-3.0489,-3.0489,-3.0489,-3.0489,-3.0489,-3.0489,-3.0489,-3.0489,-3.0489,-3.0489,-3.0489,-3.0489,-3.0489,-3.0489,-3.0489,-3.0489,-3.0489,-3.0489,-3.0489,-3.0489,-3.0489,-3.0489,-3.0489,-3.0489,-3.0489,-3.0568,-3.0733,-3.0912,-3.0952,-3.1092,-3.119,-3.119,-3.119,-3.119,-3.119,-3.119,-3.119,-3.119,-3.119,-3.119,-3.3389,-3.2932,-3.244,-3.223,-3.2174,-3.1443,-3.1134,-3.1134,-3.1148,-3.1134,-3.1134,-3.1134,-3.1148,-3.1134,-3.1134,-3.1134,-3.1134,-3.1134,-3.1134,-3.1134,-3.126,-3.1302,-3.1316,-3.1443,-3.1485,-3.1485,-3.1485,-3.1485,-3.1485,-3.1485,-3.1485,-3.1485,-3.1509,-3.1537,-3.1523,0.0,0.0,0.0,-3.0357,-3.0447,-3.0598,-3.0612,-3.0612,-3.0612,-3.0612,0.0,-3.0612,-3.0612,-3.0554,-3.0409,-2.99,0.0,0.0,0.0,0.0,0.0,0.0,0.0,0.0,0.0,0.0,0.0,-2.9968,-3.0038,-3.0162,-3.0274,-3.0401,-3.0485,-3.0489,-3.0506,-3.0489,-3.0489,-3.0489,-3.0489,-3.0489,-3.0489,-3.0489,-3.0489,-3.0489,-3.0489,-3.0489,-3.0489,-3.0489,-3.0489,-3.0489,-3.0489,-3.0489,-3.0489,-3.0489,-3.0489,-3.0489,-3.0489,-3.0489,-3.0489,-3.0489,-3.0489,-3.0489,-3.0489,-3.0489,-3.0551,-3.077,-3.0834,-3.0955,-3.1092,-3.1188,-3.119,-3.119,-3.119,-3.119,-3.119,-3.119,-3.119,-3.119,-3.119,-3.119,-3.4492,0.0,-3.3888,-3.3797,0.0,-3.3473,-3.3333,-3.3248,-3.2039,-3.1485,-3.1485,-3.1485,-3.1485,-3.1485,-3.1485,-3.1485,-3.1485,-3.1485,-3.1485,-3.1499,-3.1794,-3.1935,-3.1949,-3.2244,-3.2398,-3.2398,-3.2398,-3.2398,-3.2398,-3.2398,-3.2384,-3.2398,-3.2143,-3.2055,-3.2041,-3.191,-3.1479,-3.0816,-3.0801,-3.0749,-3.0627,-3.0612,-3.0612,-3.0612,0.0,0.0,0.0,0.0,0.0,0.0,0.0,0.0,0.0,0.0,0.0,-2.924,-2.8962,-2.8892,-2.9121,-2.9387,-2.9538,-2.9515,-2.987,-3.0141,-3.0189,-3.0359,-3.048,-3.0489,-3.0489,-3.0489,-3.0489,-3.0489,-3.0489,-3.0489,-3.0489,-3.0489,-3.0489,-3.0489,-3.0489,-3.0489,-3.0489,-3.0489,-3.0489,-3.0489,-3.0489,-3.0489,-3.0489,-3.0489,-3.0489,-3.0489,-3.0489,-3.0489,-3.0489,-3.0489,-3.0489,-3.0489,-3.0489,-3.0489,-3.0489,-3.0568,-3.0671,-3.0814,-3.0932,-3.1032,-3.1131,-3.119,-3.119,-3.119,-3.119,-3.119,-3.119,-3.119,-3.119,-3.119,-3.119,-3.5302,-3.5189,-3.5189,-3.5189,-3.5189,-3.5189,-3.5189,-3.5048,0.0,0.0,0.0,-3.1977,-3.1921,-3.1822,-3.1822,-3.1822,-3.1822,-3.1808,-3.1822,-3.1836,-3.2342,-3.2567,-3.2595,-3.3038,-3.3276,-3.3276,-3.3276,-3.3276,-3.3276,-3.3276,-3.3276,-3.3248,-3.282,-3.2567,-3.2539,-3.2168,-3.1848,-3.1539,-3.149,-3.124,-3.0801,-3.0772,-3.0714,-3.0612,-3.0612,-3.0612,-3.0612,-3.0612,-3.0612,-3.0612,-3.0612,-3.0335,-2.9827,-3.0101,-2.982,-2.8954,-2.9056,-2.9005,-2.864,-2.8818,-2.8958,-2.8943,-2.9633,-3.0081,-3.0189,-3.038,-3.0489,-3.0489,-3.0489,-3.0489,-3.0489,-3.0489,-3.0489,-3.0489,-3.0489,-3.0489,-3.0489,-3.0489,-3.0489,-3.0489,-3.0489,-3.0489,-3.0489,-3.0489,-3.0489,-3.0489,-3.0489,-3.0489,-3.0489,-3.0489,-3.0489,-3.0489,-3.0489,-3.0489,-3.0489,-3.0489,-3.0489,-3.0489,-3.0489,-3.051,-3.0568,-3.0712,-3.0855,-3.0915,-3.1072,-3.1151,-3.119,-3.119,-3.119,-3.119,-3.119,-3.119,-3.119,-3.119,-3.119,-3.5681,-3.5189,-3.5189,-3.5189,-3.5189,-3.5189,-3.5189,-3.5161,-3.4809,-3.4351,-3.3824,-3.381,-3.3529,-3.3024,-3.3073,-3.3059,-3.3073,-3.3038,-3.3038,0.0,-3.3108,-3.315,-3.3164,-3.3248,-3.3276,-3.3276,-3.329,-3.3276,-3.3276,-3.329,-3.3276,-3.3276,-3.3206,-3.315,-3.315,-3.3101,-3.2839,-3.2406,-3.2256,-3.1905,-3.1379,-3.138,-3.1119,-3.0641,-3.0612,-3.0612,-3.0612,-3.0612,-3.0612,-3.0612,-3.0612,-3.0554,-3.0467,-3.0002,-2.9839,-3.0054,-2.916,-2.8936,-2.9656,-2.8926,-2.8408,-2.8432,-2.9044,-2.9643,-3.0162,-3.038,-3.0489,-3.0489,-3.0489,-3.0489,-3.0489,-3.0489,-3.0489,-3.0489,-3.0489,-3.0489,-3.0489,-3.0489,-3.0489,-3.0489,-3.0489,-3.0489,-3.0489,-3.0489,-3.0489,-3.0489,-3.0489,-3.0489,-3.0489,-3.0489,-3.0489,-3.0489,-3.0489,-3.0489,-3.0489,-3.0489,-3.0489,-3.0489,-3.0489,-3.0547,-3.063,-3.0692,-3.081,-3.0935,-3.1032,-3.1072,-3.1171,-3.119,-3.119,-3.119,-3.119,-3.119,-3.119,-3.119,-3.119,-3.6441,-3.6188,-3.6188,-3.6174,-3.6188,-3.6188,-3.6188,-3.6188,-3.6188,-3.5616,-3.4773,-3.4745,-3.4612,-3.4323,-3.4309,-3.4309,-3.4309,-3.4309,-3.4345,-3.4323,-3.4323,-3.4309,-3.4323,-3.4309,-3.4345,-3.4323,-3.4309,-3.4309,-3.4295,-3.395,-3.3782,-3.3754,-3.3459,-3.3276,-3.3312,-3.3431,-3.3345,-3.3152,-3.2811,-3.2378,-3.1873,-3.1652,-3.138,-3.109,-3.0786,-3.0612,-3.0612,-3.0612,-3.0612,-3.0612,-3.0612,-3.0612,-3.0598,-3.0292,-3.009,-2.9971,-2.9441,-2.8983,-2.8755,-2.8452,-2.8448,-2.8709,-2.9159,-2.9515,-2.9798,-3.0194,-3.0464,-3.0489,-3.0489,-3.0489,-3.0489,-3.0489,-3.0489,-3.0489,-3.0489,-3.0489,-3.0489,-3.0489,-3.0489,-3.0489,-3.0489,-3.0489,-3.0489,-3.0489,-3.0489,-3.0489,-3.0489,-3.0489,-3.0489,-3.0489,-3.0489,-3.0489,-3.0489,-3.0489,-3.0489,-3.0489,-3.0489,-3.0489,-3.0489,-3.0526,-3.0572,-3.063,-3.0753,-3.0895,-3.0955,-3.1055,-3.1171,-3.119,-3.119,-3.119,-3.119,-3.119,-3.119,-3.119,-3.119,-3.7189,-3.7189,-3.7035,-3.6978,-3.6978,-3.6978,-3.6978,-3.6978,-3.6964,-3.6483,-3.5667,-3.547,-3.533,-3.5189,-3.5189,-3.5189,-3.5189,-3.5189,-3.5189,-3.5189,-3.5189,-3.5189,-3.5189,-3.5189,-3.5189,-3.5189,-3.5189,-3.5189,-3.5133,-3.466,-3.4329,-3.4175,-3.374,-3.3417,-3.329,-3.3466,-3.3536,-3.3507,-3.3212,-3.2859,-3.2439,-3.2127,-3.1872,-3.1683,-3.1119,-3.0816,-3.0785,-3.067,-3.0612,-3.0612,-3.0612,-3.0612,-3.0612,-3.0612,-3.038,-2.99,-2.9668,-2.9044,-2.7881,-2.809,-2.8458,-2.8724,-2.8958,-2.9205,-2.9477,-2.9826,-3.0151,-3.0305,-3.0443,-3.0489,-3.0489,-3.0489,-3.0489,-3.0489,-3.0489,-3.0489,-3.0489,-3.0489,-3.0489,-3.0489,-3.0489,-3.0489,-3.0489,-3.0489,-3.0489,-3.0489,-3.0489,-3.0489,-3.0489,-3.0489,-3.0489,-3.0489,-3.0489,-3.0489,-3.0489,-3.0489,-3.0489,-3.0489,-3.0489,-3.0489,-3.051,-3.0589,-3.0692,-3.0814,-3.0915,-3.0995,-3.1114,-3.119,-3.119,-3.119,-3.119,-3.119,-3.119,-3.119,-3.119,-3.7821,-3.7723,-3.7259,-3.6978,-3.7007,-3.7007,-3.7007,-3.6978,-3.6978,-3.6936,-3.675,-3.6272,-3.5723,-3.5231,-3.5231,-3.5259,-3.5245,-3.5203,-3.5231,-3.5245,-3.5189,-3.5189,-3.5259,-3.5231,-3.5189,-3.5231,-3.5259,-3.5302,-3.5302,-3.5161,-3.4801,-3.4273,-3.4133,-3.3824,-3.3375,-3.3326,-3.3326,-3.3326,-3.3479,-3.338,-3.3134,-3.3245,-3.3021,-3.2425,-3.1741,-3.1438,-3.138,-3.0903,-3.0612,-3.0612,-3.0612,-3.0612,-3.0612,-3.0612,-3.0583,-3.0496,-2.9929,-2.9044,-2.7924,-2.8187,-2.8265,-2.774,-2.7915,-2.8414,-2.9273,-2.9198,-2.9296,-2.9788,-3.0258,-3.0405,-3.0489,-3.0485,-3.0485,-3.0489,-3.0489,-3.0489,-3.0489,-3.0489,-3.0489,-3.0489,-3.0489,-3.0489,-3.0489,-3.0489,-3.0489,-3.0489,-3.0489,-3.0489,-3.0489,-3.0489,-3.0489,-3.0489,-3.0489,-3.0489,-3.0489,-3.0489,-3.0489,-3.0489,-3.0489,-3.0489,-3.0489,-3.051,-3.0568,-3.0733,-3.0834,-3.0952,-3.1032,-3.1112,-3.119,-3.119,-3.119,-3.119,-3.119,-3.119,-3.119,-3.8508,-3.8494,-3.8241,-3.7878,-3.7555,-3.7526,-3.7316,-3.6993,-3.6978,-3.6978,-3.695,-3.6712,-3.6511,-3.6272,-3.6286,-3.6272,-3.6272,-3.6286,-3.6272,-3.6234,-3.6272,-3.6234,-3.6272,-3.6272,-3.6272,-3.6272,-3.6286,-3.6286,-3.6216,-3.592,-3.5414,-3.4787,-3.4399,-3.4076,-3.3796,-3.3473,-3.3276,-3.3276,-3.3501,-3.3547,-3.3448,-3.336,-3.3194,-3.2919,-3.2376,-3.1886,-3.154,-3.1264,-3.0959,-3.0641,-3.0612,-3.0612,-3.0612,-3.0612,-3.0612,-3.0569,-2.9972,-2.9378,-2.8855,-2.8946,-2.8913,-2.8614,-2.879,-2.9088,-2.9429,-2.9197,-2.9114,-2.9344,-2.955,-2.9772,-3.0044,-3.0075,-3.0177,-3.0426,-3.0489,-3.0506,-3.0489,-3.0506,-3.0489,-3.0489,-3.0489,-3.0506,-3.0489,-3.0489,-3.0489,-3.0489,-3.0506,-3.0572,-3.0522,-3.0489,-3.0489,-3.0489,-3.0489,-3.0489,-3.0489,-3.0489,-3.0489,-3.0489,-3.0489,-3.0489,-3.0489,-3.0489,-3.0547,-3.0688,-3.081,-3.0912,-3.1012,-3.1112,-3.119,-3.119,-3.119,-3.119,-3.119,-3.119,-3.119,-3.9155,-3.9127,-3.8986,-3.8635,-3.8173,-3.8159,-3.7906,-3.7526,-3.7538,-3.7498,-3.7524,-3.7316,-3.7231,-3.7217,-3.7063,-3.6978,-3.6978,-3.6978,-3.6978,-3.6978,-3.6978,-3.6978,-3.6978,-3.6978,-3.6978,-3.6978,-3.695,-3.6964,-3.6936,-3.6595,-3.6047,-3.5456,-3.4955,-3.4526,-3.4189,-3.374,-3.3459,-3.334,-3.3431,-3.3501,-3.35,-3.3439,-3.3418,-3.3393,-3.301,-3.2542,-3.2077,-3.1714,-3.1308,-3.0888,-3.0699,-3.0612,-3.0612,-3.0612,-3.0612,-3.0569,-3.0147,-2.9769,-2.9624,-2.9514,-2.9423,-2.9423,-2.9465,-2.9603,-2.9745,-2.9419,-2.9271,-2.9451,-2.931,-2.9454,-2.9772,-2.9868,-3.0067,-3.0549,-3.0746,-3.0871,-3.0903,-3.0978,-3.1135,-3.1123,-3.1255,-3.1085,-3.1123,-3.1151,-3.1201,-3.1184,-3.1151,-3.1106,-3.1106,-3.1135,-3.1135,-3.1106,-3.0969,-3.0721,-3.0555,-3.0489,-3.0489,-3.0489,-3.0489,-3.0489,-3.0489,-3.0489,-3.0489,-3.0609,-3.077,-3.0871,-3.0952,-3.1052,-3.1171,-3.119,-3.119,-3.119,-3.119,-3.119,-3.119,-3.9732,-3.9662,-3.9155,-3.893,-3.8874,-3.886,-3.8832,-3.8705,-3.8761,-3.879,-3.8663,-3.8116,-3.7864,-3.7779,-3.7274,-3.6993,-3.6978,-3.6978,-3.6978,-3.6978,-3.6978,-3.6978,-3.6978,-3.6978,-3.6978,-3.6978,-3.6978,-3.6978,-3.6978,-3.6975,-3.668,-3.6089,-3.5963,-3.5363,-3.4441,-3.4189,-3.3866,-3.3417,-3.334,-3.3326,-3.3396,-3.3681,-3.3899,-3.395,-3.368,-3.3416,-3.3227,-3.2179,-3.148,-3.1437,-3.0916,-3.0627,-3.0612,-3.0612,-3.0612,-3.0598,-3.0569,-3.0248,-2.974,-2.9639,-2.9592,-2.9438,-2.9287,-2.9414,-3.033,-2.9781,-2.9602,-3.0161,-2.9742,-2.9658,-2.9955,-3.0006,-3.0259,-3.0885,-3.1454,-3.1674,-3.1753,-3.2013,-3.2525,-3.2459,-3.2376,-3.2332,-3.2486,-3.2597,-3.2431,-3.2437,-3.2497,-3.2448,-3.2348,-3.2453,-3.2437,-3.2299,-3.1918,-3.1317,-3.0704,-3.0489,-3.0489,-3.0489,-3.0489,-3.0489,-3.0489,-3.0489,-3.051,-3.0547,-3.0651,-3.0773,-3.0871,-3.0955,-3.1075,-3.1134,-3.119,-3.119,-3.119,-3.119,-3.119,-4.0364,-4.035,-4.0126,-3.9831,-3.9493,-3.9493,-3.924,-3.893,-3.8916,-3.8916,-3.8874,-3.8663,-3.8285,-3.7892,-3.7667,-3.7358,-3.7007,-3.6978,-3.6978,-3.6978,-3.6978,-3.6978,-3.6978,-3.6978,-3.6978,-3.6978,-3.6978,-3.6978,-3.6978,-3.6978,-3.6919,-3.6666,-3.6286,-3.585,-3.5349,-3.4618,-3.4076,-3.3852,-3.3515,-3.3361,-3.3501,-3.3744,-3.3937,-3.4079,-3.4095,-3.3877,-3.3518,-3.3038,-3.2382,-3.1538,-3.1293,-3.0988,-3.0656,-3.0612,-3.0612,-3.0612,-3.0612,-3.0466,-3.0277,-3.0234,-3.0221,-3.0163,-3.0061,-3.0128,-3.0498,-3.0176,-2.9958,-3.0164,-2.9887,-2.9803,-3.0194,-3.0253,-3.0413,-3.0892,-3.1193,-3.1388,-3.1437,-3.182,-3.2187,-3.2233,-3.2478,-3.2685,-3.2762,-3.2702,-3.2685,-3.2685,-3.2702,-3.2752,-3.2718,-3.2702,-3.2785,-3.2685,-3.2481,-3.2216,-3.2017,-3.1023,-3.0506,-3.0489,-3.0489,-3.0489,-3.0489,-3.0489,-3.0489,-3.0526,-3.0609,-3.0733,-3.0834,-3.1032,-3.1112,-3.1151,-3.119,-3.119,-3.119,-3.119,-3.119,-4.0702,-4.0702,-4.0702,-4.0449,-4.0097,-4.0083,-3.9845,-3.9465,-3.9493,-3.9507,-3.9423,-3.9296,-3.8805,-3.8243,-3.8004,-3.7569,-3.7021,-3.6978,-3.6978,-3.6978,-3.6978,-3.6978,-3.6978,-3.6978,-3.6978,-3.6978,-3.6978,-3.6978,-3.6978,-3.6978,-3.6978,-3.6936,-3.6581,-3.6248,-3.5963,-3.5054,-3.4427,-3.4147,-3.3599,-3.3396,-3.3605,-3.3779,-3.3951,-3.4094,-3.4312,-3.4225,-3.379,-3.3605,-3.3126,-3.2251,-3.1758,-3.1235,-3.0685,-3.0612,-3.0612,-3.0612,-3.0612,-3.0612,-3.0612,-3.0612,-3.0598,-3.0598,-3.0598,-3.0676,-3.0838,-3.0596,-3.0528,-3.0558,-3.044,-3.0432,-3.0698,-3.0764,-3.08,-3.1129,-3.1337,-3.1451,-3.1492,-3.199,-3.2417,-3.2708,-3.3027,-3.3235,-3.3386,-3.3425,-3.3442,-3.3408,-3.3392,-3.3431,-3.3415,-3.3408,-3.3408,-3.3375,-3.3226,-3.3077,-3.2829,-3.21,-3.1234,-3.1101,-3.0621,-3.0555,-3.0489,-3.0489,-3.0489,-3.051,-3.0589,-3.0712,-3.0875,-3.1072,-3.1151,-3.119,-3.119,-3.119,-3.119,-3.119,-3.119,-4.0702,-4.0702,-4.0702,-4.0688,-4.0617,-4.0617,-4.0659,-4.0575,-4.0589,-4.0505,-4.0393,-4.0013,-3.9493,-3.8874,-3.8271,-3.7625,-3.7147,-3.7021,-3.6978,-3.6978,-3.6978,-3.6978,-3.6978,-3.6978,-3.6978,-3.6978,-3.6978,-3.6978,-3.6978,-3.6978,-3.6978,-3.6978,-3.6936,-3.668,-3.6145,-3.5484,-3.4851,-3.4295,-3.3691,-3.3445,-3.3605,-3.3813,-3.3985,-3.4128,-3.4312,-3.4351,-3.4356,-3.3867,-3.3518,-3.3285,-3.2266,-3.1279,-3.0771,-3.0641,-3.0612,-3.0612,-3.0612,-3.0612,-3.0612,-3.0612,-3.0612,-3.0612,-3.0612,-3.0732,-3.0984,-3.1028,-3.113,-3.1301,-3.1359,-3.1421,-3.1391,-3.1389,-3.1416,-3.1537,-3.1835,-3.2124,-3.2295,-3.279,-3.3375,-3.3747,-3.3883,-3.4284,-3.4666,-3.4651,-3.4568,-3.4584,-3.4618,-3.4601,-3.4558,-3.4535,-3.4767,-3.4651,-3.4203,-3.3822,-3.3541,-3.3176,-3.2448,-3.1763,-3.1085,-3.0688,-3.0539,-3.0489,-3.0489,-3.0489,-3.0568,-3.0692,-3.0855,-3.1032,-3.1131,-3.1171,-3.119,-3.119,-3.119,-3.119,-3.119,-4.0702,-4.0702,-4.0702,-4.0702,-4.0702,-4.0702,-4.0702,-4.0702,-4.0702,-4.0702,-4.0674,-4.0491,-4.0083,-3.9493,-3.8833,-3.8215,-3.7611,-3.7203,-3.6978,-3.6993,-3.6993,-3.6993,-3.6993,-3.6993,-3.6978,-3.6978,-3.6978,-3.6978,-3.6978,-3.6978,-3.6978,-3.6978,-3.6978,-3.6933,-3.6627,-3.5738,-3.5062,-3.4823,-3.3988,-3.3605,-3.3813,-3.3937,-3.4094,-3.4312,-3.438,-3.438,-3.4366,-3.4225,-3.3906,-3.3532,-3.3111,-3.2367,-3.1395,-3.0845,-3.0627,-3.0612,-3.0612,-3.0612,-3.0612,-3.0612,-3.0612,-3.0612,-3.0612,-3.0762,-3.1043,-3.1087,-3.1234,-3.1453,-3.1496,-3.1496,-3.1496,-3.1496,-3.1496,-3.1496,-3.1668,-3.1796,-3.1866,-3.2299,-3.2857,-3.3381,-3.3825,-3.4151,-3.4374,-3.4594,-3.4899,-3.4899,-3.4899,-3.4899,-3.4899,-3.4899,-3.4899,-3.4849,-3.4584,-3.4452,-3.4187,-3.3822,-3.321,-3.2376,-3.1615,-3.082,-3.0605,-3.0489,-3.0489,-3.051,-3.0589,-3.0692,-3.0871,-3.0992,-3.1075,-3.1171,-3.119,-3.119,-3.119,-3.119,-3.119,-4.0702,-4.0702,-4.0702,-4.0702,-4.0702,-4.0702,-4.0702,-4.0702,-4.0702,-4.0702,-4.0702,-4.0702,-4.035,-3.9746,-3.9183,-3.851,-3.7864,-3.7259,-3.7105,-3.7245,-3.7049,-3.7091,-3.7288,-3.733,-3.7175,-3.7007,-3.6978,-3.6978,-3.6978,-3.6978,-3.6978,-3.6978,-3.6978,-3.6978,-3.6905,-3.5836,-3.5189,-3.5057,-3.4079,-3.3605,-3.3848,-3.3985,-3.4142,-3.4346,-3.438,-3.438,-3.438,-3.438,-3.4225,-3.3848,-3.3649,-3.2846,-3.1656,-3.1148,-3.0859,-3.0641,-3.0612,-3.0612,-3.0612,-3.0612,-3.0612,-3.0612,-3.0612,-3.0702,-3.0925,-3.1028,-3.119,-3.138,-3.1482,-3.1496,-3.1496,-3.1496,-3.1496,-3.1496,-3.1496,-3.1496,-3.1568,-3.1824,-3.2299,-3.2841,-3.3371,-3.379,-3.4134,-3.4546,-3.4875,-3.4899,-3.4899,-3.4899,-3.4899,-3.4899,-3.4899,-3.4899,-3.4816,-3.4767,-3.48,-3.4419,-3.3945,-3.3077,-3.2177,-3.1283,-3.0688,-3.0539,-3.0489,-3.0531,-3.0589,-3.0712,-3.0871,-3.0955,-3.1055,-3.1095,-3.1171,-3.119,-3.119,-3.119,-3.119,-4.0659,-4.0659,-4.0702,-4.0702,-4.0702,-4.0702,-4.0702,-4.0702,-4.0702,-4.0702,-4.0702,-4.0702,-4.0407,-3.9802,-3.924,-3.8635,-3.8004,-3.74,-3.7442,-3.7695,-3.7526,-3.747,-3.7765,-3.7779,-3.7498,-3.7049,-3.6978,-3.6978,-3.6978,-3.6978,-3.6978,-3.6978,-3.6978,-3.6978,-3.6754,-3.5808,-3.5189,-3.502,-3.398,-3.355,-3.3848,-3.3896,-3.4034,-3.4312,-3.4346,-3.4346,-3.4346,-3.438,-3.438,-3.4327,-3.3823,-3.298,-3.1917,-3.1584,-3.1206,-3.0757,-3.0656,-3.0612,-3.0612,-3.0612,-3.0612,-3.0612,-3.0612,-3.0657,-3.0806,-3.0984,-3.1161,-3.1322,-3.1424,-3.1496,-3.1496,-3.1496,-3.1496,-3.1496,-3.1496,-3.1496,-3.1496,-3.1524,-3.1853,-3.2299,-3.2841,-3.3381,-3.3958,-3.4497,-3.4851,-3.4899,-3.4899,-3.4899,-3.4899,-3.4899,-3.4899,-3.4899,-3.4899,-3.4899,-3.4866,-3.48,-3.4293,-3.3491,-3.263,-3.1747,-3.0886,-3.0671,-3.0489,-3.0531,-3.0589,-3.0712,-3.0831,-3.0895,-3.0975,-3.1055,-3.1112,-3.1171,-3.1171,-3.1151,-3.1171,-4.017,-4.0227,-4.0559,-4.0702,-4.0702,-4.0702,-4.0702,-4.0702,-4.0702,-4.0702,-4.0702,-4.0702,-4.0603,-4.0336,-3.9394,-3.9043,-3.8917,-3.8131,-3.8004,-3.8524,-3.8508,-3.8131,-3.7962,-3.7892,-3.7597,-3.7077,-3.7007,-3.6978,-3.6978,-3.6978,-3.6978,-3.6978,-3.6978,-3.6978,-3.6796,-3.5794,-3.5231,-3.5071,-3.4086,-3.3536,-3.3675,-3.3827,-3.3931,-3.402,-3.4142,-3.4196,-3.4196,-3.4346,-3.438,-3.437,-3.3819,-3.3387,-3.2846,-3.2077,-3.1496,-3.1221,-3.0859,-3.0612,-3.0612,-3.0612,-3.0612,-3.0612,-3.0612,-3.0672,-3.0806,-3.0984,-3.1161,-3.1292,-3.1409,-3.1496,-3.1496,-3.1496,-3.1496,-3.1496,-3.1496,-3.1496,-3.1496,-3.1496,-3.1582,-3.1796,-3.2625,-3.3214,-3.3604,-3.4267,-3.4875,-3.4899,-3.4899,-3.4899,-3.4899,-3.4899,-3.4899,-3.4899,-3.4899,-3.4899,-3.4899,-3.4899,-3.4575,-3.3829,-3.3011,-3.2232,-3.1399,-3.0837,-3.0638,-3.051,-3.051,-3.063,-3.0692,-3.0753,-3.0875,-3.0995,-3.1012,-3.1032,-3.1052,-3.1052,-3.1095,-4.0009,-4.0039,-4.0473,-4.0702,-4.0702,-4.0702,-4.0702,-4.0702,-4.0702,-4.0702,-4.0702,-4.0702,-4.0702,-4.0603,-3.9704,-3.9479,-3.9647,-3.8763,-3.8678,-3.9268,-3.9507,-3.9142,-3.8538,-3.8299,-3.7976,-3.7386,-3.7091,-3.6993,-3.6978,-3.6978,-3.6978,-3.6978,-3.6978,-3.6978,-3.6908,-3.5836,-3.5189,-3.4964,-3.4079,-3.3515,-3.3605,-3.3709,-3.3827,-3.3896,-3.404,-3.4128,-3.423,-3.4346,-3.438,-3.4341,-3.4051,-3.3779,-3.3474,-3.2788,-3.2092,-3.1582,-3.1163,-3.0903,-3.0656,-3.0612,-3.0612,-3.0612,-3.0612,-3.0628,-3.0732,-3.0895,-3.1043,-3.122,-3.1322,-3.1438,-3.1496,-3.1496,-3.1496,-3.1496,-3.1496,-3.1496,-3.1496,-3.1496,-3.1496,-3.1768,-3.2449,-3.3198,-3.3224,-3.4226,-3.4739,-3.4899,-3.4899,-3.4899,-3.4899,-3.4899,-3.4899,-3.4899,-3.4899,-3.4899,-3.4899,-3.4899,-3.47,-3.4005,-3.316,-3.2431,-3.1482,-3.082,-3.0671,-3.0489,-3.0489,-3.051,-3.0609,-3.0692,-3.0794,-3.0875,-3.0892,-3.0912,-3.0952,-3.0955,-3.1015,-3.9952,-4.0053,-4.053,-4.0702,-4.0702,-4.0702,-4.0702,-4.0702,-4.0702,-4.0659,-4.0616,-4.0645,-4.0659,-4.0617,-3.9943,-3.9816,-3.9859,-3.931,-3.9451,-3.9845,-4.0224,-4.0027,-3.9254,-3.886,-3.8397,-3.7807,-3.7259,-3.7035,-3.6978,-3.6978,-3.6978,-3.6978,-3.6978,-3.6978,-3.6754,-3.5822,-3.5245,-3.4978,-3.3944,-3.3424,-3.3501,-3.357,-3.364,-3.3848,-3.404,-3.4196,-3.4346,-3.438,-3.438,-3.438,-3.438,-3.4109,-3.3663,-3.3561,-3.298,-3.199,-3.1627,-3.1206,-3.0816,-3.0714,-3.0612,-3.0612,-3.0612,-3.0612,-3.0642,-3.0762,-3.0925,-3.1117,-3.1249,-3.138,-3.1467,-3.1496,-3.1496,-3.1496,-3.1496,-3.1496,-3.1496,-3.1496,-3.1524,-3.164,-3.2571,-3.3077,-3.3563,-3.4152,-3.4899,-3.4899,-3.4899,-3.4899,-3.4899,-3.4899,-3.4899,-3.4899,-3.4899,-3.4899,-3.4899,-3.4899,-3.4618,-3.417,-3.3243,-3.2348,-3.1168,-3.0588,-3.0555,-3.0489,-3.0489,-3.0531,-3.0593,-3.0692,-3.0733,-3.0753,-3.0749,-3.081,-3.0855,-3.0875,-3.0915,-3.9645,-4.0039,-4.0516,-4.0702,-4.0702,-4.0702,-4.0702,-4.0702,-4.0702,-4.0487,-4.03,-4.0516,-4.0487,-4.0142,-3.997,-4.0041,-4.035,-3.9901,-3.9929,-4.0463,-4.0589,-4.0603,-4.0027,-3.938,-3.8524,-3.792,-3.7288,-3.7007,-3.6978,-3.6978,-3.6978,-3.6978,-3.6978,-3.6978,-3.681,-3.585,-3.5189,-3.4978,-3.3944,-3.3354,-3.3361,-3.3396,-3.3466,-3.3689,-3.3922,-3.4196,-3.4346,-3.438,-3.438,-3.438,-3.4366,-3.4312,-3.4109,-3.3746,-3.3358,-3.2846,-3.2004,-3.1451,-3.125,-3.0858,-3.0612,-3.0612,-3.0612,-3.0612,-3.0612,-3.0732,-3.0895,-3.1073,-3.1249,-3.1351,-3.1467,-3.1496,-3.1496,-3.1496,-3.1496,-3.1496,-3.1496,-3.1496,-3.1668,-3.216,-3.2761,-3.3355,-3.3799,-3.4391,-3.4851,-3.4899,-3.4899,-3.4899,-3.4899,-3.4899,-3.4899,-3.4899,-3.4899,-3.4899,-3.4899,-3.4783,-3.4402,-3.3988,-3.3183,-3.2216,-3.1035,-3.0489,-3.0489,-3.0489,-3.0489,-3.0531,-3.0572,-3.0551,-3.0593,-3.0609,-3.0647,-3.0692,-3.0753,-3.0773,-3.0855,-3.9777,-4.0053,-4.0516,-4.0702,-4.0659,-4.0473,-4.0516,-4.0602,-4.043,-4.0213,-4.0126,-4.0487,-4.043,-4.0025,-4.0165,-4.0421,-4.0575,-4.0393,-4.0364,-4.0645,-4.0688,-4.0533,-4.0126,-3.9451,-3.8691,-3.8255,-3.74,-3.7035,-3.6978,-3.6978,-3.6978,-3.6978,-3.6978,-3.6978,-3.681,-3.5808,-3.5245,-3.495,-3.3958,-3.3276,-3.3276,-3.329,-3.3396,-3.3605,-3.3868,-3.4074,-3.423,-3.438,-3.438,-3.438,-3.438,-3.438,-3.4385,-3.4095,-3.3804,-3.3358,-3.26,-3.1785,-3.1496,-3.0974,-3.0612,-3.0612,-3.0612,-3.0612,-3.0612,-3.0672,-3.0836,-3.1058,-3.119,-3.1278,-3.1467,-3.1496,-3.1496,-3.1496,-3.1496,-3.1496,-3.1496,-3.1496,-3.171,-3.2299,-3.2868,-3.3423,-3.3993,-3.4594,-3.4828,-3.4899,-3.4899,-3.4899,-3.4899,-3.4899,-3.4899,-3.4899,-3.4899,-3.4899,-3.4899,-3.4651,-3.4154,-3.3624,-3.2934,-3.1934,-3.0853,-3.0588,-3.0489,-3.0489,-3.0489,-3.0489,-3.051,-3.0489,-3.0489,-3.0526,-3.0568,-3.0589,-3.0671,-3.0773,-3.0875,-3.9952,-4.0039,-4.043,-4.0559,-4.0443,-4.0083,-4.0083,-4.0343,-4.0083,-3.9878,-3.9996,-4.0386,-4.0314,-4.0156,-4.0459,-4.0688,-4.0702,-4.0688,-4.0674,-4.0688,-4.0702,-4.0378,-3.9831,-3.9282,-3.8775,-3.8649,-3.758,-3.7021,-3.6978,-3.6978,-3.6978,-3.6978,-3.6978,-3.688,-3.6585,-3.5822,-3.5091,-3.4823,-3.3874,-3.3276,-3.3276,-3.3312,-3.3431,-3.3675,-3.3848,-3.404,-3.421,-3.4346,-3.438,-3.438,-3.438,-3.438,-3.438,-3.4385,-3.4211,-3.3649,-3.3021,-3.2411,-3.177,-3.1177,-3.0742,-3.0656,-3.0612,-3.0612,-3.0612,-3.0642,-3.0762,-3.0955,-3.1132,-3.1249,-3.1467,-3.1496,-3.1496,-3.1496,-3.1496,-3.1496,-3.1524,-3.1553,-3.1994,-3.2492,-3.2975,-3.3475,-3.4093,-3.4707,-3.4828,-3.4899,-3.4899,-3.4899,-3.4899,-3.4899,-3.4899,-3.4899,-3.4899,-3.4899,-3.4899,-3.48,-3.427,-3.3359,-3.2685,-3.1818,-3.0853,-3.0605,-3.0489,-3.0489,-3.0489,-3.0489,-3.0489,-3.0489,-3.0489,-3.0489,-3.051,-3.0531,-3.0651,-3.0773,-3.0855,-3.9645,-4.0009,-4.0083,-3.9908,-3.9557,-3.9438,-3.9482,-3.9526,-3.9526,-3.9438,-3.9513,-3.9908,-4.014,-4.0126,-4.0487,-4.0702,-4.0702,-4.0702,-4.0702,-4.0688,-4.0631,-4.028,-3.9662,-3.9085,-3.8593,-3.799,-3.7316,-3.6993,-3.6978,-3.6978,-3.6978,-3.6978,-3.6978,-3.6796,-3.6258,-3.5541,-3.4936,-3.4478,-3.3683,-3.3304,-3.3276,-3.3361,-3.3466,-3.3779,-3.3951,-3.4142,-3.4278,-3.438,-3.438,-3.438,-3.438,-3.438,-3.438,-3.438,-3.4327,-3.4095,-3.3558,-3.289,-3.228,-3.1654,-3.1119,-3.0772,-3.0612,-3.0612,-3.0612,-3.0612,-3.0702,-3.0881,-3.1117,-3.1322,-3.1467,-3.1496,-3.1496,-3.1496,-3.1496,-3.1496,-3.1582,-3.1853,-3.2287,-3.2776,-3.3135,-3.3578,-3.4267,-3.4756,-3.4851,-3.4899,-3.4899,-3.4899,-3.4899,-3.4899,-3.4899,-3.4899,-3.4899,-3.4899,-3.4899,-3.48,-3.4419,-3.3315,-3.2536,-3.1918,-3.1118,-3.0671,-3.0489,-3.0489,-3.0489,-3.0489,-3.0489,-3.0489,-3.0489,-3.0489,-3.0489,-3.0526,-3.063,-3.0733,-3.0794,-3.9424,-3.9645,-3.9645,-3.9526,-3.9292,-3.9038,-3.9083,-3.9305,-3.9305,-3.9305,-3.9526,-3.9996,-4.0213,-4.017,-4.0473,-4.0702,-4.0702,-4.0702,-4.0702,-4.0674,-4.0364,-3.9887,-3.9297,-3.8678,-3.8046,-3.7512,-3.7119,-3.6978,-3.6978,-3.6978,-3.6978,-3.6978,-3.6978,-3.6683,-3.6117,-3.5513,-3.4843,-3.4189,-3.3613,-3.3276,-3.3326,-3.341,-3.357,-3.3744,-3.3971,-3.4162,-3.423,-3.438,-3.438,-3.438,-3.438,-3.438,-3.438,-3.438,-3.438,-3.4298,-3.3833,-3.3195,-3.2556,-3.1857,-3.1235,-3.0714,-3.0612,-3.0612,-3.0612,-3.0642,-3.0702,-3.091,-3.1146,-3.1351,-3.1511,-3.1496,-3.1496,-3.1496,-3.1496,-3.1496,-3.1553,-3.1811,-3.2272,-3.2841,-3.3361,-3.3876,-3.4578,-3.4875,-3.4899,-3.4899,-3.4899,-3.4899,-3.4899,-3.4899,-3.4899,-3.4899,-3.4899,-3.4899,-3.4873,-3.47,-3.4303,-3.3249,-3.2398,-3.1785,-3.1184,-3.0638,-3.0489,-3.0489,-3.0489,-3.0489,-3.0489,-3.0489,-3.0489,-3.0489,-3.0489,-3.051,-3.0589,-3.0671,-3.0753,-3.9172,-3.9172,-3.9172,-3.9096,-3.8962,-3.8647,-3.8661,-3.8993,-3.9083,-3.923,-3.9438,-4.0097,-4.0343,-4.0314,-4.0487,-4.0702,-4.0702,-4.0702,-4.0631,-4.0378,-4.0041,-3.9493,-3.8664,-3.8159,-3.7639,-3.7175,-3.7021,-3.6978,-3.6978,-3.6978,-3.6978,-3.6922,-3.6908,-3.6539,-3.5878,-3.5203,-3.466,-3.4048,-3.3585,-3.3304,-3.3361,-3.348,-3.357,-3.364,-3.3902,-3.4059,-3.4128,-3.4312,-3.438,-3.438,-3.438,-3.438,-3.438,-3.438,-3.438,-3.4327,-3.3954,-3.3311,-3.2585,-3.2121,-3.1482,-3.0714,-3.0627,-3.0612,-3.0612,-3.0642,-3.0702,-3.0984,-3.1087,-3.1248,-3.1424,-3.1482,-3.1467,-3.1496,-3.1496,-3.1496,-3.1553,-3.1739,-3.2064,-3.2711,-3.3429,-3.3866,-3.4218,-3.4341,-3.4226,-3.4562,-3.4562,-3.4804,-3.4804,-3.4899,-3.4899,-3.4899,-3.4899,-3.4899,-3.4823,-3.4591,-3.3972,-3.3011,-3.2299,-3.1702,-3.1085,-3.0522,-3.0489,-3.0489,-3.0489,-3.0489,-3.0489,-3.0489,-3.0489,-3.0489,-3.0489,-3.051,-3.0551,-3.063,-3.0733,-3.8692,-3.8692,-3.8692,-3.848,-3.8116,-3.8037,-3.8024,-3.8161,-3.857,-3.8904,-3.9349,-3.9878,-4.0343,-4.053,-4.0659,-4.0702,-4.0702,-4.0603,-4.0378,-4.0013,-3.969,-3.903,-3.8187,-3.7976,-3.7512,-3.7049,-3.6978,-3.6978,-3.6978,-3.6978,-3.6978,-3.6922,-3.6511,-3.5934,-3.5428,-3.4787,-3.3992,-3.3501,-3.3333,-3.3276,-3.3326,-3.3361,-3.3466,-3.3605,-3.3813,-3.3985,-3.4094,-3.4278,-3.438,-3.438,-3.438,-3.438,-3.438,-3.438,-3.438,-3.4399,-3.4225,-3.3775,-3.2745,-3.2353,-3.1743,-3.0888,-3.0612,-3.0612,-3.0612,-3.0598,-3.0657,-3.0806,-3.0881,-3.1029,-3.1292,-3.1351,-3.138,-3.1467,-3.1496,-3.1496,-3.1524,-3.1668,-3.1994,-3.216,-3.2803,-3.3055,-3.3329,-3.3433,-3.3537,-3.3917,-3.425,-3.4521,-3.4739,-3.4851,-3.4899,-3.4899,-3.4899,-3.4899,-3.4717,-3.4485,-3.3756,-3.2812,-3.2183,-3.1581,-3.0986,-3.0489,-3.0489,-3.0489,-3.0489,-3.0489,-3.0489,-3.0489,-3.0489,-3.0489,-3.0489,-3.0489,-3.0489,-3.0572,-3.0654,-3.8207,-3.8207,-3.822,-3.8083,-3.79,-3.79,-3.79,-3.8024,-3.8692,-3.9127,-3.9438,-4.0097,-4.0516,-4.0659,-4.0702,-4.0702,-4.0631,-4.0364,-4.0069,-3.955,-3.9086,-3.8454,-3.7948,-3.7555,-3.7161,-3.7091,-3.6978,-3.6978,-3.6978,-3.6978,-3.6978,-3.6894,-3.6399,-3.5836,-3.5175,-3.4534,-3.3894,-3.3473,-3.3276,-3.3276,-3.3312,-3.3396,-3.3501,-3.3605,-3.3793,-3.3917,-3.402,-3.4142,-3.423,-3.423,-3.4312,-3.438,-3.438,-3.438,-3.438,-3.438,-3.4414,-3.379,-3.2745,-3.2556,-3.1787,-3.1004,-3.0612,-3.0612,-3.0612,-3.0598,-3.0657,-3.0791,-3.0791,-3.094,-3.1205,-3.1292,-3.138,-3.1453,-3.1496,-3.1496,-3.1524,-3.1668,-3.1824,-3.1979,-3.2132,-3.2394,-3.268,-3.3013,-3.3345,-3.3815,-3.4151,-3.4374,-3.4643,-3.4875,-3.4899,-3.4899,-3.4899,-3.4899,-3.4651,-3.4386,-3.3624,-3.2762,-3.2012,-3.1432,-3.0837,-3.0489,-3.0489,-3.0489,-3.0489,-3.0489,-3.0489,-3.0489,-3.0489,-3.0489,-3.0489,-3.0489,-3.0489,-3.0489,-3.0572,-3.79,-3.79,-3.79,-3.79,-3.79,-3.79,-3.7992,-3.8161,-3.8782,-3.9172,-3.9482,-4.0009,-4.0314,-4.04,-4.0416,-4.0389,-4.0236,-3.9943,-3.9578,-3.9058,-3.8454,-3.7906,-3.7555,-3.7175,-3.7021,-3.6978,-3.6978,-3.6978,-3.6978,-3.6978,-3.6978,-3.6936,-3.6136,-3.5667,-3.5133,-3.4379,-3.3655,-3.3347,-3.3276,-3.3276,-3.3312,-3.3431,-3.3501,-3.357,-3.3709,-3.3813,-3.3931,-3.404,-3.4094,-3.423,-3.4312,-3.438,-3.438,-3.438,-3.438,-3.438,-3.438,-3.38,-3.2916,-3.2411,-3.1787,-3.1092,-3.0612,-3.0612,-3.0612,-3.0612,-3.0642,-3.0732,-3.0732,-3.091,-3.1146,-3.1234,-3.1322,-3.1409,-3.1496,-3.1496,-3.1496,-3.1611,-3.164,-3.171,-3.1809,-3.1853,-3.2216,-3.2668,-3.3135,-3.3688,-3.4009,-3.4259,-3.457,-3.4875,-3.4899,-3.4899,-3.4866,-3.475,-3.4336,-3.3955,-3.3276,-3.2613,-3.1863,-3.1283,-3.0704,-3.0489,-3.0489,-3.0489,-3.0489,-3.0489,-3.0489,-3.0489,-3.0489,-3.0489,-3.0489,-3.0489,-3.0489,-3.0489,-3.0489,-3.79,-3.79,-3.79,-3.79,-3.79,-3.79,-3.8129,-3.8466,-3.8647,-3.8948,-3.9336,-3.9394,-3.9526,-3.9543,-3.9842,-3.978,-3.9266,-3.9634,-3.9059,-3.8397,-3.7878,-3.7555,-3.7259,-3.7063,-3.6978,-3.6978,-3.6978,-3.6978,-3.695,-3.6852,-3.6922,-3.6838,-3.5883,-3.5391,-3.4815,-3.4056,-3.3515,-3.3276,-3.3276,-3.3276,-3.3276,-3.3312,-3.3347,-3.3396,-3.3536,-3.3709,-3.3896,-3.4005,-3.4128,-3.4312,-3.438,-3.438,-3.438,-3.438,-3.438,-3.438,-3.4283,-3.3626,-3.2814,-3.2425,-3.1816,-3.1062,-3.0612,-3.0612,-3.0612,-3.0612,-3.0612,-3.0642,-3.0672,-3.0791,-3.0984,-3.1132,-3.1205,-3.138,-3.1438,-3.1482,-3.1467,-3.1496,-3.1524,-3.1496,-3.1553,-3.1668,-3.1783,-3.2244,-3.3044,-3.3636,-3.4043,-3.4292,-3.4618,-3.4899,-3.4899,-3.4883,-3.4816,-3.4535,-3.3922,-3.3326,-3.263,-3.205,-3.1383,-3.0969,-3.0572,-3.0489,-3.0489,-3.0489,-3.0489,-3.0489,-3.0489,-3.0489,-3.0489,-3.0489,-3.0489,-3.0489,-3.0489,-3.0489,-3.0489,-3.79,-3.7946,-3.822,-3.8161,-3.79,-3.79,-3.8175,-3.8602,-3.8904,-3.9292,-3.9689,-3.9438,-3.9305,-3.9343,-3.9351,-3.9347,-3.9072,-3.867,-3.8315,-3.792,-3.754,-3.7217,-3.6993,-3.6978,-3.6978,-3.6978,-3.6978,-3.6978,-3.6964,-3.6722,-3.6497,-3.6136,-3.5503,-3.5012,-3.4421,-3.3831,-3.3403,-3.3276,-3.3276,-3.3276,-3.3276,-3.3276,-3.3276,-3.3312,-3.3312,-3.3501,-3.3724,-3.3882,-3.404,-3.4196,-3.4346,-3.438,-3.438,-3.438,-3.438,-3.4341,-3.4124,-3.3427,-3.2713,-3.2394,-3.1917,-3.0961,-3.0612,-3.0612,-3.0612,-3.0612,-3.0612,-3.0612,-3.0612,-3.0732,-3.0866,-3.091,-3.0999,-3.1248,-3.1409,-3.1453,-3.1482,-3.1496,-3.1496,-3.1496,-3.1496,-3.1553,-3.1668,-3.1811,-3.2711,-3.3559,-3.3951,-3.4341,-3.4602,-3.4802,-3.4745,-3.4651,-3.4535,-3.4154,-3.3541,-3.2779,-3.1984,-3.1449,-3.0936,-3.0721,-3.0489,-3.0489,-3.0489,-3.0489,-3.0489,-3.0489,-3.0489,-3.0489,-3.0489,-3.0489,-3.0489,-3.0489,-3.0489,-3.0489,-3.0489,-3.8116,-3.8161,-3.8602,-3.8557,-3.8175,-3.8253,-3.8615,-3.9007,-3.9203,-3.9336,-3.9543,-3.8979,-3.8737,-3.8739,-3.8683,-3.8572,-3.8394,-3.8126,-3.7866,-3.7526,-3.7217,-3.7007,-3.6978,-3.6978,-3.6978,-3.6978,-3.6978,-3.6978,-3.695,-3.6413,-3.6075,-3.5723,-3.5194,-3.4646,-3.4267,-3.3627,-3.329,-3.3276,-3.3276,-3.3276,-3.3276,-3.3276,-3.3276,-3.3276,-3.3312,-3.3431,-3.3605,-3.3744,-3.3902,-3.4074,-3.423,-3.4312,-3.438,-3.438,-3.438,-3.4196,-3.3804,-3.318,-3.2626,-3.2004,-3.1569,-3.0743,-3.0612,-3.0612,-3.0612,-3.0612,-3.0612,-3.0612,-3.0612,-3.0642,-3.0762,-3.0821,-3.0969,-3.1219,-3.1322,-3.138,-3.1467,-3.1496,-3.1496,-3.1496,-3.1524,-3.1582,-3.2007,-3.2148,-3.2437,-3.3177,-3.3475,-3.3901,-3.4358,-3.4488,-3.4469,-3.4317,-3.4137,-3.3673,-3.3127,-3.2359,-3.1648,-3.1135,-3.0721,-3.0638,-3.0489,-3.0489,-3.0489,-3.0489,-3.0489,-3.0489,-3.0489,-3.0489,-3.0489,-3.0489,-3.0489,-3.0489,-3.0489,-3.0489,-3.0489,-3.8549,-3.8647,-3.9029,-3.897,-3.8585,-3.9083,-3.9469,-3.9719,-3.9356,-3.9046,-3.864,-3.7735,-3.7471,-3.7721,-3.7828,-3.7702,-3.7647,-3.7707,-3.7583,-3.7161,-3.7063,-3.6993,-3.6978,-3.6978,-3.6978,-3.6978,-3.6964,-3.6964,-3.688,-3.6244,-3.5752,-3.5138,-3.459,-3.4175,-3.4119,-3.3585,-3.3304,-3.3276,-3.3276,-3.3276,-3.3276,-3.3276,-3.3276,-3.3276,-3.3276,-3.3396,-3.364,-3.3675,-3.3882,-3.4128,-3.4162,-3.4278,-3.438,-3.438,-3.4351,-3.4254,-3.3703,-3.3093,-3.2437,-3.1322,-3.0816,-3.0656,-3.0612,-3.0612,-3.0612,-3.0612,-3.0612,-3.0612,-3.0612,-3.0657,-3.0732,-3.0791,-3.0984,-3.1146,-3.1234,-3.1322,-3.1409,-3.1496,-3.1496,-3.1496,-3.1553,-3.1697,-3.2244,-3.2586,-3.2504,-3.2761,-3.3002,-3.3449,-3.4027,-3.4186,-3.4182,-3.3898,-3.3657,-3.2994,-3.2426,-3.1929,-3.1333,-3.082,-3.0555,-3.0506,-3.0489,-3.0489,-3.0489,-3.0489,-3.0489,-3.0489,-3.0489,-3.0489,-3.0489,-3.0489,-3.0489,-3.0489,-3.0489,-3.0489,-3.0489,-3.7809,-3.7839,-3.8312,-3.8384,-3.8378,-3.9023,-3.9557,-3.9782,-3.9117,-3.8607,-3.828,-3.7333,-3.711,-3.7353,-3.7342,-3.7263,-3.7274,-3.7174,-3.7102,-3.7021,-3.6978,-3.6978,-3.6978,-3.6978,-3.6978,-3.6978,-3.6964,-3.6722,-3.6332,-3.5808,-3.5189,-3.4548,-3.4028,-3.3641,-3.3557,-3.3347,-3.329,-3.3276,-3.3276,-3.3276,-3.3276,-3.3276,-3.3276,-3.3276,-3.3276,-3.3431,-3.3709,-3.3709,-3.3882,-3.4128,-3.4196,-3.4264,-3.4346,-3.438,-3.4177,-3.3819,-3.3213,-3.2324,-3.1555,-3.0757,-3.0656,-3.0612,-3.0612,-3.0612,-3.0612,-3.0612,-3.0612,-3.0612,-3.0612,-3.0628,-3.0672,-3.0672,-3.0821,-3.1073,-3.119,-3.1292,-3.138,-3.1467,-3.1496,-3.1496,-3.1524,-3.1553,-3.1894,-3.216,-3.2188,-3.2482,-3.2775,-3.3302,-3.3896,-3.3907,-3.3879,-3.3456,-3.3061,-3.2326,-3.1714,-3.135,-3.1085,-3.0704,-3.0522,-3.0506,-3.0489,-3.0489,-3.0489,-3.0489,-3.0489,-3.0489,-3.0489,-3.0489,-3.0489,-3.0489,-3.0489,-3.0489,-3.0489,-3.0489,-3.0489,-3.7642,-3.7685,-3.8159,-3.8366,-3.8464,-3.8957,-3.9288,-3.9248,-3.8505,-3.807,-3.7876,-3.7133,-3.6978,-3.7179,-3.7071,-3.7064,-3.7089,-3.706,-3.6993,-3.6978,-3.6978,-3.6978,-3.6978,-3.6978,-3.6978,-3.695,-3.6726,-3.6416,-3.6117,-3.5273,-3.4534,-3.3972,-3.3515,-3.3389,-3.3319,-3.3304,-3.3276,-3.3276,-3.3276,-3.3276,-3.3276,-3.3276,-3.3276,-3.3276,-3.3312,-3.3431,-3.3605,-3.3744,-3.3813,-3.404,-3.4142,-3.4176,-3.421,-3.4192,-3.3979,-3.3419,-3.2539,-3.1714,-3.0916,-3.067,-3.0612,-3.0612,-3.0612,-3.0612,-3.0612,-3.0612,-3.0612,-3.0612,-3.0612,-3.0612,-3.0612,-3.0612,-3.0732,-3.0955,-3.1043,-3.1146,-3.1292,-3.1351,-3.1409,-3.1438,-3.1496,-3.1496,-3.1496,-3.1553,-3.1682,-3.2109,-3.2531,-3.3065,-3.348,-3.3388,-3.3278,-3.2872,-3.2442,-3.1813,-3.1283,-3.0903,-3.0671,-3.0522,-3.0489,-3.0489,-3.0489,-3.0489,-3.0489,-3.0489,-3.0489,-3.0489,-3.0489,-3.0489,-3.0489,-3.0489,-3.0489,-3.0489,-3.0489,-3.0489,-3.0489,-3.8034,-3.8145,-3.8641,-3.8749,-3.8777,-3.8654,-3.8532,-3.8228,-3.7727,-3.7502,-3.7461,-3.6877,-3.6825,-3.7042,-3.6693,-3.6698,-3.6973,-3.7021,-3.6993,-3.6978,-3.6978,-3.6978,-3.6978,-3.6978,-3.6978,-3.6796,-3.6624,-3.6388,-3.6005,-3.4955,-3.407,-3.3607,-3.3417,-3.3304,-3.3276,-3.3276,-3.3276,-3.3276,-3.3276,-3.3276,-3.3276,-3.3276,-3.3276,-3.3276,-3.3312,-3.3361,-3.3431,-3.348,-3.3536,-3.364,-3.3709,-3.3793,-3.3882,-3.4011,-3.3676,-3.3009,-3.1997,-3.1264,-3.0757,-3.0627,-3.0612,-3.0612,-3.0612,-3.0612,-3.0612,-3.0612,-3.0612,-3.0612,-3.0612,-3.0612,-3.0612,-3.0642,-3.0672,-3.0762,-3.0836,-3.0955,-3.1132,-3.122,-3.1292,-3.1351,-3.1438,-3.1467,-3.1496,-3.1496,-3.1433,-3.1627,-3.1966,-3.2012,-3.238,-3.2474,-3.2318,-3.2111,-3.1697,-3.1283,-3.087,-3.0621,-3.0555,-3.0489,-3.0489,-3.0489,-3.0489,-3.0489,-3.0489,-3.0489,-3.0489,-3.0489,-3.0489,-3.0489,-3.0489,-3.0489,-3.0489,-3.0489,-3.0489,-3.0489,-3.0489,-3.7314,-3.7354,-3.7473,-3.7566,-3.7501,-3.7237,-3.7494,-3.8007,-3.7579,-3.7332,-3.7277,-3.67,-3.6735,-3.7035,-3.692,-3.6915,-3.694,-3.6978,-3.6978,-3.6978,-3.6978,-3.6978,-3.6978,-3.6978,-3.6978,-3.6922,-3.674,-3.6374,-3.5869,-3.4829,-3.4189,-3.3978,-3.3459,-3.3319,-3.3276,-3.3276,-3.3276,-3.3276,-3.3276,-3.3276,-3.3276,-3.3276,-3.3276,-3.3276,-3.3276,-3.3361,-3.3431,-3.348,-3.357,-3.3709,-3.3779,-3.3862,-3.3896,-3.3493,-3.2911,-3.1925,-3.1244,-3.0757,-3.0641,-3.0612,-3.0612,-3.0612,-3.0612,-3.0612,-3.0612,-3.0612,-3.0612,-3.0612,-3.0612,-3.0612,-3.0612,-3.0642,-3.0672,-3.0702,-3.0762,-3.0866,-3.1014,-3.1102,-3.1176,-3.1351,-3.1438,-3.1467,-3.1496,-3.1361,-3.1311,-3.1356,-3.1347,-3.1315,-3.1402,-3.1534,-3.1595,-3.1413,-3.1201,-3.087,-3.0737,-3.0522,-3.0506,-3.0489,-3.0489,-3.0489,-3.0489,-3.0489,-3.0489,-3.0489,-3.0489,-3.0489,-3.0489,-3.0489,-3.0489,-3.0489,-3.0489,-3.0489,-3.0489,-3.0489,-3.0489,-3.6978,-3.6978,-3.6978,-3.6978,-3.694,-3.6733,-3.7073,-3.7505,-3.7162,-3.693,-3.6874,-3.6702,-3.6758,-3.6968,-3.6993,-3.6978,-3.6978,-3.6978,-3.6978,-3.6978,-3.6978,-3.6978,-3.6978,-3.6978,-3.6978,-3.6936,-3.6712,-3.637,-3.5798,-3.4899,-3.4133,-3.374,-3.3389,-3.3333,-3.3276,-3.3276,-3.3276,-3.3276,-3.3276,-3.3276,-3.3276,-3.3276,-3.3276,-3.3276,-3.3276,-3.3396,-3.3466,-3.3501,-3.357,-3.364,-3.364,-3.364,-3.3525,-3.2933,-3.2342,-3.1466,-3.0957,-3.0728,-3.0612,-3.0612,-3.0612,-3.0612,-3.0612,-3.0612,-3.0612,-3.0612,-3.0612,-3.0612,-3.0612,-3.0612,-3.0612,-3.0612,-3.0672,-3.0702,-3.0732,-3.0762,-3.0895,-3.1014,-3.119,-3.1351,-3.1438,-3.1467,-3.1421,-3.1256,-3.1072,-3.0872,-3.0563,-3.0289,-3.0541,-3.0918,-3.1001,-3.0983,-3.0782,-3.0555,-3.0447,-3.0405,-3.0426,-3.0447,-3.0489,-3.0489,-3.0489,-3.0489,-3.0489,-3.0489,-3.0489,-3.0489,-3.0489,-3.0489,-3.0489,-3.0489,-3.0489,-3.0489,-3.0489,-3.0489,-3.0489,-3.6978,-3.6978,-3.6978,-3.6978,-3.6978,-3.6954,-3.7021,-3.6954,-3.6684,-3.6445,-3.6577,-3.685,-3.6978,-3.6978,-3.6978,-3.6978,-3.6978,-3.6978,-3.6978,-3.6978,-3.6978,-3.6978,-3.6978,-3.6978,-3.6978,-3.6782,-3.6497,-3.6145,-3.5723,-3.4871,-3.395,-3.3361,-3.329,-3.3276,-3.3276,-3.3276,-3.3276,-3.3276,-3.3276,-3.3276,-3.3276,-3.3276,-3.3276,-3.3276,-3.3276,-3.3312,-3.3312,-3.3312,-3.3276,-3.3326,-3.3326,-3.3347,-3.2817,-3.2321,-3.1736,-3.1339,-3.0783,-3.0699,-3.0612,-3.0612,-3.0612,-3.0612,-3.0612,-3.0612,-3.0612,-3.0612,-3.0612,-3.0612,-3.0612,-3.0612,-3.0612,-3.0612,-3.0642,-3.0642,-3.0672,-3.0672,-3.0732,-3.0895,-3.1043,-3.1146,-3.1083,-3.1097,-3.1005,-3.0796,-3.0406,-3.0259,-3.0035,-2.9602,-2.9677,-3.0163,-3.0267,-3.0347,-3.0228,-3.0049,-3.0135,-3.0113,-3.0321,-3.0384,-3.0426,-3.0489,-3.0489,-3.0489,-3.0489,-3.0489,-3.0489,-3.0489,-3.0489,-3.0489,-3.0489,-3.0489,-3.0489,-3.0489,-3.0489,-3.0489,-3.0489,-3.6978,-3.6978,-3.6978,-3.6978,-3.6978,-3.6978,-3.6978,-3.6978,-3.6915,-3.6836,-3.6875,-3.694,-3.6978,-3.6978,-3.6978,-3.6978,-3.6978,-3.6978,-3.6978,-3.6978,-3.6978,-3.6978,-3.695,-3.6908,-3.6936,-3.6782,-3.6441,-3.5808,-3.5302,-3.4618,-3.4133,-3.388,-3.3571,-3.3276,-3.3276,-3.3276,-3.3276,-3.3276,-3.3276,-3.3276,-3.3276,-3.3276,-3.3276,-3.3276,-3.3276,-3.3276,-3.3276,-3.3276,-3.3276,-3.329,-3.329,-3.2834,-3.1982,-3.1484,-3.0979,-3.0549,-3.0608,-3.0611,-3.0612,-3.0612,-3.0612,-3.0612,-3.0612,-3.0612,-3.0612,-3.0612,-3.0612,-3.0612,-3.0612,-3.0612,-3.0612,-3.0612,-3.0612,-3.0612,-3.0612,-3.0612,-3.0612,-3.0762,-3.0925,-3.0822,-3.0716,-3.0624,-3.0532,-3.0238,-2.9867,-2.9644,-2.9551,-2.9323,-2.9143,-2.9367,-2.9344,-2.9405,-2.948,-2.9416,-2.9595,-2.9875,-3.007,-3.0236,-3.0321,-3.0384,-3.0468,-3.0489,-3.0489,-3.0489,-3.0489,-3.0489,-3.0489,-3.0489,-3.0489,-3.0489,-3.0489,-3.0489,-3.0489,-3.0489,-3.0489,-3.6978,-3.6978,-3.6978,-3.6978,-3.6978,-3.6978,-3.6978,-3.6978,-3.6978,-3.6978,-3.6978,-3.6978,-3.6978,-3.6978,-3.6978,-3.6978,-3.6978,-3.6978,-3.6978,-3.6978,-3.6936,-3.6978,-3.6922,-3.6722,-3.6557,-3.6416,-3.5949,-3.5372,-3.4759,-3.4478,-3.4119,-3.3824,-3.3403,-3.3276,-3.3276,-3.3276,-3.3276,-3.3276,-3.3276,-3.3276,-3.3276,-3.3276,-3.3276,-3.3276,-3.3276,-3.3276,-3.3276,-3.3276,-3.3276,-3.3185,-3.3059,-3.2605,-3.1853,-3.1354,-3.0828,-3.054,-3.0522,-3.0612,-3.0612,-3.0612,-3.0612,-3.0612,-3.0612,-3.0612,-3.0612,-3.0612,-3.0612,-3.0612,-3.0612,-3.0612,-3.0612,-3.0612,-3.0612,-3.0612,-3.0612,-3.0642,-3.0672,-3.0762,-3.069,-3.0439,-3.0332,-3.0182,-2.9941,-2.9372,-2.9064,-2.8989,-2.89,-2.8617,-2.8543,-2.863,-2.8583,-2.8606,-2.8748,-2.9005,-2.928,-2.9572,-2.9837,-3.0006,-3.0113,-3.0342,-3.0447,-3.0468,-3.0489,-3.0489,-3.0489,-3.0489,-3.0489,-3.0489,-3.0489,-3.0489,-3.0489,-3.0489,-3.0489,-3.0489,-3.0489,-3.6978,-3.6978,-3.6978,-3.6978,-3.6978,-3.6978,-3.6978,-3.6978,-3.6978,-3.6978,-3.695,-3.688,-3.6933,-3.6978,-3.6978,-3.6978,-3.6978,-3.6978,-3.6978,-3.681,-3.6796,-3.6571,-3.6385,-3.623,-3.5939,-3.5644,-3.5222,-3.4674,-3.4076,-3.3936,-3.3726,-3.3361,-3.3276,-3.3276,-3.3276,-3.3276,-3.3276,-3.3276,-3.3276,-3.3276,-3.3276,-3.3276,-3.3276,-3.3276,-3.3276,-3.3276,-3.3276,-3.3276,-3.3276,-3.3016,-3.2679,-3.2162,-3.1631,-3.108,-3.0685,-3.0397,-3.0403,-3.0507,-3.0538,-3.0582,-3.0612,-3.0612,-3.0612,-3.0612,-3.0612,-3.0612,-3.0612,-3.0612,-3.0612,-3.0612,-3.0612,-3.0612,-3.0612,-3.0612,-3.0642,-3.0613,-3.0687,-3.0674,-3.0324,-3.0028,-2.9776,-2.9625,-2.9163,-2.8622,-2.8416,-2.8316,-2.8143,-2.7839,-2.7685,-2.7944,-2.8042,-2.814,-2.8271,-2.8583,-2.8818,-2.9257,-2.955,-2.9556,-2.9667,-3.0113,-3.0443,-3.0426,-3.0447,-3.0489,-3.0489,-3.0447,-3.0468,-3.0489,-3.0489,-3.0468,-3.0489,-3.0489,-3.0489,-3.0489,-3.0489,-3.6978,-3.6978,-3.6978,-3.6964,-3.695,-3.695,-3.6978,-3.6978,-3.6936,-3.6978,-3.6782,-3.6473,-3.6473,-3.6964,-3.6978,-3.6894,-3.6683,-3.6768,-3.6581,-3.6342,-3.63,-3.5977,-3.5695,-3.5541,-3.5054,-3.4731,-3.445,-3.4048,-3.3712,-3.3557,-3.3431,-3.329,-3.3276,-3.3276,-3.3276,-3.3276,-3.3276,-3.3276,-3.3276,-3.3276,-3.3276,-3.3276,-3.3276,-3.3276,-3.3276,-3.3276,-3.3276,-3.3276,-3.3276,-3.3002,-3.2328,-3.1819,-3.1297,-3.0747,-3.0306,-3.0291,-3.0342,-3.0417,-3.0477,-3.0582,-3.0612,-3.0612,-3.0612,-3.0612,-3.0612,-3.0612,-3.0612,-3.0612,-3.0612,-3.0612,-3.0612,-3.0612,-3.0612,-3.0612,-3.0612,-3.0539,-3.054,-3.0191,-2.9799,-2.9331,-2.889,-2.8638,-2.8282,-2.793,-2.7747,-2.7705,-2.7767,-2.7524,-2.7524,-2.7534,-2.7575,-2.7735,-2.7894,-2.7785,-2.7894,-2.8795,-2.9166,-2.9127,-2.9264,-2.9683,-3.007,-3.0342,-3.0384,-3.0199,-3.0321,-3.0363,-3.0405,-3.0342,-3.0468,-3.0447,-3.0468,-3.0489,-3.0489,-3.0489,-3.0489]}]]